[[{"header":{"parameterUnit":"m.s-1","parameterCategory":1,"la1":30.6,"la2":29.2853,"lo1":-89.7004,"lo2":-87.6739,"dy":0.0162,"dx":0.0183,"nx":112,"ny":82,"refTime":"2026-03-27T12:00:00:Z","depth":0,"parameterNumber":2,"parameterNumberName":"U-component_of_WINDS"},"data":[0.0,0.0,0.0,0.0,0.0,0.0,0.0,0.0,0.0,0.0,0.0,0.0,0.0,0.0,0.0,0.0,0.0,0.0,0.0,0.0,0.0,0.0,0.0,0.0,0.0,0.0,0.0,0.0,0.0,0.0,0.0,0.0,0.0,0.0,0.0,0.0,0.0,0.0,0.0,0.0,0.0,0.0,0.0,0.0,0.0,0.0,0.0,0.0,0.0,0.0,0.0,0.0,0.0,0.0,0.0,0.0,0.0,0.0,0.0,0.0,0.0,0.0,0.0,0.0,0.0,0.0,0.0,0.0,0.0,0.0,0.0,0.0,0.0,0.0,0.0,0.0,0.0,0.0,0.0,0.0,0.0,0.0,0.0,0.0,0.0,0.0,0.0,0.0,0.0,0.0,-5.8854,-6.3257,-6.9009,-7.1635,-6.9429,-6.7926,-6.546,-6.153,0.0,0.0,0.0,0.0,0.0,0.0,0.0,0.0,0.0,0.0,0.0,0.0,0.0,0.0,0.0,0.0,0.0,0.0,0.0,0.0,0.0,0.0,0.0,0.0,0.0,0.0,0.0,0.0,0.0,0.0,0.0,0.0,0.0,0.0,0.0,0.0,0.0,0.0,0.0,0.0,0.0,0.0,0.0,0.0,0.0,0.0,0.0,0.0,0.0,0.0,0.0,0.0,0.0,0.0,0.0,0.0,0.0,0.0,0.0,0.0,0.0,0.0,0.0,0.0,0.0,0.0,0.0,0.0,0.0,0.0,0.0,0.0,0.0,0.0,0.0,0.0,0.0,0.0,0.0,0.0,0.0,0.0,0.0,0.0,0.0,0.0,0.0,0.0,0.0,0.0,0.0,0.0,0.0,0.0,0.0,0.0,0.0,0.0,0.0,0.0,0.0,0.0,0.0,0.0,-6.1166,-6.732,-7.0697,-7.1798,-7.0101,-6.9137,-6.6859,-6.2794,0.0,0.0,0.0,0.0,0.0,0.0,0.0,0.0,0.0,0.0,0.0,0.0,0.0,0.0,0.0,0.0,0.0,0.0,0.0,0.0,0.0,0.0,0.0,0.0,0.0,0.0,0.0,0.0,0.0,0.0,0.0,0.0,0.0,0.0,0.0,0.0,0.0,0.0,0.0,0.0,0.0,0.0,0.0,0.0,0.0,0.0,0.0,0.0,0.0,0.0,0.0,0.0,0.0,0.0,0.0,0.0,0.0,0.0,0.0,0.0,0.0,0.0,0.0,0.0,0.0,0.0,0.0,0.0,0.0,0.0,0.0,0.0,0.0,0.0,0.0,0.0,0.0,0.0,0.0,0.0,0.0,0.0,0.0,0.0,0.0,0.0,0.0,0.0,0.0,0.0,0.0,0.0,0.0,0.0,0.0,0.0,0.0,0.0,0.0,0.0,0.0,0.0,0.0,-6.0752,-6.463,-6.8142,-7.0778,-7.145,-6.9457,-6.8257,-6.5852,-6.1777,-5.7228,0.0,0.0,0.0,0.0,0.0,0.0,0.0,0.0,0.0,0.0,0.0,0.0,0.0,0.0,0.0,0.0,0.0,0.0,0.0,0.0,0.0,0.0,0.0,0.0,0.0,0.0,0.0,0.0,0.0,0.0,0.0,0.0,0.0,0.0,0.0,0.0,0.0,0.0,0.0,0.0,0.0,0.0,0.0,0.0,0.0,0.0,0.0,0.0,0.0,0.0,0.0,0.0,0.0,0.0,0.0,0.0,0.0,0.0,0.0,0.0,0.0,0.0,0.0,0.0,0.0,0.0,0.0,0.0,0.0,0.0,0.0,0.0,0.0,0.0,0.0,0.0,0.0,0.0,0.0,0.0,0.0,0.0,0.0,0.0,0.0,0.0,0.0,0.0,0.0,0.0,0.0,0.0,0.0,0.0,0.0,0.0,0.0,0.0,0.0,0.0,0.0,0.0,-6.3942,-6.7203,-6.8066,-7.0338,-7.0804,-6.839,-6.6966,-6.4383,-6.0089,-5.6235,0.0,0.0,0.0,0.0,0.0,0.0,0.0,0.0,0.0,0.0,0.0,0.0,0.0,0.0,0.0,0.0,0.0,0.0,0.0,0.0,0.0,0.0,0.0,0.0,0.0,0.0,0.0,0.0,0.0,0.0,0.0,0.0,0.0,0.0,0.0,0.0,0.0,0.0,0.0,0.0,0.0,0.0,0.0,0.0,0.0,0.0,0.0,0.0,0.0,0.0,0.0,0.0,0.0,0.0,0.0,0.0,0.0,0.0,0.0,0.0,0.0,0.0,0.0,0.0,0.0,0.0,0.0,0.0,0.0,0.0,0.0,0.0,0.0,0.0,0.0,0.0,0.0,0.0,0.0,0.0,0.0,0.0,0.0,0.0,0.0,0.0,0.0,0.0,0.0,0.0,0.0,0.0,0.0,0.0,0.0,0.0,0.0,0.0,0.0,0.0,0.0,0.0,-6.4389,-6.7431,-6.7939,-6.9897,-7.0056,-6.7281,-6.6025,-6.3319,-5.8474,-5.5097,0.0,0.0,0.0,0.0,0.0,0.0,0.0,0.0,0.0,0.0,0.0,0.0,0.0,0.0,0.0,0.0,0.0,0.0,0.0,0.0,0.0,0.0,0.0,0.0,0.0,0.0,0.0,0.0,0.0,0.0,0.0,0.0,0.0,0.0,0.0,0.0,0.0,0.0,0.0,0.0,0.0,0.0,0.0,0.0,0.0,0.0,0.0,0.0,0.0,0.0,0.0,0.0,0.0,0.0,0.0,0.0,0.0,0.0,0.0,0.0,0.0,0.0,0.0,0.0,0.0,0.0,0.0,0.0,0.0,0.0,0.0,0.0,0.0,0.0,0.0,0.0,0.0,0.0,0.0,0.0,0.0,0.0,0.0,0.0,0.0,0.0,0.0,0.0,0.0,0.0,0.0,0.0,0.0,0.0,0.0,0.0,0.0,0.0,0.0,0.0,0.0,0.0,-6.2745,-6.5619,0.0,-6.8097,-6.8131,-6.5821,-6.4597,-6.2109,-5.7777,0.0,0.0,0.0,0.0,0.0,0.0,0.0,0.0,0.0,0.0,0.0,0.0,0.0,0.0,0.0,0.0,0.0,0.0,0.0,0.0,0.0,0.0,0.0,0.0,0.0,0.0,0.0,0.0,0.0,0.0,0.0,0.0,0.0,0.0,0.0,0.0,0.0,0.0,0.0,0.0,0.0,0.0,0.0,0.0,0.0,0.0,0.0,0.0,0.0,0.0,0.0,0.0,0.0,0.0,0.0,0.0,0.0,0.0,0.0,0.0,0.0,0.0,0.0,0.0,0.0,0.0,0.0,0.0,0.0,0.0,0.0,0.0,0.0,0.0,0.0,0.0,0.0,0.0,0.0,0.0,0.0,0.0,0.0,0.0,0.0,0.0,0.0,0.0,0.0,0.0,0.0,0.0,0.0,0.0,0.0,0.0,0.0,0.0,0.0,0.0,0.0,0.0,-5.7149,-6.1084,-6.3889,0.0,-6.6321,-6.6347,-6.4056,-6.291,-6.0588,-5.6534,0.0,0.0,0.0,0.0,0.0,0.0,0.0,0.0,0.0,0.0,0.0,0.0,0.0,0.0,0.0,0.0,0.0,0.0,0.0,0.0,0.0,0.0,0.0,0.0,0.0,0.0,0.0,0.0,0.0,0.0,0.0,0.0,0.0,0.0,0.0,0.0,0.0,0.0,0.0,0.0,0.0,0.0,0.0,0.0,0.0,0.0,0.0,0.0,0.0,0.0,0.0,0.0,0.0,0.0,0.0,0.0,0.0,0.0,0.0,0.0,0.0,0.0,0.0,0.0,0.0,0.0,0.0,0.0,0.0,0.0,0.0,0.0,0.0,0.0,0.0,0.0,0.0,0.0,0.0,0.0,0.0,0.0,0.0,0.0,0.0,0.0,0.0,0.0,0.0,0.0,0.0,0.0,0.0,0.0,0.0,0.0,0.0,0.0,0.0,0.0,0.0,0.0,-5.5276,-5.9607,-6.2542,-6.2931,-6.4772,-6.4872,-6.2125,-6.0906,-5.8648,0.0,0.0,0.0,0.0,0.0,0.0,0.0,0.0,0.0,0.0,0.0,0.0,0.0,0.0,0.0,0.0,0.0,0.0,0.0,0.0,0.0,0.0,0.0,0.0,0.0,0.0,0.0,0.0,0.0,0.0,0.0,0.0,0.0,0.0,0.0,0.0,0.0,0.0,0.0,0.0,0.0,0.0,0.0,0.0,0.0,0.0,0.0,0.0,0.0,0.0,0.0,0.0,0.0,0.0,0.0,0.0,0.0,0.0,0.0,0.0,0.0,0.0,0.0,0.0,0.0,0.0,0.0,0.0,0.0,0.0,0.0,0.0,0.0,0.0,0.0,0.0,0.0,0.0,0.0,0.0,0.0,0.0,0.0,0.0,0.0,0.0,0.0,0.0,0.0,0.0,0.0,0.0,0.0,0.0,0.0,0.0,0.0,0.0,0.0,0.0,0.0,0.0,0.0,-5.4532,-5.8355,-6.1109,-6.1919,-6.3193,-6.3324,-6.1535,-6.0839,-5.8838,-5.4994,0.0,0.0,0.0,0.0,0.0,0.0,0.0,0.0,0.0,0.0,0.0,0.0,0.0,0.0,0.0,0.0,0.0,0.0,0.0,0.0,0.0,0.0,0.0,0.0,0.0,0.0,0.0,0.0,0.0,0.0,0.0,0.0,0.0,0.0,0.0,0.0,0.0,0.0,0.0,0.0,0.0,0.0,0.0,0.0,0.0,0.0,0.0,0.0,0.0,0.0,0.0,0.0,0.0,0.0,0.0,0.0,0.0,0.0,0.0,0.0,0.0,0.0,0.0,0.0,0.0,0.0,0.0,0.0,0.0,0.0,0.0,0.0,0.0,0.0,0.0,0.0,0.0,0.0,0.0,0.0,0.0,0.0,0.0,0.0,0.0,0.0,0.0,0.0,0.0,0.0,0.0,0.0,0.0,0.0,0.0,0.0,0.0,0.0,0.0,0.0,0.0,0.0,-5.416,-5.7814,-6.0457,-6.1389,-6.2332,-6.2317,-6.0852,-6.0522,-5.8806,-5.5021,0.0,0.0,0.0,0.0,0.0,0.0,0.0,0.0,0.0,0.0,0.0,0.0,0.0,0.0,0.0,0.0,0.0,0.0,0.0,0.0,0.0,0.0,0.0,0.0,0.0,0.0,0.0,0.0,0.0,0.0,0.0,0.0,0.0,0.0,0.0,0.0,0.0,0.0,0.0,0.0,0.0,0.0,0.0,0.0,0.0,0.0,0.0,0.0,0.0,0.0,0.0,0.0,0.0,0.0,0.0,0.0,0.0,0.0,0.0,0.0,0.0,0.0,0.0,0.0,0.0,0.0,0.0,0.0,0.0,0.0,0.0,0.0,0.0,0.0,0.0,0.0,0.0,0.0,0.0,0.0,0.0,0.0,0.0,0.0,0.0,0.0,0.0,0.0,0.0,0.0,0.0,0.0,0.0,0.0,0.0,0.0,0.0,0.0,0.0,0.0,0.0,0.0,-5.3957,-5.7671,-6.027,-6.1013,-6.1722,-6.1553,-6.0102,-5.9933,-5.8346,-5.4734,0.0,0.0,0.0,0.0,0.0,0.0,0.0,0.0,0.0,0.0,0.0,0.0,0.0,0.0,0.0,0.0,0.0,0.0,0.0,0.0,0.0,0.0,0.0,0.0,0.0,0.0,0.0,0.0,0.0,0.0,0.0,0.0,0.0,0.0,0.0,0.0,0.0,0.0,0.0,0.0,0.0,0.0,0.0,0.0,0.0,0.0,0.0,0.0,0.0,0.0,0.0,0.0,0.0,0.0,0.0,0.0,0.0,0.0,0.0,0.0,-5.0574,0.0,0.0,0.0,0.0,0.0,0.0,0.0,0.0,0.0,0.0,0.0,0.0,0.0,0.0,0.0,0.0,0.0,0.0,0.0,0.0,0.0,0.0,0.0,0.0,0.0,0.0,0.0,0.0,0.0,0.0,0.0,0.0,0.0,0.0,0.0,0.0,0.0,0.0,0.0,0.0,0.0,-5.2632,-5.6592,-5.9212,-5.9378,-6.0044,-6.0111,-5.9245,-5.8613,-5.702,-5.4066,-5.1229,0.0,0.0,0.0,0.0,0.0,0.0,0.0,0.0,0.0,0.0,0.0,0.0,0.0,0.0,0.0,0.0,0.0,0.0,0.0,0.0,0.0,0.0,0.0,0.0,0.0,0.0,0.0,0.0,0.0,0.0,0.0,0.0,0.0,0.0,0.0,0.0,0.0,0.0,0.0,0.0,0.0,0.0,0.0,0.0,0.0,0.0,0.0,0.0,0.0,0.0,0.0,0.0,0.0,0.0,0.0,0.0,0.0,0.0,0.0,0.0,-5.0794,0.0,0.0,0.0,0.0,0.0,0.0,0.0,0.0,0.0,0.0,0.0,0.0,0.0,0.0,0.0,0.0,0.0,0.0,0.0,0.0,0.0,0.0,0.0,0.0,0.0,0.0,0.0,0.0,0.0,0.0,0.0,0.0,0.0,0.0,0.0,0.0,0.0,0.0,0.0,0.0,-5.152,-5.5385,-5.7738,-5.7453,-5.8335,-5.8489,-5.7477,-5.7021,-5.5829,-5.3541,-5.0902,0.0,0.0,0.0,0.0,0.0,0.0,0.0,0.0,0.0,0.0,0.0,0.0,0.0,0.0,0.0,0.0,0.0,0.0,0.0,0.0,0.0,0.0,0.0,0.0,0.0,0.0,0.0,0.0,0.0,0.0,0.0,0.0,0.0,0.0,0.0,0.0,0.0,0.0,0.0,0.0,0.0,0.0,0.0,0.0,0.0,0.0,0.0,0.0,0.0,0.0,0.0,0.0,0.0,-5.1602,-5.191,-5.2479,-5.2479,-5.2543,-5.2625,-5.2021,-5.1962,-5.2302,-5.1648,0.0,0.0,0.0,0.0,0.0,0.0,0.0,0.0,0.0,0.0,0.0,0.0,0.0,0.0,0.0,0.0,0.0,0.0,0.0,0.0,0.0,0.0,0.0,0.0,-4.9831,-4.977,0.0,0.0,0.0,0.0,0.0,0.0,0.0,0.0,0.0,0.0,0.0,0.0,-5.0408,-5.3958,-5.608,-5.5464,-5.6475,-5.675,-5.5602,-5.5336,-5.4643,-5.3182,-5.0811,-4.8702,0.0,0.0,0.0,0.0,0.0,0.0,0.0,0.0,0.0,0.0,0.0,0.0,0.0,0.0,0.0,0.0,0.0,0.0,0.0,0.0,0.0,0.0,0.0,0.0,0.0,0.0,0.0,0.0,0.0,0.0,0.0,0.0,-5.091,-5.2416,0.0,0.0,0.0,0.0,0.0,0.0,0.0,0.0,0.0,0.0,0.0,0.0,0.0,-5.0268,-5.0809,-5.213,-5.2847,-5.2941,-5.3502,-5.3814,-5.3908,-5.3908,-5.4264,-5.484,-5.4097,0.0,-5.3012,-5.2349,0.0,0.0,0.0,0.0,0.0,0.0,0.0,0.0,0.0,0.0,0.0,0.0,0.0,0.0,0.0,0.0,0.0,0.0,0.0,0.0,0.0,0.0,-4.993,-4.9403,-5.0637,-5.1509,0.0,-4.9113,-4.8372,-4.7347,-4.6389,0.0,0.0,0.0,0.0,0.0,0.0,0.0,-4.8923,-5.2377,-5.4442,-5.3796,-5.4423,-5.4755,-5.4567,-5.4003,-5.3412,-5.2986,-5.1184,-4.947,-4.7909,-4.5373,0.0,0.0,0.0,0.0,0.0,0.0,0.0,0.0,0.0,0.0,0.0,0.0,0.0,0.0,0.0,0.0,0.0,0.0,0.0,0.0,0.0,0.0,0.0,0.0,0.0,0.0,0.0,0.0,0.0,-5.0235,-5.0912,-5.1508,-5.1986,-5.194,0.0,0.0,0.0,0.0,0.0,0.0,0.0,0.0,0.0,-4.9951,-5.0441,-5.1044,-5.1698,-5.2687,-5.3387,-5.3783,-5.4057,-5.4392,-5.4757,-5.4757,-5.4957,-5.5232,-5.4927,-5.4582,-5.4252,-5.3621,-5.2964,-5.2209,0.0,0.0,0.0,0.0,-4.893,-4.9307,-4.9949,-4.9792,0.0,-4.9165,0.0,0.0,0.0,0.0,0.0,0.0,0.0,0.0,0.0,0.0,-5.0315,-5.081,-5.1289,-5.1588,-5.1379,-5.0744,-4.9761,0.0,-4.7229,-4.6084,-4.4075,0.0,0.0,0.0,0.0,-4.661,-4.81,-5.1155,-5.2749,-5.1682,-5.2505,-5.2993,-5.2627,-5.2322,-5.2199,-5.2339,-5.1118,-4.9846,-4.8688,-4.671,-4.4842,0.0,0.0,0.0,0.0,0.0,0.0,0.0,0.0,0.0,0.0,0.0,0.0,0.0,0.0,0.0,0.0,0.0,0.0,0.0,0.0,0.0,0.0,0.0,0.0,0.0,0.0,0.0,0.0,-5.0686,-5.1196,-5.126,-5.2136,-5.2393,0.0,0.0,0.0,0.0,0.0,0.0,-5.1562,-5.1396,-5.1469,-5.1787,-5.2077,-5.2546,-5.3204,-5.3713,-5.4221,-5.47,-5.4551,-5.473,-5.5209,-5.5359,-5.5448,-5.5448,-5.5598,-5.5688,-5.561,-5.463,-5.3836,-5.3127,-5.1696,-5.079,-5.0371,-5.0371,-5.0494,-5.0771,-5.1665,-5.1726,-5.1387,-5.1018,0.0,-4.8594,-4.6643,0.0,0.0,0.0,0.0,-4.7951,-4.8771,-4.9974,-5.1199,-5.2007,-5.1947,-5.1798,-5.2127,-5.1828,-5.0873,0.0,-4.811,-4.6997,-4.484,0.0,0.0,0.0,0.0,-4.6336,-4.7455,-5.014,-5.1498,-5.0315,-5.1259,-5.1738,-5.1259,-5.1229,-5.1386,-5.1803,-5.0859,-4.9965,-4.9213,-4.7629,-4.5887,-4.4008,0.0,0.0,0.0,0.0,0.0,0.0,0.0,0.0,0.0,0.0,0.0,0.0,0.0,0.0,0.0,0.0,0.0,0.0,0.0,0.0,0.0,0.0,0.0,0.0,0.0,0.0,0.0,0.0,0.0,-5.307,-5.3852,0.0,0.0,0.0,0.0,-5.2794,-5.3113,-5.3285,-5.3085,-5.3493,-5.3923,-5.4315,-5.476,-5.5299,-5.5957,-5.6068,-5.6098,-5.6128,-5.5448,-5.5149,-5.5209,-5.5837,-5.6188,-5.6166,-5.6735,-5.7004,-5.6855,-5.501,-5.3811,-5.308,-5.1712,-5.1173,-5.1143,-5.1143,-5.1563,-5.2282,-5.3601,-5.3211,-5.2252,-5.2822,-5.0919,-4.8055,-4.6706,-4.6214,0.0,0.0,-4.858,-5.0062,-5.0122,-5.1588,-5.2905,-5.2336,-5.2665,-5.2905,-5.2336,-5.2187,-5.1832,0.0,-4.9579,-4.825,-4.6386,0.0,-4.4834,-4.3441,-4.5758,-4.7431,-4.6749,-4.9359,-5.099,-5.0255,-5.0794,-5.1259,-5.1229,-5.1229,-5.1323,-5.1572,-5.0562,-4.9809,-4.9505,-4.775,-4.6253,-4.5042,-4.3671,0.0,0.0,0.0,0.0,0.0,0.0,0.0,0.0,0.0,0.0,0.0,0.0,0.0,0.0,0.0,0.0,0.0,0.0,0.0,0.0,0.0,0.0,0.0,0.0,0.0,0.0,0.0,0.0,-5.3833,-5.4877,0.0,-5.4801,-5.4135,-5.4104,-5.4952,-5.5156,-5.5359,-5.5702,-5.5872,-5.6011,-5.62,-5.6338,-5.6526,-5.6765,-5.6376,-5.6218,-5.6218,-5.5508,-5.5418,-5.5837,-5.6128,-5.6376,-5.6765,-5.7004,-5.7094,-5.7034,-5.6346,-5.5688,-5.5059,-5.4581,-5.3892,-5.3144,-5.3144,-5.2995,-5.2905,-5.3384,-5.3234,-5.2725,-5.2127,-5.084,-4.9314,-4.7997,-4.7578,-4.7638,-4.7878,-4.9045,-5.0196,-5.0196,-5.1079,-5.1977,-5.2157,-5.2067,-5.1977,-5.2157,-5.1528,-5.081,-5.0423,-4.9704,-4.8681,-4.7159,-4.6399,-4.5947,-4.5875,-4.7147,-4.8323,-4.8835,-5.0242,-5.1139,-5.0853,-5.1079,-5.1229,-5.1229,-5.1229,-5.1229,-5.1369,-5.0545,-4.99,-4.9414,-4.8339,-4.7183,-4.593,-4.417,-4.2379,0.0,0.0,0.0,0.0,0.0,0.0,0.0,0.0,0.0,0.0,0.0,0.0,0.0,0.0,0.0,0.0,0.0,0.0,0.0,0.0,0.0,0.0,0.0,0.0,0.0,0.0,-5.4281,-5.4521,-5.5897,-5.6555,-5.5897,-5.5448,-5.5538,-5.6406,-5.6705,-5.7004,-5.7423,-5.7453,-5.7543,-5.7782,-5.7573,-5.7543,-5.7782,-5.7154,-5.6825,-5.6825,-5.6166,-5.6047,-5.6496,-5.6735,-5.7064,-5.7453,-5.7663,-5.7782,-5.7782,-5.7782,-5.7393,-5.6795,-5.6585,-5.5837,-5.488,-5.488,-5.4431,-5.3862,-5.3862,-5.3862,-5.3683,-5.2576,-5.1822,-5.1208,-5.0133,-4.9759,-4.9637,-4.9399,-5.0113,-5.0857,-5.0411,-5.0798,-5.1381,-5.159,-5.1322,-5.1006,-5.1262,-5.0428,-4.9683,-4.9683,-4.9283,-4.8596,-4.7489,-4.695,-4.6741,-4.695,-4.7908,-4.8925,-4.9793,-5.0661,-5.1229,-5.1229,-5.1229,-5.1229,-5.1229,-5.102,-5.0853,-5.0853,-5.0016,-4.9374,-4.9,-4.8297,-4.7429,-4.6309,-4.4167,-4.2073,-4.0068,0.0,0.0,0.0,0.0,0.0,0.0,0.0,0.0,0.0,0.0,0.0,0.0,0.0,0.0,0.0,0.0,0.0,0.0,0.0,0.0,0.0,0.0,0.0,-5.1079,-5.2995,-5.4521,-5.5179,-5.6974,-5.7902,-5.7214,-5.7154,-5.7154,-5.7154,-5.7782,-5.8141,-5.8112,-5.8112,-5.8411,-5.9009,-5.8441,-5.8441,-5.9069,-5.8441,-5.8088,-5.8058,-5.7423,-5.7094,-5.7154,-5.7759,-5.8088,-5.8148,-5.883,-5.9099,-5.9099,-5.9099,-5.871,-5.8052,-5.7393,-5.6735,-5.6218,-5.6218,-5.5748,-5.5179,-5.5179,-5.5179,-5.5089,-5.4431,-5.3993,-5.3644,-5.2961,-5.2586,-5.224,-5.1532,-5.1827,-5.2034,-5.0795,-5.0943,-5.1238,-5.06,-5.0453,-5.0246,-4.9599,-4.8968,-4.8525,-4.8542,-4.8327,-4.8013,-4.7385,-4.7296,-4.7086,-4.6429,-4.8057,0.0,-4.9284,-5.0421,-5.1182,-5.1182,-5.1182,-5.1152,-5.1152,-5.0554,-5.0166,-5.0136,-4.891,-4.8237,-4.8237,-4.7608,-4.6877,-4.619,-4.3688,-4.1414,-3.9433,0.0,0.0,0.0,0.0,0.0,0.0,0.0,0.0,0.0,0.0,0.0,0.0,0.0,0.0,0.0,0.0,0.0,0.0,0.0,0.0,0.0,-5.0011,-5.1054,-5.184,-5.4072,-5.5867,-5.6496,-5.7902,-5.877,-5.856,-5.856,-5.856,-5.856,-5.874,-5.862,-5.8141,-5.8112,-5.7992,-5.7663,-5.7962,-5.8201,-5.8381,-5.8017,-5.7821,-5.7791,-5.7136,-5.7077,-5.7523,-5.7732,-5.8059,-5.8535,-5.8714,-5.8773,-5.8857,-5.8991,-5.871,-5.8112,-5.7932,-5.7154,-5.6218,-5.6218,-5.5748,-5.5179,-5.5179,-5.5179,-5.5089,-5.4201,-5.3893,-5.3555,-5.2181,-5.1729,-5.1444,-5.0324,-5.0147,-5.0158,-4.9662,-4.9501,-4.9484,-4.9582,-4.9444,-4.9095,-4.8538,-4.7903,-4.7326,-4.6864,-4.635,-4.6321,-4.7318,-4.7511,-4.7451,-4.7274,-4.8518,0.0,-4.9466,-5.0206,-5.0662,-5.0662,-5.0662,-5.0484,-5.0028,-4.9821,-4.9317,-4.837,-4.754,-4.6859,-4.6458,-4.5763,-4.4874,-4.3719,-4.2495,-4.14,0.0,0.0,0.0,0.0,0.0,0.0,0.0,0.0,0.0,0.0,0.0,0.0,0.0,0.0,0.0,0.0,0.0,0.0,0.0,0.0,0.0,0.0,-5.0643,-5.1381,-5.218,-5.4465,-5.6272,-5.6924,-5.8011,-5.8773,-5.8936,-5.9045,-5.9099,-5.9099,-5.9099,-5.8949,-5.856,-5.7992,-5.7752,-5.7932,-5.7782,-5.7909,-5.8369,-5.8238,-5.7991,-5.7719,-5.7335,-5.7311,-5.7555,-5.7361,-5.7621,0.0,-5.8003,-5.7974,-5.8085,-5.8039,-5.7592,0.0,0.0,0.0,0.0,0.0,-5.5172,-5.4794,-5.4794,-5.4794,-5.4735,-5.4196,-5.3926,-5.3617,-5.2414,-5.161,-5.0808,-4.952,-4.8758,-4.8302,-4.7945,-4.774,-4.7701,-4.7985,-4.7925,-4.7539,-4.6749,-4.6077,-4.5412,-4.4844,-4.4153,0.0,-4.537,-4.6131,-4.6658,-4.6949,-4.7619,-4.8202,-4.8464,-4.9076,-4.9436,-4.9436,-4.964,-4.964,-4.9262,-4.8738,0.0,0.0,0.0,-4.5346,-4.4705,-4.4559,0.0,0.0,0.0,0.0,0.0,0.0,0.0,0.0,-3.8226,-3.8865,0.0,0.0,0.0,0.0,0.0,0.0,0.0,0.0,0.0,0.0,0.0,0.0,0.0,0.0,0.0,0.0,-5.0763,-5.1122,-5.2156,-5.4196,-5.5794,-5.6482,-5.7426,-5.814,-5.85,-5.8828,-5.9045,-5.9045,-5.9045,-5.9015,-5.8955,0.0,0.0,0.0,0.0,-5.757,-5.8491,-5.858,-5.828,-5.7725,-5.7613,-5.736,-5.6992,-5.6651,-5.6651,-5.6879,-5.6508,-5.6537,-5.6791,-5.6212,-5.5577,-5.5111,-5.6638,-5.6509,-5.536,-5.451,-5.42,-5.42,-5.42,0.0,0.0,-5.4097,-5.389,-5.3564,-5.2894,-5.1614,-5.0246,-4.8808,-4.7565,-4.6547,-4.6052,-4.591,-4.5965,-4.6105,-4.6119,-4.5813,-4.4675,-4.3949,-4.3332,-4.2733,-4.2166,-4.195,-4.2517,-4.389,-4.5022,-4.5665,-4.5808,-4.6064,-4.6652,-4.7287,-4.7714,-4.7714,0.0,0.0,-4.8432,-4.7466,-4.65,-4.5761,-4.4425,-4.3446,-4.2893,-4.3332,-4.3373,-4.2846,-4.3442,-4.3199,-4.2062,-4.1147,-3.9877,-3.8276,-3.9114,-3.9644,0.0,0.0,0.0,0.0,0.0,0.0,0.0,0.0,0.0,0.0,0.0,0.0,0.0,0.0,0.0,-5.0357,-5.1016,-5.1595,-5.1796,-5.3069,-5.4266,-5.5168,-5.6107,-5.6907,-5.7528,-5.828,-5.8803,-5.8803,-5.8803,-5.8565,-5.7975,-5.7463,-5.7089,-5.6852,-5.7089,-5.7271,-5.7483,-5.7794,-5.7669,-5.705,0.0,0.0,-5.5325,-5.471,-5.4533,-5.4505,-5.4007,-5.3871,-5.3874,-5.358,-5.2909,-5.2268,-5.374,-5.4142,-5.3908,-5.3687,-5.3629,-5.3629,-5.3337,-5.3073,-5.289,-5.2648,-5.2541,-5.2288,-5.0914,-4.9931,0.0,-4.7165,-4.6147,-4.5458,-4.4933,-4.4869,-4.4924,-4.501,-4.5023,-4.4704,-4.3572,-4.3229,-4.2834,-4.1805,-4.1515,-4.1462,-4.1594,-4.2501,-4.33,-4.3437,-4.3849,-4.4206,-4.4315,-4.5276,-4.5962,-4.5962,-4.6483,-4.6596,-4.6103,-4.5856,-4.5011,-4.3451,-4.1753,-4.0566,-4.0035,-4.0117,-4.0292,-4.0631,-4.1187,-4.1625,-4.1844,-4.1734,-4.1069,-3.9923,-3.9841,-3.9553,0.0,0.0,0.0,0.0,0.0,0.0,0.0,0.0,0.0,0.0,0.0,-4.8787,-4.9563,0.0,-4.9665,-5.0045,-5.0255,-5.0386,-5.0729,-5.1329,-5.2429,-5.4027,-5.4923,-5.5703,-5.6537,-5.7274,-5.7807,-5.8003,-5.7807,-5.7605,-5.7283,-5.663,-5.629,-5.6319,-5.629,-5.6379,-5.653,-5.6735,-5.6451,-5.5701,-5.5205,-5.4588,-5.3992,-5.3302,-5.2958,-5.2782,-5.2392,-5.2155,-5.1981,-5.156,-5.0821,-5.0023,-5.11,-5.1948,-5.2566,-5.2623,-5.2623,-5.2512,-5.2082,-5.1593,-5.121,-5.11,-5.1044,-5.0823,-4.9441,-4.8365,-4.7291,-4.5696,-4.4621,-4.3842,-4.3655,-4.3647,-4.3699,-4.3834,-4.3873,-4.3541,-4.2385,-4.2129,-4.1849,-4.0696,-4.0491,-4.0491,-4.0491,-4.092,-4.1445,-4.199,-4.2328,-4.2515,-4.2515,-4.3288,-4.3848,-4.3848,-4.4622,-4.4969,-4.4676,-4.4331,-4.3533,-4.202,-4.0824,-3.992,-3.9382,-3.9621,-4.0074,-4.0611,-4.1196,-4.1648,-4.1963,-4.1594,-4.0908,-4.0065,-4.0024,-3.9748,0.0,0.0,0.0,0.0,0.0,0.0,0.0,-4.8319,-4.7683,-4.9066,-4.9282,-4.9378,-5.005,-4.9793,-4.9507,-4.9796,-4.9282,-4.904,-4.9603,-4.9939,-5.0778,-5.2596,-5.351,-5.4291,-5.515,-5.5876,-5.6337,-5.6651,-5.6394,-5.6222,-5.6222,-5.5452,-5.5252,-5.5847,-5.528,-5.5137,-5.544,-5.544,-5.497,-5.4112,-5.3582,-5.3072,-5.2402,-5.1654,-5.1154,-5.0951,-5.0629,-5.0322,-4.9957,-4.9508,-4.8858,-4.8178,-4.8815,-4.9872,-5.1017,-5.132,-5.143,-5.1265,-5.0712,-5.0097,-4.9562,-4.9454,-4.94,-4.9185,-4.7972,-4.6813,-4.5711,-4.4584,-4.346,-4.2587,-4.2642,-4.2761,-4.2863,-4.29,-4.2971,-4.2685,-4.1526,-4.1275,-4.0949,-3.9898,-3.9697,-3.9697,-3.9697,-3.9697,-3.9981,-4.087,-4.0971,-4.0971,-4.0971,-4.149,-4.1853,-4.1853,-4.2865,-4.354,-4.354,-4.3046,-4.2294,-4.1103,-4.0611,-4.0119,-3.955,-4.0013,-4.0506,-4.1025,-4.1542,-4.1776,-4.1776,-4.1131,-4.0414,-3.97,-3.9905,-3.9903,-4.6322,-4.7864,-4.9881,-5.0394,-5.0971,-5.1472,0.0,-5.0806,-5.0205,-5.0814,-5.11,-5.1038,-5.0347,-5.0024,-4.9737,-4.9473,-4.9116,-4.9004,-4.9228,-4.9749,-5.0168,-5.0423,-5.1294,-5.2112,-5.2788,-5.3697,-5.4236,-5.4295,-5.4236,-5.4236,-5.4236,-5.3882,-5.373,-5.3784,-5.373,-5.373,-5.3752,-5.3752,-5.3423,-5.2692,-5.1575,-5.075,-5.0131,-4.8935,-4.837,-4.8269,-4.7814,-4.7309,-4.6838,-4.6727,-4.6651,-4.6601,-4.7205,-4.7886,-4.8647,-4.9756,-5.0208,-5.0125,-4.9502,-4.8899,-4.83,-4.7775,-4.7591,-4.7381,-4.6225,-4.5383,-4.4727,-4.4071,-4.3363,-4.2788,-4.2554,-4.2756,-4.2926,-4.2703,-4.2806,-4.2685,-4.1526,-4.1275,-4.0949,-3.9898,-3.9697,-3.9697,-3.9697,-3.9697,-3.9749,-3.9852,-3.9903,-3.9903,-3.9903,-4.0331,-4.0658,-4.0658,-4.172,-4.2377,-4.2377,-4.2301,-4.1796,-4.0633,-4.0507,-4.023,-3.9675,-3.9726,-4.0003,-4.0557,-4.0633,-4.0658,-4.0658,-4.0608,-4.0253,-3.9699,-3.9724,-3.9749,-4.8117,-4.9105,-5.0568,-5.21,-5.2573,-5.2778,-5.3292,-5.1927,-5.085,-5.1574,-5.1277,-5.0724,-5.0304,-4.9907,-4.9393,-4.8861,-4.8833,-4.8862,-4.8989,-4.943,-4.9682,-4.9355,-4.9723,-5.0455,-5.1829,-5.2215,-5.2588,-5.312,-5.2964,-5.2815,-5.2815,-5.2535,-5.2377,-5.2377,-5.2377,-5.2377,-5.2377,-5.2377,-5.2006,-5.1197,-5.0529,-4.9749,-4.9033,-4.8283,-4.7732,-4.7431,-4.6903,-4.6527,-4.6301,-4.6301,-4.6301,-4.6361,-4.678,-4.7231,-4.771,-4.8611,-4.8957,-4.8789,-4.8178,-4.756,-4.6976,-4.6473,-4.6269,-4.6064,-4.4914,-4.4347,-4.4066,-4.3479,-4.3147,-4.2914,-4.283,-4.2899,-4.2966,-4.2856,-4.2922,-4.2685,-4.1526,-4.1275,-4.0949,-3.9898,-3.9697,-3.9697,-3.9697,-3.9697,-3.9697,-3.9697,-3.9697,-3.9697,-3.9697,-3.9898,-4.0149,-4.0475,-4.0927,-4.1329,-4.1656,-4.1681,-4.148,-4.0974,-4.0701,-4.04,-4.0174,-3.9873,-3.9948,-4.0501,-4.0526,-4.0526,-4.0526,-4.0526,-4.0224,-3.9697,-3.9697,-3.9697,-4.9689,-5.0421,-5.1494,-5.3366,-5.3802,-5.3827,-5.4202,-5.2621,-5.1314,-5.1944,-5.111,-5.0318,-5.0348,-4.9706,-4.9013,-4.8786,-4.8926,-4.9063,-4.9213,-4.9715,-4.9841,-4.9289,-4.8962,-4.9292,-5.071,-5.0721,-5.0829,-5.1521,-5.1429,-5.1382,-5.1382,-5.1064,-5.0798,-5.0798,-5.0798,-5.0798,-5.0798,-5.0954,-5.0621,-4.9893,-4.9336,-4.8655,-4.7875,-4.7453,-4.7129,-4.6878,-4.6476,-4.6301,-4.6301,-4.6301,-4.6301,-4.6301,-4.6566,-4.678,-4.6993,-4.7468,-4.7736,-4.7743,-4.7085,-4.6527,-4.5974,-4.5246,-4.502,-4.4844,-4.3865,-4.3564,-4.3489,-4.3087,-4.2986,-4.2986,-4.2986,-4.2986,-4.2986,-4.2986,-4.2861,-4.2484,-4.1501,-4.1175,-4.0827,-3.9873,-3.9697,-3.9697,-3.9697,-3.9697,-3.9697,-3.9697,-3.9697,-3.9697,-3.9697,-3.9697,-3.9898,-4.045,-4.0526,-4.0676,-4.1025,-4.12,-4.1275,-4.1275,-4.0953,-4.0802,-4.0953,-4.045,-4.0325,-4.0727,-4.0601,-4.0526,-4.0526,-4.035,-4.0074,-3.9697,-3.9697,-3.9697,-5.0631,-5.2097,-5.3316,-5.4082,-5.456,-5.4705,-5.4114,-5.297,-5.2084,-5.2086,-5.1152,-5.0385,-5.0523,-4.9441,-4.8773,-4.9428,-4.9565,-4.9766,-5.0293,-5.087,-5.1021,-5.0444,-4.9414,-4.885,0.0,-4.8913,-4.8913,-4.8913,-4.9417,-4.9654,-4.9654,-4.9152,-4.885,-4.885,-4.885,-4.885,-4.885,-4.9378,-4.9378,-4.8825,-4.7682,-4.6903,-4.6351,-4.5799,-4.5849,-4.6326,-4.6326,-4.6301,-4.6301,-4.6301,-4.6301,-4.6301,-4.6301,-4.6301,-4.6301,-4.6361,-4.6695,-4.7129,-4.6239,-4.5733,-4.5321,-4.4217,-4.384,-4.374,-4.3162,-4.3011,-4.3011,-4.2986,-4.2986,-4.2986,-4.2986,-4.2986,-4.2986,-4.2986,-4.2615,-4.2032,-4.1401,-4.0874,-4.0375,-3.9798,-3.9697,-3.9697,-3.9697,-3.9697,-3.9697,-3.9697,-3.9697,-3.9697,-3.9697,-3.9697,-3.9898,-4.045,-4.0526,-4.0526,-4.0551,-4.0974,-4.1275,-4.1275,-4.1275,-4.1555,-4.2137,-4.158,-4.125,-4.125,-4.0724,-4.0526,-4.0526,-3.9973,-3.9722,-3.9697,-3.9697,-3.9697,-5.1229,-5.2516,-5.3565,-5.5233,-5.5348,-5.5049,-5.4932,-5.3916,-5.2707,-5.1915,-5.0841,-4.9904,-4.9512,-4.8745,-4.841,-4.9414,-4.9891,-5.0343,-5.0921,-5.1147,-5.1071,-5.0494,-4.9766,0.0,0.0,0.0,0.0,-4.8711,-4.8937,-4.9213,-4.9565,-4.9063,-4.8761,-4.8761,-4.8761,-4.8586,-4.8209,-4.8761,-4.8586,-4.7682,-4.6928,-4.6502,-4.6301,-4.6125,-4.6125,-4.6301,-4.6301,-4.6301,-4.6301,-4.6301,-4.6301,-4.6301,-4.6301,-4.6301,-4.6276,-4.5899,-4.5867,-4.602,-4.5725,-4.559,-4.5296,-4.4166,-4.379,-4.3689,-4.3137,-4.2986,-4.2986,-4.2986,-4.2986,-4.2986,-4.2986,-4.2986,-4.2886,-4.2564,-4.2338,-4.1961,-4.1003,-4.0651,-4.035,-3.9798,-3.9697,-3.9697,-3.9697,-3.9697,-3.9697,-3.9697,-3.9697,-3.9697,-3.9697,-3.9697,-3.9772,-3.9948,-3.9973,-3.9973,-3.9973,-4.0149,-4.04,-4.0777,-4.045,-4.0501,-4.1053,-4.0551,-4.0249,-4.0249,-4.0074,-3.9973,-3.9973,-3.9798,-3.9697,-3.9697,-3.9697,-3.9697,-5.2276,-5.3743,-5.4908,-5.6267,-5.6072,-5.5526,-5.5325,-5.4125,-5.2802,-5.1741,-5.0095,-4.8932,-4.8922,-4.8038,-4.7757,-4.9088,-5.0117,-5.087,-5.1222,-5.1624,-5.1599,-5.082,-5.0243,-4.9439,0.0,0.0,0.0,-4.8134,-4.836,-4.8611,-4.8962,-4.8485,-4.8184,-4.8184,-4.8184,-4.8008,-4.7631,-4.8184,-4.7908,-4.6828,-4.6276,-4.6024,-4.6024,-4.6024,-4.6125,-4.6301,-4.6301,-4.62,-4.6024,-4.6024,-4.5899,-4.5698,-4.5698,-4.5698,-4.5673,-4.5321,-4.5171,-4.5146,-4.4945,-4.4895,-4.4719,-4.3815,-4.3514,-4.3438,-4.3087,-4.2986,-4.2986,-4.2986,-4.2986,-4.2986,-4.2986,-4.2986,-4.2886,-4.259,-4.2158,-4.1681,-4.0953,-4.0501,-4.0124,-3.9772,-3.9697,-3.9697,-3.9697,-3.9697,-3.9697,-3.9697,-3.9697,-3.9697,-3.9697,-3.9697,-3.9697,-3.9697,-3.9697,-3.9697,-3.9697,-3.9697,-3.9923,-4.0475,-3.9998,-3.9948,-4.0501,-3.9998,-3.9697,-3.9697,-3.9697,-3.9697,-3.9697,-3.9697,-3.9697,-3.9697,-3.9697,-3.9697,-5.3773,-5.5688,-5.7146,-5.7296,-5.6839,-5.6193,-5.5292,-5.3833,-5.2394,-5.1451,-4.9169,-4.7573,-4.8564,-4.7354,-4.6778,-4.846,-5.0142,-5.1247,-5.1322,-5.2226,-5.2503,0.0,0.0,0.0,0.0,0.0,0.0,-4.7068,0.0,-4.7883,-4.7908,-4.7405,-4.7068,-4.7068,-4.7068,-4.7129,-4.7043,-4.7581,-4.733,-4.6301,-4.5773,-4.5522,-4.5522,-4.5522,-4.5824,-4.6301,-4.6301,-4.6024,-4.5522,-4.5497,-4.5171,-4.4669,-4.4644,-4.4618,-4.4618,-4.4593,-4.4593,-4.4493,-4.394,-4.379,-4.3714,-4.3162,-4.2986,-4.2986,-4.2986,-4.2986,-4.2986,-4.2986,-4.2986,-4.2986,-4.2986,-4.2986,-4.2961,-4.2936,-4.2133,-4.13,-4.125,-4.0475,-3.9722,-3.9697,-3.9697,-3.9697,-3.9697,-3.9697,-3.9697,-3.9697,-3.9697,-3.9697,-3.9697,-3.9697,-3.9697,-3.9697,-3.9697,-3.9697,-3.9697,-3.9697,-3.9923,-4.045,-3.9973,-3.9923,-4.045,-3.9973,-3.9697,-3.9697,-3.9697,-3.9697,-3.9697,-3.9697,-3.9697,-3.9697,-3.9697,-3.9697,-5.4999,-5.6735,-5.7915,-5.8248,-5.7956,-5.7484,-5.6818,-5.522,-5.3416,-5.1636,-4.8839,-4.6649,-4.6437,-4.5657,-4.5723,-4.7782,-4.954,0.0,-5.1774,-5.2126,0.0,-5.1925,-5.1021,-5.0142,-4.9464,-4.8385,0.0,0.0,-4.7255,-4.7506,-4.7883,-4.7405,-4.7068,-4.7068,-4.7068,-4.6928,-4.6527,-4.6652,-4.6577,-4.6301,-4.6175,-4.61,-4.61,-4.61,-4.6175,-4.6301,-4.6301,-4.6225,-4.6075,-4.5648,-4.5397,-4.5221,-4.4794,-4.4618,-4.4568,-4.4166,-4.4016,-4.394,-4.3388,-4.3463,-4.3714,-4.3162,-4.2986,-4.2986,-4.2986,-4.2986,-4.2986,-4.2986,-4.2986,-4.2986,-4.2986,-4.2986,-4.2861,-4.2514,-4.2213,-4.1731,-4.0902,-4.0501,-4.0199,-3.9772,-3.9697,-3.9697,-3.9697,-3.9697,-3.9697,-3.9697,-3.9697,-3.9697,-3.9697,-3.9697,-3.9697,-3.9697,-3.9697,-3.9697,-3.9697,-3.9697,-3.9747,-3.9898,-3.9772,-3.9747,-3.9898,-3.9772,-3.9697,-3.9697,-3.9697,-3.9697,-3.9697,-3.9697,-3.9697,-3.9697,-3.9697,-3.9697,-5.5688,-5.7334,-5.8596,-5.8684,-5.8405,-5.7909,-5.6881,-5.5269,-5.3485,-5.1343,-4.8148,-4.5731,-4.5742,-4.496,-4.4995,-4.7205,-4.9163,0.0,-5.1272,-5.1574,-5.1649,0.0,-5.0594,0.0,-4.9615,-4.8812,-4.8058,0.0,-4.7029,-4.6903,-4.7179,-4.6928,-4.6778,-4.6778,-4.6552,-4.625,-4.5949,-4.5698,-4.5698,-4.5949,-4.5698,-4.5698,-4.5949,-4.5949,-4.6075,-4.6301,0.0,-4.6175,-4.5899,-4.5347,-4.497,-4.4694,-4.4116,-4.389,-4.3865,-4.3564,-4.3438,-4.3388,-4.3087,-4.3187,-4.3388,-4.3087,-4.2986,-4.2986,-4.2986,-4.2986,-4.2986,-4.2986,-4.2986,-4.2986,-4.2986,-4.2986,-4.2911,-4.264,-4.2389,-4.2037,-4.1379,-4.0852,-4.035,-3.9798,-3.9697,-3.9697,-3.9697,-3.9697,-3.9697,-3.9697,-3.9697,-3.9697,-3.9697,-3.9697,-3.9697,-3.9697,-3.9697,-3.9697,-3.9697,-3.9697,-3.9697,-3.9697,-3.9697,-3.9697,-3.9697,-3.9697,-3.9697,-3.9697,-3.9697,-3.9697,-3.9697,-3.9697,-3.9697,-3.9697,-3.9697,-3.9697,-5.6107,-5.7663,-5.9045,-5.8773,-5.8555,-5.7908,-5.6374,-5.4766,-5.2911,-5.0713,-4.727,-4.4881,-4.5589,-4.4515,-4.4317,-4.6552,-4.8686,-5.0117,-5.0193,-5.0695,-5.0845,-5.0268,-4.9766,-4.949,-4.949,-4.9063,-4.856,-4.8058,-4.7029,-4.6376,-4.6301,-4.6301,-4.6276,-4.62,-4.5723,-4.5497,-4.5497,-4.4995,-4.4995,-4.5472,-4.5045,-4.507,-4.5497,-4.5573,-4.5849,-4.6301,-4.6225,0.0,-4.5447,-4.4794,-4.4242,-4.374,-4.3187,-4.2986,-4.2986,-4.2986,-4.2986,-4.2986,-4.2986,-4.2986,-4.2986,-4.2986,-4.2936,-4.2942,-4.2961,-4.2936,-4.2886,-4.2961,-4.2986,-4.2986,-4.2986,-4.2986,-4.2986,-4.2986,-4.2665,-4.2313,-4.2238,-4.1279,-4.0375,-3.9898,-3.9747,-3.9697,-3.9697,-3.9697,-3.9697,-3.9697,-3.9697,-3.9697,-3.9697,-3.9697,-3.9697,-3.9697,-3.9697,-3.9697,-3.9697,-3.9697,-3.9697,-3.9697,-3.9697,-3.9697,-3.9697,-3.9697,-3.9697,-3.9697,-3.9697,-3.9697,-3.9697,-3.9697,-3.9697,-3.9697,-3.9697,-3.9697,-5.6765,-5.7992,-5.9099,-5.9045,-5.8991,-5.853,-5.6936,-5.4953,-5.2713,-5.0105,-4.6548,-4.3965,-4.4146,-4.3278,-4.3218,-4.5422,-4.723,-4.851,-4.8987,-4.954,-4.969,0.0,-4.8962,-4.8912,-4.8912,-4.8837,0.0,0.0,-4.7606,-4.6803,-4.6326,-4.6301,-4.61,-4.5648,-4.5547,-4.5497,-4.5497,-4.5397,-4.5397,-4.5497,-4.5849,-4.5824,-4.5497,-4.5949,-4.6225,-4.6276,-4.5824,0.0,-4.5422,-4.4367,-4.389,-4.374,-4.3187,-4.2986,-4.2986,-4.2986,-4.2986,-4.2986,-4.2986,-4.2986,-4.2986,-4.2986,-4.2715,-4.2439,-4.2891,-4.2715,-4.2439,-4.2916,-4.2986,-4.2986,-4.2986,-4.2986,-4.2986,-4.2986,-4.2911,-4.2766,-4.2313,-4.1279,-4.0501,-4.04,-3.9998,-3.9697,-3.9697,-3.9697,-3.9697,-3.9697,-3.9697,-3.9697,-3.9697,-3.9697,-3.9697,-3.9697,-3.9697,-3.9697,-3.9697,-3.9697,-3.9697,-3.9697,-3.9697,-3.9697,-3.9697,-3.9697,-3.9697,-3.9697,-3.9697,-3.9697,-3.9697,-3.9697,-3.9697,-3.9697,-3.9697,-3.9697,-5.6915,-5.7812,-5.859,-5.859,-5.8321,-5.758,-5.5627,-5.3743,-5.1649,-4.9109,-4.5984,-4.368,-4.3624,-4.2823,-4.2841,-4.4719,-4.6652,-4.8008,-4.8284,-4.8812,-4.8962,-4.8385,-4.8309,-4.8435,-4.8736,-4.9038,-4.9088,-4.8786,-4.8008,-4.7305,-4.6753,-4.62,-4.5497,-4.4644,-4.4618,-4.4744,-4.5045,-4.4744,-4.4895,-4.5497,-4.5447,-4.5296,-4.5045,-4.5321,-4.5447,-4.5422,-4.5146,0.0,-4.497,-4.4141,-4.379,-4.374,-4.3187,-4.2986,-4.2986,-4.2986,-4.2986,-4.2986,-4.2986,-4.2986,-4.2986,-4.2986,-4.2665,-4.2313,-4.2811,-4.264,-4.2313,-4.2866,-4.2986,-4.2986,-4.2986,-4.2986,-4.2986,-4.2986,-4.2986,-4.2836,-4.2338,-4.1785,-4.1204,-4.0626,-4.03,-4.0023,-3.9747,-3.9697,-3.9697,-3.9697,-3.9697,-3.9697,-3.9697,-3.9697,-3.9697,-3.9697,-3.9697,-3.9697,-3.9697,-3.9697,-3.9697,-3.9697,-3.9697,-3.9697,-3.9697,-3.9697,-3.9697,-3.9697,-3.9697,-3.9697,-3.9697,-3.9697,-3.9697,-3.9697,-3.9697,-3.9697,-5.6765,-5.7483,-5.8052,-5.7782,-5.7304,-5.6294,-5.3973,-5.2288,-5.0474,-4.8153,-4.5511,-4.3562,-4.3326,-4.2495,-4.2359,-4.3991,-4.5924,-4.7255,-4.738,-4.7983,-4.8209,-4.7631,-4.7757,0.0,-4.8535,-4.9188,0.0,-4.8987,-4.8309,-4.7581,-4.6828,-4.5949,-4.497,-4.384,-4.3915,-4.4192,-4.4618,-4.4317,-4.4618,-4.5472,-4.502,-4.4744,-4.4618,-4.4618,-4.4618,-4.4618,-4.4493,0.0,0.0,-4.384,-4.3639,-4.3589,-4.3137,-4.2986,-4.2986,-4.2986,-4.2986,-4.2986,-4.2986,-4.2986,-4.2986,-4.2986,-4.2665,-4.2313,-4.2811,-4.264,-4.2313,-4.2866,-4.2986,-4.2986,-4.2986,-4.2986,-4.2986,-4.2986,-4.2986,-4.2861,-4.2489,-4.2288,-4.1961,-4.1028,-4.0777,-4.0551,-4.0124,-3.9948,-3.9873,-3.9873,-3.9772,-3.9697,-3.9697,-3.9697,-3.9697,-3.9697,-3.9697,-3.9697,-3.9697,-3.9697,-3.9697,-3.9697,-3.9697,-3.9747,-3.9873,-3.9747,-3.9747,-3.9873,-3.9747,-3.9747,-3.9873,-3.9747,-3.9747,-3.9873,-3.9747,-3.9697,-5.6308,-5.7184,-5.7842,-5.6645,-5.6368,-5.5568,-5.2916,-5.1302,-4.9664,-4.7369,-4.5082,-4.3396,-4.2991,-4.1699,-4.1204,-4.2861,-4.4141,-4.5095,-4.5623,-4.6627,-4.7079,-4.6527,0.0,0.0,-4.7983,-4.8962,-4.9565,-4.9515,-4.851,-4.7255,-4.5723,-4.5547,-4.497,-4.384,-4.4292,-4.4568,-4.4618,-4.5095,-4.5397,-4.5497,-4.5422,-4.5121,-4.4618,-4.4618,-4.4618,-4.4593,-4.4091,0.0,0.0,-4.3288,-4.3062,-4.3062,-4.2986,-4.2986,-4.2986,-4.2986,-4.2986,-4.2986,-4.2986,-4.2986,-4.2986,-4.2986,-4.2665,-4.2313,-4.2811,-4.264,-4.2313,-4.2866,-4.2986,-4.2986,-4.2986,-4.2986,-4.2986,-4.2986,-4.2986,-4.2961,-4.2911,-4.2564,-4.2187,-4.2087,-4.1605,-4.12,-4.115,-4.0777,-4.045,-4.045,-4.0023,-3.9697,-3.9697,-3.9697,-3.9697,-3.9697,-3.9697,-3.9697,-3.9697,-3.9697,-3.9697,-3.9697,-3.9697,-3.9923,-4.0425,-3.9948,-3.9923,-4.0425,-3.9948,-3.9948,-4.045,-3.9948,-3.9948,-4.0425,-3.9923,-3.9697,-5.6406,-5.7094,-5.7304,-5.6406,-5.5568,-5.4281,-5.1618,-5.0002,-4.8551,-4.6825,-4.5132,-4.3757,-4.2971,-4.1848,-4.125,-4.2077,-4.3299,-4.4217,-4.4443,-4.5447,-4.5924,-4.5372,-4.5974,0.0,0.0,0.0,-4.8586,-4.8586,-4.7883,-4.6878,-4.5547,-4.5497,-4.497,-4.384,-4.4342,-4.4794,-4.5146,-4.5372,-4.5497,-4.5497,-4.5497,-4.502,-4.4141,-4.4141,-4.394,-4.3614,-4.3388,0.0,0.0,-4.3062,-4.2986,-4.2986,-4.2986,-4.2986,-4.2986,-4.2986,-4.2986,-4.2986,-4.2986,-4.2986,-4.2986,-4.2986,-4.2891,-4.274,-4.2911,-4.264,-4.2313,-4.2866,-4.2986,-4.2986,-4.2986,-4.2986,-4.2986,-4.2986,-4.2986,-4.2986,-4.2986,-4.2811,-4.2615,-4.2263,-4.2037,-4.1731,-4.1351,-4.11,-4.0902,-4.0576,-4.0325,-4.0074,-3.9747,-3.9697,-3.9697,-3.9697,-3.9697,-3.9697,-3.9697,-3.9697,-3.9697,-3.9697,-3.9998,-4.03,-4.0501,-4.0626,-4.0724,-4.0949,-4.0802,-4.0802,-4.0949,-4.0802,-4.0802,-4.0949,-4.0724,-4.0676,-5.6047,-5.6795,-5.6855,-5.5837,-5.473,-5.3204,-5.0541,-4.8925,-4.7672,-4.6535,-4.5401,-4.4312,-4.3321,-4.216,-4.1467,-4.1666,-4.2456,-4.3187,-4.3514,-4.4392,-4.4895,-4.4644,0.0,-4.5447,-4.6024,-4.7029,-4.7732,-4.7908,-4.7431,-4.6652,-4.5547,-4.5648,-4.5221,-4.4091,-4.4593,-4.507,-4.5497,-4.5497,-4.5497,-4.5497,-4.5146,-4.4568,-4.379,-4.3639,-4.3338,-4.2986,-4.2986,0.0,0.0,-4.2986,-4.2986,-4.2986,-4.2986,-4.2986,-4.2986,-4.2986,-4.2986,-4.2986,-4.2986,-4.2986,-4.2986,-4.2986,-4.2986,-4.2986,-4.2986,-4.2766,-4.2539,-4.2861,-4.2986,-4.2986,-4.2986,-4.2986,-4.2986,-4.2986,-4.2986,-4.2986,-4.2986,-4.2986,-4.2861,-4.2539,-4.2464,-4.2283,-4.1907,-4.1681,-4.1455,-4.1053,-4.0852,-4.0626,-4.0224,-4.0174,-4.0174,-4.0174,-4.0174,-4.0049,-3.9722,-3.9848,-3.9948,-3.9948,-4.045,-4.0827,-4.1003,-4.1204,-4.1351,-4.158,-4.1376,-4.1376,-4.158,-4.1376,-4.1376,-4.158,-4.1351,-4.1376,-5.485,-5.6137,-5.6645,-5.47,-5.3713,-5.2516,-4.9928,-4.8267,-4.7179,-4.6668,-4.5943,-4.507,-4.405,-4.262,-4.1629,-4.1698,-4.1508,-4.1756,-4.2836,-4.3463,-4.4016,0.0,-4.4644,-4.4869,-4.5447,-4.6502,-4.7355,-4.7883,-4.7431,0.0,-4.5547,-4.5999,-4.5799,-4.4644,-4.5171,-4.5472,-4.5497,-4.5497,-4.5497,-4.5472,-4.4342,-4.3815,-4.379,-4.3237,-4.2986,0.0,0.0,0.0,0.0,-4.2986,-4.2986,-4.2986,-4.2986,-4.2986,-4.2986,-4.2986,-4.2986,-4.2986,-4.2986,-4.2986,-4.2986,-4.2986,-4.2986,-4.2986,-4.2986,-4.2986,-4.2961,-4.2986,-4.2986,-4.2986,-4.2986,-4.2986,-4.2986,-4.2986,-4.2986,-4.2986,-4.2986,-4.2986,-4.2986,-4.2961,-4.2961,-4.2961,-4.2961,-4.2564,-4.2213,-4.2187,-4.1681,-4.1275,-4.1275,-4.1275,-4.1275,-4.1275,-4.1275,-4.0824,-3.9798,-4.0199,-4.0501,-4.0501,-4.0974,-4.158,-4.2162,-4.163,-4.1605,-4.2187,-4.1605,-4.1605,-4.2213,-4.1605,-4.163,-4.2187,-4.1605,-4.163,-5.3615,-5.456,-5.485,-5.3773,-5.2665,-5.1379,-4.9719,-4.7908,-4.6565,-4.6264,-4.5331,-4.4297,-4.3499,-4.227,-4.1274,-4.0769,-4.0666,-4.0922,-4.1471,-4.2544,0.0,-4.3489,-4.4166,-4.4844,0.0,0.0,-4.6803,-4.733,-4.6878,-4.6426,-4.6075,-4.6225,-4.5974,-4.5246,-4.5748,-4.5874,-4.5497,-4.5497,-4.5095,-4.4342,-4.3966,-4.3614,-4.3237,-4.3062,-4.2986,0.0,0.0,0.0,0.0,-4.2986,-4.2986,-4.2986,-4.2986,-4.2986,-4.2986,-4.2986,-4.2986,-4.2986,-4.2986,-4.2986,-4.2986,-4.2986,-4.2986,-4.2986,-4.2986,-4.2986,-4.2986,-4.2986,-4.2986,-4.2986,-4.2986,-4.2986,-4.2986,-4.2986,-4.2986,-4.2986,-4.2986,-4.2986,-4.2986,-4.2986,-4.2986,-4.2986,-4.2986,-4.2891,-4.264,-4.2263,-4.2062,-4.1756,-4.1326,-4.1275,-4.1275,-4.1275,-4.1275,-4.115,-4.0852,-4.0924,-4.1025,-4.1025,-4.158,-4.1982,-4.2213,-4.2359,-4.2534,-4.271,-4.2559,-4.2534,-4.2766,-4.2534,-4.2559,-4.271,-4.2534,-4.2559,-5.1939,-5.2996,-5.3294,-5.2606,-5.1648,-5.0451,-4.8865,-4.7369,-4.6219,-4.5824,-4.5111,-4.4435,-4.3762,-4.2725,-4.169,-4.0889,-4.0364,-4.0259,-4.0949,-4.1796,-4.2585,-4.3212,-4.4091,0.0,0.0,-4.5799,-4.6225,-4.6778,-4.6502,0.0,-4.6024,-4.62,-4.615,-4.5799,-4.5924,-4.5824,-4.5497,-4.507,-4.4493,-4.379,-4.3589,-4.3313,-4.2986,-4.2986,-4.2986,0.0,0.0,0.0,0.0,-4.2986,-4.2986,-4.2986,-4.2986,-4.2986,-4.2986,-4.2986,-4.2986,-4.2986,-4.2986,-4.2986,-4.2986,-4.2986,-4.2986,-4.2986,-4.2986,-4.2986,-4.2986,-4.2986,-4.2986,-4.2986,-4.2986,-4.2986,-4.2986,-4.2986,-4.2986,-4.2986,-4.2986,-4.2986,-4.2986,-4.2986,-4.2986,-4.2986,-4.2986,-4.2986,-4.2861,-4.2564,-4.2514,-4.2333,-4.2007,-4.1957,-4.1957,-4.1957,-4.1957,-4.1957,-4.1957,-4.1756,-4.1656,-4.1656,-4.2158,-4.2514,-4.2514,-4.2785,-4.2986,-4.2986,-4.2986,-4.2986,-4.2986,-4.2986,-4.2986,-4.2986,-4.2986,-4.2986,0.0,-5.1271,-5.1798,-5.1319,-5.0584,-4.9508,-4.7788,-4.6741,0.0,-4.5364,-4.5185,-4.503,-4.4571,-4.3661,-4.2701,-4.1771,-4.0388,-3.9852,-4.1055,-4.1344,-4.2108,-4.374,-4.4367,0.0,-4.5447,-4.5522,-4.5748,-4.6225,-4.6276,0.0,-4.5522,-4.6024,-4.6301,-4.6301,-4.5723,-4.5422,-4.5422,-4.4342,-4.379,-4.374,-4.3212,-4.2986,-4.2986,-4.2986,-4.2986,0.0,0.0,0.0,0.0,-4.2986,-4.2986,-4.2986,-4.2986,-4.2986,-4.2986,-4.2986,-4.2986,-4.2986,-4.2986,-4.2986,-4.2986,-4.2986,-4.2986,-4.2986,-4.2986,-4.2986,-4.2986,-4.2986,-4.2986,-4.2986,-4.2986,-4.2986,-4.2986,-4.2986,-4.2986,-4.2986,-4.2986,-4.2986,-4.2986,-4.2986,-4.2986,-4.2986,-4.2986,-4.2986,-4.2986,-4.2986,-4.2986,-4.2986,-4.2986,-4.2986,-4.2986,-4.2986,-4.2986,-4.2986,-4.2986,-4.2564,-4.2263,-4.2263,-4.2685,-4.2986,-4.2986,-4.2986,-4.2986,-4.2986,-4.2986,-4.2986,-4.2986,-4.2986,-4.2986,-4.2986,-4.2986,-4.2986,-4.7404,0.0,-4.9523,-5.087,-4.9583,-4.7997,0.0,-4.6352,-4.4736,-4.4586,-4.4137,-4.3617,-4.3212,-4.2357,-4.1582,-4.1079,-4.0174,-3.9904,-4.1106,-4.2384,-4.3689,-4.4945,-4.5196,-4.5347,-4.5472,-4.5874,-4.5999,-4.5698,-4.6075,-4.6075,-4.5522,-4.6024,-4.6301,-4.6301,-4.5347,-4.4819,-4.4819,-4.4141,-4.3589,-4.3162,-4.3037,-4.2986,-4.2986,-4.2986,-4.2986,0.0,0.0,0.0,-4.2986,-4.2986,-4.2986,-4.2986,-4.2986,-4.2986,-4.2986,-4.2986,-4.2986,-4.2986,-4.2986,-4.2986,-4.2986,-4.2986,-4.2986,-4.2986,-4.2986,-4.2986,-4.2986,-4.2986,-4.2986,-4.2986,-4.2986,-4.2986,-4.2986,-4.2986,-4.2986,-4.2986,-4.2986,-4.2986,-4.2986,-4.2986,-4.2986,-4.2986,-4.2986,-4.2986,-4.2986,-4.2986,-4.2986,-4.2986,-4.2986,-4.2986,-4.2986,-4.2986,-4.2986,-4.2986,-4.2986,-4.2861,-4.2841,-4.2841,-4.2911,-4.2986,-4.2986,-4.2986,-4.2986,-4.2986,-4.2986,-4.2986,-4.2986,-4.2986,-4.2986,-4.2986,-4.2986,-4.2986,-4.6854,-4.7164,-4.7728,-4.9075,-4.8117,-4.686,-4.689,-4.5574,-4.4227,-4.3888,-4.3529,-4.317,-4.2769,-4.1935,-4.1213,-4.083,-3.9853,-3.9599,-4.1101,-4.2725,-4.4217,-4.5347,-4.5497,-4.5497,0.0,-4.5748,-4.5598,-4.4769,-4.5472,-4.5698,-4.5121,-4.5874,-4.6301,-4.6301,-4.5221,-4.4618,-4.4618,-4.3815,-4.3263,-4.2986,-4.2986,-4.2986,-4.2986,-4.2986,-4.2986,0.0,0.0,0.0,-4.2986,-4.2986,-4.2986,-4.2986,-4.2986,-4.2986,-4.2986,-4.2986,-4.2986,-4.2986,-4.2986,-4.2986,-4.2986,-4.2986,-4.2986,-4.2986,-4.2986,-4.2986,-4.2986,-4.2986,-4.2986,-4.2986,-4.2986,-4.2986,-4.2986,-4.2986,-4.2986,-4.2986,-4.2986,-4.2986,-4.2986,-4.2986,-4.2986,-4.2986,-4.2986,-4.2986,-4.2986,-4.2986,-4.2986,-4.2986,-4.2986,-4.2986,-4.2986,-4.2986,-4.2986,-4.2986,-4.2986,-4.2986,-4.2986,-4.2986,-4.2986,-4.2986,-4.2986,-4.2986,-4.2986,-4.2986,-4.2986,-4.2986,-4.2986,-4.2986,-4.2986,-4.2986,-4.2986,-4.2986,-4.7071,-4.6769,-4.6381,-4.7369,-4.695,-4.6202,-4.5723,-4.5005,-4.4317,-4.3708,-4.3499,-4.3349,-4.3064,-4.2125,-4.1369,-4.1218,-4.0108,-3.9816,-4.1336,-4.2936,-4.4317,-4.5372,-4.5573,0.0,-4.5623,-4.5623,-4.5171,-4.4141,0.0,-4.5372,-4.4794,-4.5673,-4.6175,-4.6175,-4.5095,-4.4493,-4.4493,-4.3489,-4.2986,-4.2986,-4.2986,-4.2986,-4.2986,-4.2986,-4.2986,-4.2986,0.0,0.0,-4.2986,-4.2986,-4.2986,-4.2986,-4.2986,-4.2986,-4.2986,-4.2986,-4.2986,-4.2986,-4.2986,-4.2986,-4.2986,-4.2986,-4.2986,-4.2986,-4.2986,-4.2986,-4.2986,-4.2986,-4.2986,-4.2986,-4.2986,-4.2986,-4.2986,-4.2986,-4.2986,-4.2986,-4.2986,-4.2986,-4.2986,-4.2986,-4.2986,-4.2986,-4.2986,-4.2986,-4.2986,-4.2986,-4.2986,-4.2986,-4.2986,-4.2986,-4.2986,-4.2986,-4.2986,-4.2986,-4.2986,-4.2986,-4.2986,-4.2986,-4.2986,-4.2986,-4.2986,-4.2986,-4.2986,-4.2986,-4.2986,-4.2986,-4.2986,-4.2986,-4.2986,-4.2986,-4.2986,-4.2986,-4.6484,-4.6041,-4.6022,-4.8386,-4.7638,-4.6441,-4.689,-4.6052,-4.5125,-4.5005,-4.4556,-4.4184,-4.4305,-4.3081,-4.2288,-4.2943,-4.264,-4.2406,-4.272,-4.374,-4.4744,-4.5422,0.0,-4.6175,-4.6175,-4.6175,-4.5924,-4.5271,0.0,-4.5949,-4.5372,-4.5522,-4.5623,-4.5623,-4.4518,-4.3915,-4.3915,-4.3288,-4.2986,-4.2986,-4.2986,-4.2986,-4.2986,-4.2986,-4.2986,-4.2986,0.0,-4.2986,-4.2986,-4.2986,-4.2986,-4.2986,-4.2986,-4.2986,-4.2986,-4.2986,-4.2986,-4.2986,-4.2986,-4.2986,-4.2986,-4.2986,-4.2986,-4.2986,-4.2986,-4.2986,-4.2986,-4.2986,-4.2986,-4.2986,-4.2986,-4.2986,-4.2986,-4.2986,-4.2986,-4.2986,-4.2986,-4.2986,-4.2986,-4.2986,-4.2986,-4.2986,-4.2986,-4.2986,-4.2986,-4.2986,-4.2986,-4.2986,-4.2986,-4.2986,-4.2986,-4.2986,-4.2986,-4.2986,-4.2986,-4.2986,-4.2986,-4.2986,-4.2986,-4.2986,-4.2986,-4.2986,-4.2986,-4.2986,-4.2986,-4.2986,-4.2986,-4.2986,-4.2986,-4.2986,-4.2986,-4.2986,-4.6145,-4.5971,-4.6142,-4.7369,-4.7249,-4.704,-4.7698,-4.68,-4.5843,-4.5843,-4.5035,-4.4363,-4.46,-4.3617,-4.2744,-4.2814,-4.2918,-4.299,-4.3022,-4.3664,-4.4493,0.0,0.0,-4.5874,-4.5874,-4.5874,-4.5623,0.0,0.0,0.0,-4.5497,-4.5497,-4.5497,-4.5497,-4.4392,-4.379,-4.379,-4.3263,-4.2986,-4.2986,-4.2986,-4.2986,-4.2986,-4.2986,-4.2986,-4.2986,0.0,-4.2986,-4.2986,-4.2986,-4.2986,-4.2986,-4.2986,-4.2986,-4.2986,-4.2986,-4.2986,-4.2986,-4.2986,-4.2986,-4.2986,-4.2986,-4.2986,-4.2986,-4.2986,-4.2986,-4.2986,-4.2986,-4.2986,-4.2986,-4.2986,-4.2986,-4.2986,-4.2986,-4.2986,-4.2986,-4.2986,-4.2986,-4.2986,-4.2986,-4.2986,-4.2986,-4.2986,-4.2986,-4.2986,-4.2986,-4.2986,-4.2986,-4.2986,-4.2986,-4.2986,-4.2986,-4.2986,-4.2986,-4.2986,-4.2986,-4.2986,-4.2986,-4.2986,-4.2986,-4.2986,-4.2986,-4.2986,-4.2986,-4.2986,-4.2986,-4.2986,-4.2986,-4.2986,-4.2986,-4.2986,-4.2986,-4.6143,-4.593,-4.592,-4.6441,-4.692,-4.7489,-4.8147,-4.7519,-4.683,-4.698,-4.5963,-4.509,-4.5309,-4.444,-4.3408,-4.2488,-4.2836,-4.3194,-4.3199,-4.3639,-4.4367,-4.5372,-4.5598,-4.5673,-4.5673,-4.5673,-4.5497,0.0,0.0,0.0,-4.5497,-4.5246,-4.5095,-4.5095,-4.4116,-4.3614,-4.3614,-4.3187,-4.2986,-4.2986,-4.2986,-4.2986,-4.2986,-4.2986,-4.2986,-4.2986,-4.2986,-4.2986,-4.2986,-4.2986,-4.2986,-4.2986,-4.2986,-4.2986,-4.2986,-4.2986,-4.2986,-4.2986,-4.2986,-4.2986,-4.2986,-4.2986,-4.2986,-4.2986,-4.2986,-4.2986,-4.2986,-4.2986,-4.2986,-4.2986,-4.2986,-4.2986,-4.2986,-4.2986,-4.2986,-4.2986,-4.2986,-4.2986,-4.2986,-4.2986,-4.2986,-4.2986,-4.2986,-4.2986,-4.2986,-4.2986,-4.2986,-4.2986,-4.2986,-4.2986,-4.2986,-4.2986,-4.2986,-4.2986,-4.2986,-4.2986,-4.2986,-4.2986,-4.2986,-4.2986,-4.2986,-4.2986,-4.2986,-4.2986,-4.2986,-4.2986,-4.2986,-4.3112,-4.3162,-4.3162,-4.3313,-4.3288,-4.661,-4.5595,-4.4915,-4.677,-4.7279,-4.7489,-4.8147,-4.8207,-4.8327,-4.897,-4.7997,-4.7149,-4.7362,-4.6139,-4.4616,-4.31,-4.3377,-4.3806,-4.3721,0.0,-4.4794,-4.5422,-4.5949,-4.625,-4.625,-4.625,0.0,0.0,0.0,0.0,-4.5497,-4.4493,-4.3915,-4.3915,-4.3338,-4.3037,-4.3037,-4.2986,-4.2986,-4.2986,-4.2986,-4.2986,-4.2986,-4.2986,-4.2986,-4.2986,-4.2986,-4.2986,-4.2986,-4.2986,-4.2986,-4.2986,-4.2986,-4.2986,-4.2986,-4.2986,-4.2986,-4.2986,-4.2986,-4.2986,-4.2986,-4.2986,-4.2986,-4.2986,-4.2986,-4.2986,-4.2986,-4.2986,-4.2986,-4.2986,-4.2986,-4.2986,-4.2986,-4.2986,-4.2986,-4.2986,-4.2986,-4.2986,-4.2986,-4.2986,-4.2986,-4.2986,-4.2986,-4.2986,-4.2986,-4.2986,-4.2986,-4.2986,-4.2986,-4.2986,-4.2986,-4.2986,-4.2986,-4.2986,-4.2986,-4.2986,-4.2986,-4.2986,-4.2986,-4.2986,-4.2986,-4.2986,-4.2986,-4.2986,-4.2986,-4.2986,-4.2986,-4.3489,-4.374,-4.374,-4.4267,-4.4242,-4.6396,-4.6049,-4.5886,-4.5703,-4.6137,-4.698,-4.8027,-4.8297,-4.8476,-4.9179,-4.8536,-4.754,-4.6305,-4.5373,-4.4397,-4.3151,-4.3172,-4.3577,-4.4199,-4.4493,-4.497,-4.5899,-4.6175,-4.6301,-4.6301,-4.6301,0.0,0.0,0.0,0.0,-4.5497,-4.4418,-4.379,-4.379,-4.3263,-4.2986,-4.2986,-4.2986,-4.2986,-4.2986,-4.2986,-4.2986,-4.2986,-4.2986,-4.2986,-4.2986,-4.2986,-4.2986,-4.2986,-4.2986,-4.2986,-4.2986,-4.2986,-4.2986,-4.2986,-4.2986,-4.2986,-4.2986,-4.2986,-4.2986,-4.2986,-4.2986,-4.2986,-4.2986,-4.2986,-4.2986,-4.2986,-4.2986,-4.2986,-4.2986,-4.2986,-4.2986,-4.2986,-4.2986,-4.2986,-4.2986,-4.2986,-4.2986,-4.2986,-4.2986,-4.2986,-4.2986,-4.2986,-4.2986,-4.3087,-4.3438,-4.3489,-4.3614,-4.3966,-4.3689,-4.3489,-4.3489,-4.3187,-4.2986,-4.2986,-4.2986,-4.2986,-4.2986,-4.2986,-4.2986,-4.2986,-4.2986,-4.2986,-4.2986,-4.2986,-4.3137,-4.3489,-4.3689,-4.3966,-4.4317,-4.4518,-4.4518,-4.653,-4.6026,-4.5687,-4.489,-4.506,-4.5741,-4.7309,-4.8147,-4.8835,-4.9703,-4.9163,-4.7877,-4.5648,-4.4841,-4.4122,0.0,-4.2778,-4.3212,-4.4224,-4.4367,-4.4719,-4.5673,-4.5773,-4.5773,-4.5773,0.0,0.0,0.0,0.0,0.0,0.0,-4.4066,-4.3539,-4.3539,-4.3162,-4.2986,-4.2986,-4.2986,-4.2986,-4.2986,-4.2986,-4.2986,-4.2986,-4.2986,-4.2986,-4.2986,-4.2986,-4.2986,-4.2986,-4.2986,-4.2986,-4.2986,-4.2986,-4.2986,-4.2986,-4.2986,-4.2986,-4.2986,-4.2986,-4.2986,-4.2986,-4.2986,-4.2986,-4.2986,-4.2986,-4.2986,-4.2986,-4.2986,-4.2986,-4.2986,-4.2986,-4.2986,-4.2986,-4.2986,-4.2986,-4.2986,-4.2986,-4.2986,-4.2986,-4.2986,-4.2986,-4.2986,-4.2986,-4.3112,-4.3363,-4.374,-4.394,-4.4192,-4.4568,-4.4141,-4.374,-4.3564,-4.3212,-4.2986,-4.2986,-4.2986,-4.2986,-4.2986,-4.2986,-4.2986,-4.2986,-4.3137,-4.3237,-4.3237,-4.3413,-4.3689,-4.4066,-4.4242,-4.4518,-4.4895,-4.507,-4.507,-4.7212,-4.5405,-4.3751,-4.4673,-4.4087,-4.3828,-4.5831,-4.7848,-4.9689,-5.096,-5.0053,-4.8352,-4.5751,-4.4918,0.0,-4.2342,-4.2376,-4.2891,-4.3696,-4.379,-4.4016,-4.4568,-4.4618,-4.4618,-4.4618,0.0,0.0,0.0,0.0,0.0,0.0,-4.3263,-4.2986,-4.2986,-4.2986,-4.2986,-4.2986,-4.2986,-4.2986,-4.2986,-4.2986,-4.2986,-4.2986,-4.2986,-4.2986,-4.2986,-4.2986,-4.2986,-4.2986,-4.2986,-4.2986,-4.2986,-4.2986,-4.2986,-4.2986,-4.2986,-4.2986,-4.2986,-4.2986,-4.2986,-4.2986,-4.2986,-4.2986,-4.2986,-4.2986,-4.2986,-4.2986,-4.2986,-4.2986,-4.2986,-4.2986,-4.2986,-4.2986,-4.2986,-4.2986,-4.2986,-4.2986,-4.2986,-4.2986,-4.2986,-4.2986,-4.2986,-4.2986,-4.3438,-4.379,-4.3815,-4.4292,-4.4644,-4.4644,-4.4141,-4.3614,-4.3062,-4.2986,-4.2986,-4.2986,-4.2986,-4.2986,-4.2986,-4.2986,-4.2986,-4.2986,-4.3514,-4.379,-4.3815,-4.4342,-4.4618,-4.4644,-4.5221,-4.5497,-4.5522,-4.605,-4.6024,-4.7184,-4.6154,-4.537,-4.5192,-4.4941,-4.5244,-4.7249,-4.8147,-4.9224,-5.1439,-5.0283,-4.8153,-4.5922,-4.4698,0.0,-4.133,-4.1746,-4.2645,-4.3639,-4.379,-4.4016,-4.4568,-4.4618,-4.4618,0.0,0.0,0.0,0.0,0.0,0.0,0.0,-4.3263,-4.2986,-4.2986,-4.2986,-4.2986,-4.2986,-4.2986,-4.2986,-4.2986,-4.2986,-4.2986,-4.2986,-4.2986,-4.2986,-4.2986,-4.2986,-4.2986,-4.2986,-4.2986,-4.2986,-4.2986,-4.2986,-4.2986,-4.2986,-4.2986,-4.2986,-4.2986,-4.2986,-4.2986,-4.2986,-4.2986,-4.2986,-4.2986,-4.2986,-4.2986,-4.2986,-4.2986,-4.2986,-4.2986,-4.2986,-4.2986,-4.2986,-4.2986,-4.2986,-4.2986,-4.2986,-4.2986,-4.2986,-4.2986,-4.2986,-4.3112,-4.3489,-4.3689,-4.4066,-4.4869,-4.5121,-4.5221,-4.5221,-4.5095,-4.4769,-4.4192,-4.4141,-4.4141,-4.4141,-4.4141,-4.4141,-4.4141,-4.4141,-4.3966,-4.3564,-4.3714,-4.3991,-4.4367,-4.4543,-4.4819,-4.5221,-4.5397,-4.5673,-4.6075,-4.6225,-4.6225,-4.7629,-4.6745,-4.6028,-4.6172,-4.593,-4.6292,-4.8536,-4.9254,-4.9912,0.0,-5.043,-4.8615,-4.6588,-4.5262,0.0,-4.1843,-4.2002,-4.2624,-4.3419,-4.3463,-4.3589,-4.394,-4.3966,-4.3966,0.0,0.0,0.0,0.0,0.0,0.0,0.0,-4.3162,-4.2986,-4.2986,-4.2986,-4.2986,-4.2986,-4.2986,-4.2986,-4.2986,-4.2986,-4.2986,-4.2986,-4.2986,-4.2986,-4.2986,-4.2986,-4.2986,-4.2986,-4.2986,-4.2986,-4.2986,-4.2986,-4.2986,-4.2986,-4.2986,-4.2986,-4.2986,-4.2986,-4.2986,-4.2986,-4.2986,-4.2986,-4.2986,-4.2986,-4.2986,-4.2986,-4.2986,-4.2986,-4.2986,-4.2986,-4.2986,-4.2986,-4.2986,-4.2986,-4.2986,-4.2986,-4.2986,-4.2986,-4.2986,-4.2986,-4.3087,-4.3413,-4.384,-4.4367,-4.5045,-4.5522,-4.5723,-4.5522,-4.5497,-4.5271,-4.4694,-4.4618,-4.4618,-4.4618,-4.4618,-4.4618,-4.4618,-4.4618,-4.4568,-4.4468,-4.4468,-4.4618,-4.497,-4.5196,-4.5472,-4.5824,-4.5824,-4.5974,-4.6301,-4.6301,-4.6301,-4.8229,-4.7197,-4.6139,-4.7428,-4.7145,-4.7176,-4.9568,-5.0614,-5.1169,-5.1289,0.0,-4.9592,-4.7758,-4.65,-4.5198,-4.3379,-4.2917,-4.2793,-4.2967,-4.2986,-4.2986,-4.2986,-4.2986,0.0,0.0,0.0,0.0,0.0,0.0,0.0,0.0,-4.2986,-4.2986,-4.2986,-4.2986,-4.2986,-4.2986,-4.2986,-4.2986,-4.2986,-4.2986,-4.2986,-4.2986,-4.2986,-4.2986,-4.2986,-4.2986,-4.2986,-4.2986,-4.2986,-4.2986,-4.2986,-4.2986,-4.2986,-4.2986,-4.2986,-4.2986,-4.2986,-4.2986,-4.2986,-4.2986,-4.2986,-4.2986,-4.2986,-4.2986,-4.2986,-4.2986,-4.2986,-4.2986,-4.2986,-4.2986,-4.2986,-4.2986,-4.2986,-4.2986,-4.2986,-4.2986,-4.2986,-4.2986,-4.2986,-4.2986,-4.2986,-4.3037,-4.389,-4.4593,-4.4694,-4.5623,-4.6125,-4.5623,-4.5573,-4.5372,-4.4844,-4.4769,-4.4769,-4.4769,-4.4769,-4.4769,-4.4769,-4.4769,-4.502,-4.5547,-4.5522,-4.5522,-4.5573,-4.605,-4.6301,-4.6301,-4.6301,-4.6301,-4.6301,-4.6301,-4.6301,-4.8397,-4.7942,-4.7428,-4.8354,-4.867,-4.8775,-4.9344,-4.9972,-5.0704,-5.1768,-5.1161,-5.0076,-4.9037,-4.7947,-4.6459,-4.4283,-4.3931,-4.3694,-4.3073,-4.2986,-4.2986,-4.2986,-4.2986,0.0,0.0,0.0,0.0,0.0,0.0,0.0,-4.2986,-4.2986,-4.2986,-4.2986,-4.2986,-4.2986,-4.2986,-4.2986,-4.2986,0.0,-4.2986,-4.2986,-4.2986,-4.2986,-4.2986,-4.2986,-4.2986,-4.2986,-4.2986,-4.2986,-4.2986,-4.2986,-4.2986,-4.2986,-4.2986,-4.2986,-4.2986,-4.2986,-4.2986,-4.2986,-4.2986,-4.2986,-4.2986,-4.2986,-4.2986,-4.2986,-4.2986,-4.2986,-4.2986,-4.2986,-4.2986,-4.2986,-4.2986,-4.2986,-4.2986,-4.2986,-4.2986,-4.2986,-4.2986,-4.2986,-4.2986,-4.3112,-4.3539,-4.3815,-4.4292,-4.5171,-4.5874,-4.6276,-4.615,-4.6125,-4.6075,-4.5974,-4.5949,-4.5949,-4.5949,-4.5949,-4.5949,-4.5949,-4.5949,-4.5999,-4.6125,-4.5723,-4.5698,-4.6125,-4.625,-4.6301,-4.6301,-4.6301,-4.6301,-4.6301,-4.6301,-4.6301,-4.8827,-4.8723,-4.8427,-4.9273,0.0,-4.9389,-4.9673,-4.9494,-4.9673,-5.099,-5.0899,-5.0442,-4.9757,-4.8844,-4.7577,-4.5757,-4.5103,-4.4533,-4.3598,-4.3321,-4.3129,-4.3042,0.0,0.0,0.0,0.0,0.0,0.0,0.0,-4.2986,-4.2986,-4.2986,-4.2986,-4.2986,-4.2986,-4.2986,-4.2986,-4.3129,-4.324,-4.3432,-4.3432,-4.3376,-4.3184,-4.3073,-4.2986,-4.2986,-4.2986,-4.2986,-4.2986,-4.2986,-4.2986,-4.2986,-4.2986,-4.2986,-4.2986,-4.2986,-4.2986,-4.2986,-4.2986,-4.2986,-4.2986,-4.2986,-4.2986,-4.2986,-4.2986,-4.2986,-4.2986,-4.2986,-4.2986,-4.2986,-4.2986,-4.2986,-4.2986,-4.2986,-4.2986,-4.2986,-4.2986,-4.2986,-4.2986,-4.2986,-4.2986,-4.3062,-4.3363,-4.384,-4.4568,-4.5723,-4.6125,-4.6301,-4.6301,-4.6301,-4.6301,-4.6301,-4.6301,-4.6301,-4.6301,-4.6301,-4.6301,-4.6301,-4.6301,-4.6301,-4.6301,-4.6024,-4.6024,-4.6301,-4.6301,-4.6301,-4.6301,-4.6301,-4.6301,-4.6301,-4.6301,-4.6301,-4.9127,-4.9576,-4.9582,-5.0305,-5.0004,0.0,-4.9972,-4.9224,-4.8775,-4.9853,-5.0385,-5.0579,-5.0268,-4.9611,-4.8674,-4.7331,-4.6399,-4.5369,-4.4203,-4.3708,-4.3351,0.0,0.0,0.0,0.0,0.0,0.0,0.0,0.0,-4.2986,-4.2986,-4.2986,-4.2986,-4.2986,-4.2986,-4.2986,-4.2986,-4.3295,-4.3683,-4.4039,-4.4039,-4.3819,-4.3462,-4.3129,-4.2986,-4.2986,-4.2986,-4.2986,-4.2986,-4.2986,-4.2986,-4.2986,-4.2986,-4.2986,-4.2986,-4.2986,-4.2986,-4.2986,-4.2986,-4.2986,-4.2986,-4.2986,-4.2986,-4.2986,-4.2986,-4.2986,-4.2986,-4.2986,-4.2986,-4.2986,-4.2986,-4.2986,-4.2986,-4.2986,-4.2986,-4.2986,-4.2986,-4.2986,-4.2986,-4.2986,-4.3062,-4.3112,-4.3112,-4.4041,-4.5095,-4.6024,-4.625,-4.6301,-4.6301,-4.6301,-4.6301,-4.6301,-4.6301,-4.6301,-4.6301,-4.6301,-4.6301,-4.6301,-4.6301,-4.6301,-4.6301,-4.6301,-4.6301,-4.6301,-4.6301,-4.6301,-4.6301,-4.6301,-4.6301,-4.6301,-4.6301,-4.6301,-4.886,0.0,-5.1518,0.0,-5.1031,-5.0246,0.0,0.0,-4.9239,0.0,-4.9867,-5.0448,-5.0969,-5.0614,-4.9863,-4.8696,-4.7638,-4.6426,-4.4832,-4.4123,-4.3598,0.0,0.0,0.0,0.0,0.0,0.0,0.0,-4.2986,-4.2986,-4.2986,-4.2986,-4.2986,-4.2986,-4.2986,-4.2986,-4.2986,-4.3543,-4.4094,-4.4587,-4.4587,-4.4341,-4.3844,-4.3265,-4.2986,-4.2986,-4.2986,-4.2986,-4.2986,-4.2986,-4.2986,-4.2986,-4.2986,-4.2986,-4.2986,-4.2986,-4.2986,-4.2986,-4.2986,-4.2986,-4.2986,-4.2986,-4.2986,-4.2986,-4.2986,-4.2986,-4.2986,-4.2986,-4.2986,-4.2986,-4.2986,-4.2986,-4.2986,-4.2986,-4.2986,-4.2986,-4.2986,-4.2986,-4.2986,-4.2986,-4.3363,-4.3689,-4.3689,-4.4618,-4.5422,-4.5573,-4.5999,-4.6301,-4.6301,-4.6301,-4.6301,-4.6301,-4.6301,-4.6301,-4.6301,-4.6301,-4.6301,-4.6301,-4.6301,-4.6301,-4.6301,-4.6301,-4.6301,-4.6301,-4.6301,-4.6301,-4.6301,-4.6301,-4.6301,-4.6301,-4.6301,-4.6301,-4.8862,-5.0598,-5.1792,0.0,-5.1391,-5.0698,-4.9539,-4.903,-4.888,-4.9239,-4.9494,-5.0002,-5.102,-5.0899,-5.0394,-4.9444,-4.8624,-4.7536,-4.59,-4.5154,0.0,0.0,0.0,0.0,0.0,0.0,0.0,0.0,-4.2986,-4.2986,-4.2986,-4.2986,-4.2986,-4.2986,-4.2986,-4.2986,-4.2986,-4.3598,-4.4313,-4.5207,-4.5207,-4.51,-4.4856,-4.4232,-4.3572,-4.2986,-4.2986,-4.2986,-4.2986,-4.2986,-4.2986,-4.2986,-4.2986,-4.2986,-4.2986,-4.2986,-4.2986,-4.2986,-4.2986,-4.2986,-4.2986,-4.2986,-4.2986,-4.2986,-4.2986,-4.2986,-4.2986,-4.2986,-4.2986,-4.2986,-4.2986,-4.2986,-4.2986,-4.2986,-4.3212,-4.3438,-4.3438,-4.3187,-4.2986,-4.2986,-4.3413,-4.389,-4.4217,-4.4945,-4.5598,-4.5899,-4.615,-4.6301,-4.6301,-4.6301,-4.6301,-4.6301,-4.6301,-4.6301,-4.6301,-4.6301,-4.6301,-4.6301,-4.6301,-4.6301,-4.6301,-4.6301,-4.6301,-4.6301,-4.6301,-4.6301,-4.6301,-4.6301,-4.6301,-4.6301,-4.6301,-4.6301,0.0,0.0,-5.1218,-5.1518,-5.1314,-5.0669,0.0,0.0,-4.8565,0.0,-4.9299,-4.9673,-5.099,-5.1058,-5.0728,-5.0105,-4.9464,-4.8596,-4.7177,-4.6399,0.0,0.0,0.0,0.0,0.0,0.0,0.0,0.0,-4.2986,-4.2986,-4.2986,-4.2986,-4.2986,-4.2986,-4.2986,-4.2986,-4.2986,-4.3764,-4.4639,-4.5609,-4.5795,-4.5901,-4.5901,-4.5395,-4.4696,-4.3713,-4.3351,-4.3209,-4.3073,-4.3042,-4.2986,-4.2986,-4.2986,-4.2986,-4.2986,-4.2986,-4.2986,-4.2986,-4.2986,-4.2986,-4.2986,-4.2986,-4.2986,-4.2986,-4.2986,-4.2986,-4.2986,-4.2986,-4.2986,-4.2986,-4.2986,-4.2986,-4.2986,-4.2986,-4.3388,-4.384,-4.3991,-4.3689,-4.3388,-4.3388,-4.384,-4.4367,-4.4769,-4.5321,-4.5824,-4.625,-4.6301,-4.6301,-4.6301,-4.6301,-4.6301,-4.6301,-4.6301,-4.6301,-4.6301,-4.6301,-4.6301,-4.6301,-4.6301,-4.6301,-4.6301,-4.6301,-4.6301,-4.6301,-4.6301,-4.6301,-4.6301,-4.6301,-4.6301,-4.6301,-4.6301,-4.6301,0.0,-4.935,0.0,-5.0897,-5.0649,-4.9945,0.0,0.0,-4.8711,-4.9224,-4.9299,-4.9673,-5.099,-5.1182,-5.1058,-5.0822,-5.0268,-4.9611,-4.8795,0.0,0.0,0.0,0.0,0.0,0.0,0.0,0.0,0.0,-4.2986,-4.2986,-4.2986,-4.2986,-4.2986,-4.2986,-4.2986,-4.2986,-4.2986,-4.4097,-4.4966,-4.5609,-4.6321,-4.666,-4.6739,-4.666,-4.6267,-4.5661,-4.4396,-4.3653,-4.3351,-4.3073,-4.2986,-4.2986,-4.2986,-4.2986,-4.2986,-4.2986,-4.2986,-4.2986,-4.2986,-4.2986,-4.2986,-4.2986,-4.2986,-4.2986,-4.2986,-4.2986,-4.2986,-4.2986,-4.2986,-4.2986,-4.2986,-4.2986,-4.2986,-4.2986,-4.3388,-4.394,-4.4468,-4.4568,-4.4543,-4.4543,-4.4995,-4.5422,-4.5447,-4.5899,-4.6276,-4.6301,-4.6301,-4.6301,-4.6301,-4.6301,-4.6301,-4.6301,-4.6301,-4.6301,-4.6301,-4.6301,-4.6301,-4.6301,-4.6301,-4.6301,-4.6301,-4.6301,-4.6301,-4.6301,-4.6301,-4.6301,-4.6301,-4.6301,-4.6301,-4.6301,-4.6301,-4.6301,0.0,0.0,0.0,-4.8559,-4.9192,-4.9442,-4.8348,-4.8218,-4.8546,-4.9179,-4.9299,-4.9673,-5.099,-5.1229,-5.1105,-5.087,-5.065,-5.022,-4.9493,0.0,0.0,0.0,0.0,0.0,0.0,0.0,0.0,0.0,0.0,-4.2986,-4.2986,-4.2986,-4.2986,-4.2986,-4.2986,-4.3073,-4.324,-4.4068,-4.4938,-4.5848,-4.6635,-4.7359,-4.7897,-4.7897,-4.7564,-4.6919,-4.5953,-4.483,-4.3653,-4.3209,-4.2986,-4.2986,-4.2986,-4.2986,-4.2986,-4.2986,-4.2986,-4.2986,-4.2986,-4.2986,-4.2986,-4.2986,-4.2986,-4.2986,-4.2986,-4.2986,-4.3062,-4.3413,-4.3514,-4.3589,-4.394,-4.3765,-4.3589,-4.394,-4.4468,-4.5045,-4.5598,-4.5146,-4.4618,-4.4618,-4.5095,-4.5497,-4.5497,-4.5949,-4.6301,-4.6301,-4.6301,-4.6301,-4.6301,-4.6301,-4.6301,-4.6301,-4.6301,-4.6301,-4.6301,-4.6301,-4.6301,-4.6301,-4.6301,-4.6301,-4.6301,-4.6301,-4.6301,-4.6301,-4.6301,-4.6301,-4.6301,-4.6301,-4.6301,-4.6301,-4.6301,-4.6301,-4.479,0.0,0.0,0.0,0.0,-4.8528,-4.7582,0.0,-4.8282,-4.8752,-4.9134,-4.9674,-5.069,-5.1079,-5.1105,-5.0964,-5.0917,-5.0775,0.0,0.0,0.0,0.0,0.0,0.0,0.0,0.0,0.0,0.0,0.0,0.0,-4.2986,-4.2986,-4.2986,-4.2986,-4.2986,-4.3129,-4.3381,-4.3793,-4.4613,-4.5848,-4.6843,-4.7819,-4.8781,-4.9128,-4.8951,-4.8374,-4.7434,-4.6006,-4.4258,-4.3708,-4.3295,-4.3129,-4.3129,-4.3073,-4.2986,-4.2986,-4.2986,-4.2986,-4.2986,-4.2986,-4.2986,-4.2986,-4.2986,-4.2986,-4.2986,-4.2986,-4.3087,-4.3639,-4.379,-4.3915,-4.4493,-4.4342,-4.4166,-4.4543,-4.507,-4.5648,-4.62,-4.5723,-4.5196,-4.5196,-4.5497,-4.5773,-4.5773,-4.6075,-4.6301,-4.6301,-4.6301,-4.6301,-4.6301,-4.6301,-4.6301,-4.6301,-4.6301,-4.6301,-4.6301,-4.6301,-4.6301,-4.6301,-4.6301,-4.6301,-4.6301,-4.6301,-4.6301,-4.6301,-4.6301,-4.6301,-4.6301,-4.6301,-4.6301,-4.6301,-4.6301,-4.6301,0.0,0.0,0.0,0.0,0.0,0.0,-4.6893,0.0,-4.8013,-4.7878,-4.8779,-4.9704,-5.0122,-5.0734,-5.1229,-5.1229,-5.1229,-5.1229,0.0,0.0,0.0,0.0,0.0,0.0,0.0,0.0,0.0,0.0,-4.3042,-4.3042,-4.2986,-4.2986,-4.2986,-4.2986,-4.3042,-4.3129,-4.3381,-4.3462,-4.4177,-4.5635,-4.6971,-4.8245,-4.9375,-5.0364,-5.0508,-4.9931,-4.8894,-4.7229,-4.5127,-4.4559,-4.3958,-4.3462,-4.3381,-4.324,-4.3042,-4.2986,-4.2986,-4.2986,-4.2986,-4.2986,-4.2986,-4.2986,-4.2986,-4.2986,-4.2986,-4.3011,-4.3112,-4.3689,-4.384,-4.3966,-4.4518,-4.4669,-4.4669,-4.4644,-4.5095,-4.5673,-4.62,-4.6301,-4.6301,-4.6301,-4.6301,-4.6301,-4.6301,-4.6301,-4.6301,-4.6301,-4.6301,-4.6301,-4.6301,-4.6301,-4.6301,-4.6301,-4.6301,-4.6301,-4.6301,-4.6301,-4.6301,-4.6301,-4.6301,-4.6301,-4.6301,-4.6301,-4.6301,-4.6301,-4.6301,-4.6301,-4.6301,-4.6301,-4.6301,-4.6301,-4.6301,-4.6301,-4.2455,0.0,0.0,0.0,0.0,0.0,0.0,0.0,0.0,-4.7446,-4.8384,-4.9309,-5.0078,-5.0734,-5.1229,-5.1229,-5.1229,-5.1229,0.0,0.0,0.0,0.0,0.0,0.0,0.0,0.0,0.0,0.0,-4.3432,-4.3184,-4.3042,-4.2986,-4.2986,-4.2986,-4.3184,-4.3406,-4.3764,-4.4341,-4.5235,-4.6478,-4.7841,-4.8972,-4.9892,-5.0537,-5.0632,-5.0327,-4.9444,-4.8474,-4.7359,-4.5582,-4.4642,-4.4287,-4.3683,-4.3351,-4.3295,-4.3073,-4.2986,-4.2986,-4.2986,-4.2986,-4.2986,-4.2986,-4.2986,-4.3062,-4.3463,-4.3564,-4.3765,-4.4744,-4.502,-4.5045,-4.5221,-4.5547,-4.5748,-4.5347,-4.5673,-4.6125,-4.6276,-4.6301,-4.6301,-4.6301,-4.6301,-4.6301,-4.6301,-4.6301,-4.6301,-4.6301,-4.6301,-4.6301,-4.6301,-4.6301,-4.6301,-4.6301,-4.6301,-4.6301,-4.6301,-4.6301,-4.6301,-4.6301,-4.6301,-4.6301,-4.6301,-4.6301,-4.6301,-4.6301,-4.6301,-4.6301,-4.6301,-4.6301,-4.6301,-4.6301,-4.6301,-4.6301,-4.1711,-4.1542,0.0,0.0,0.0,0.0,-4.4346,-4.5471,0.0,0.0,-4.7619,-4.8529,-4.8799,-4.9524,-5.0094,-5.0002,-5.0212,-5.0601,0.0,0.0,0.0,0.0,0.0,0.0,0.0,-4.6971,-4.582,-4.4479,-4.3987,-4.3572,-4.3042,-4.2986,-4.3017,-4.3129,-4.3351,-4.3738,-4.4422,-4.5073,-4.6058,-4.7308,-4.8546,-4.9542,-5.0279,-5.0728,-5.087,-5.0757,-5.0202,-4.9688,-4.9149,-4.7485,-4.6189,-4.5181,-4.4424,-4.3903,-4.3572,-4.3295,-4.3073,-4.2986,-4.2986,-4.2986,-4.2986,-4.2986,-4.3137,-4.3388,-4.3714,-4.3966,-4.4342,-4.5221,-4.5648,-4.5773,-4.5547,-4.5899,-4.6175,-4.5623,-4.5899,-4.6301,-4.6301,-4.6301,-4.6301,-4.6301,-4.6301,-4.6301,-4.6301,-4.6301,-4.6301,-4.6301,-4.6301,-4.6301,-4.6301,-4.6301,-4.6301,-4.6301,-4.6301,-4.6301,-4.6301,-4.6301,-4.6301,-4.6301,-4.6301,-4.6301,-4.6301,-4.6301,-4.6301,-4.6301,-4.6301,-4.6301,-4.6301,-4.6301,-4.6301,-4.6301,-4.6301,-4.6301,-4.1441,-4.1339,0.0,-4.2219,-4.3192,0.0,-4.3444,-4.5041,-4.6408,0.0,-4.6566,-4.7401,-4.6843,-4.7613,-4.8243,-4.7981,-4.8566,0.0,0.0,0.0,0.0,0.0,0.0,0.0,-4.9271,-4.8289,-4.6995,-4.5236,-4.4589,-4.3958,-4.3154,-4.3098,-4.3184,-4.3462,-4.3517,-4.4042,-4.5154,-4.5741,-4.6764,-4.8122,-4.917,-5.0009,-5.0548,-5.0994,-5.1229,-5.1182,-5.0917,-5.068,-5.0501,-4.964,-4.8094,-4.6164,-4.5502,-4.4722,-4.4039,-4.3572,-4.324,-4.3042,-4.3042,-4.2986,-4.2986,-4.3062,-4.3388,-4.3815,-4.394,-4.4342,-4.4844,-4.5422,-4.5924,-4.62,-4.5698,-4.5949,-4.6175,-4.5698,-4.5949,-4.6301,-4.6301,-4.6301,-4.6301,-4.6301,-4.6301,-4.6301,-4.6301,-4.6301,-4.6301,-4.6301,-4.6301,-4.6301,-4.6301,-4.6301,-4.6301,-4.6301,-4.6301,-4.6301,-4.6301,-4.6301,-4.6301,-4.6301,-4.6301,-4.6301,-4.6301,-4.6301,-4.6301,-4.6301,-4.6301,-4.6301,-4.6301,-4.6301,-4.6301,-4.6301,-4.6301,-4.6301,-4.2828,-4.2117,-4.1542,-4.2861,0.0,0.0,-4.2265,-4.3398,-4.428,0.0,-4.5196,-4.6078,-4.5747,-4.6072,-4.629,-4.5957,-4.689,0.0,0.0,0.0,0.0,0.0,0.0,0.0,-4.9201,-4.8755,-4.7718,-4.5771,-4.481,-4.4148,-4.3734,-4.3734,-4.3734,-4.3764,-4.3984,-4.4559,-4.5475,-4.6478,-4.7564,-4.8731,-4.9844,-5.0471,-5.0728,-5.1058,-5.1229,-5.1182,-5.0917,-5.0775,-5.068,-5.0154,-4.9149,-4.7768,-4.6294,-4.5502,-4.5047,-4.3823,-4.3406,-4.3295,-4.3073,-4.2986,-4.3062,-4.3489,-4.3714,-4.3966,-4.4869,-4.5221,-4.5422,-4.5999,-4.6225,-4.6276,-4.6175,-4.6225,-4.6276,-4.6175,-4.6225,-4.6301,-4.6301,-4.6301,-4.6301,-4.6301,-4.6301,-4.6301,-4.6301,-4.6301,-4.6301,-4.6301,-4.6301,-4.6301,-4.6301,-4.6301,-4.6301,-4.6301,-4.6301,-4.6301,-4.6301,-4.6301,-4.6301,-4.6301,-4.6301,-4.6301,-4.6301,-4.6301,-4.6301,-4.6301,-4.6301,-4.6301,-4.6301,-4.6301,-4.6301,-4.6301,-4.6301,-4.6301,-4.32,-4.2591,-4.1914,-4.2658,0.0,0.0,0.0,0.0,-4.378,-4.3539,-4.443,-4.5097,-4.4585,0.0,-4.4678,-4.4167,0.0,0.0,0.0,0.0,0.0,0.0,0.0,0.0,-5.068,-5.0028,-4.8907,-4.7017,-4.5954,-4.5092,-4.4505,-4.4094,-4.3955,-4.4119,-4.4203,-4.4856,-4.6007,-4.705,-4.8173,-4.9277,-5.0375,-5.0899,-5.1011,-5.1105,-5.1229,-5.1182,-5.1058,-5.1011,-5.0964,-5.0757,-5.025,-4.9415,-4.7638,-4.6556,-4.5767,-4.4533,-4.3903,-4.3598,-4.3154,-4.3162,-4.3438,-4.3714,-4.4192,-4.4744,-4.5321,-4.5673,-4.5949,-4.6225,-4.6301,-4.6301,-4.6301,-4.6301,-4.6301,-4.6301,-4.6301,-4.6301,-4.6301,-4.6301,-4.6301,-4.6301,-4.6301,-4.6301,-4.6301,-4.6301,-4.6301,-4.6301,-4.6301,-4.6301,-4.6301,-4.6301,-4.6301,-4.6301,-4.6301,-4.6301,-4.6301,-4.6301,-4.6301,-4.6301,-4.6301,-4.6301,-4.6301,-4.6301,-4.6301,-4.6301,-4.6301,-4.6301,-4.6301,-4.6301,-4.6301,-4.6301,-4.6301,-4.6301,0.0,0.0,0.0,0.0,0.0,-4.1854,0.0,0.0,0.0,0.0,0.0,0.0,0.0,0.0,0.0,0.0,0.0,0.0,0.0,0.0,0.0,0.0,0.0,0.0,0.0,-5.0816,-4.965,-4.8274,-4.7254,-4.633,-4.5502,-4.4776,-4.4476,-4.4694,-4.4668,-4.5315,-4.6637,-4.7638,-4.8696,-4.9766,-5.0728,-5.1229,-5.1229,-5.1229,-5.1229,-5.1229,-5.1229,-5.1229,-5.1229,-5.1229,-5.1058,-5.0603,-4.8972,-4.7717,-4.6635,-4.5342,-4.4505,-4.3955,-4.3391,-4.3438,-4.384,-4.4066,-4.4819,-4.5648,-4.5648,-4.5949,-4.6301,-4.6301,-4.6301,-4.6301,-4.6301,-4.6301,-4.6301,-4.6301,-4.6301,-4.6301,-4.6301,-4.6301,-4.6301,-4.6301,-4.6301,-4.6301,-4.6301,-4.6301,-4.6301,-4.6301,-4.6301,-4.6301,-4.6301,-4.6301,-4.6301,-4.6301,-4.6301,-4.6301,-4.6301,-4.6301,-4.6301,-4.6301,-4.6301,-4.6301,-4.6301,-4.6301,-4.6301,-4.6301,-4.6301,-4.6301,-4.6301,-4.6301,-4.6301,-4.6301,-4.6301,-4.6301,0.0,0.0,0.0,0.0,-4.1813,0.0,0.0,0.0,0.0,0.0,0.0,0.0,0.0,0.0,0.0,0.0,0.0,0.0,0.0,0.0,0.0,0.0,0.0,0.0,0.0,-4.9385,-4.9126,-4.8766,-4.7948,-4.7236,-4.661,-4.6323,-4.6112,-4.6165,-4.6165,-4.6637,-4.7568,-4.8324,-4.917,-5.0086,-5.0852,-5.1229,-5.1229,-5.1229,-5.1229,-5.1229,-5.1229,-5.1229,-5.1229,-5.1229,-5.1058,-5.0698,-4.9757,-4.8923,-4.7971,-4.6084,-4.5073,-4.4528,-4.3934,-4.374,-4.3966,-4.497,-4.5723,-4.6225,-4.6225,-4.625,-4.6301,-4.6301,-4.6301,-4.6301,-4.6301,-4.6301,-4.6301,-4.6301,-4.6301,-4.6301,-4.6301,-4.6301,-4.6301,-4.6301,-4.6301,-4.6301,-4.6301,-4.6301,-4.6301,-4.6301,-4.6301,-4.6301,-4.6301,-4.6301,-4.6301,-4.6301,-4.6301,-4.6301,-4.6301,-4.6301,-4.6301,-4.6301,-4.6301,-4.6301,-4.6301,-4.6301,-4.6301,-4.6301,-4.6301,-4.6301,-4.6301,-4.6301,-4.6301,-4.6301,-4.6301,-4.6301,0.0,0.0,0.0,0.0,0.0,0.0,-4.0766,0.0,-4.2091,0.0,0.0,0.0,0.0,0.0,0.0,0.0,0.0,0.0,0.0,0.0,0.0,0.0,0.0,0.0,0.0,0.0,0.0,0.0,-4.9219,-4.8574,-4.8223,-4.7666,-4.7359,-4.7359,-4.7359,-4.7666,-4.8324,-4.8972,-4.964,-5.0357,-5.0947,-5.1229,-5.1229,-5.1229,-5.1229,-5.1229,-5.1229,-5.1229,-5.1229,-5.1229,-5.1105,-5.1011,-5.068,-4.9786,-4.8503,-4.6843,-4.5688,-4.4855,-4.4291,-4.4187,-4.4468,-4.5598,-4.6125,-4.6301,-4.6301,-4.6301,-4.6301,-4.6301,-4.6301,-4.6301,-4.6301,-4.6301,-4.6301,-4.6301,-4.6301,-4.6301,-4.6301,-4.6301,-4.6301,-4.6301,-4.6301,-4.6301,-4.6301,-4.6301,-4.6301,-4.6301,-4.6301,-4.6301,-4.6301,-4.6301,-4.6301,-4.6301,-4.6301,-4.6301,-4.6301,-4.6301,-4.6301,-4.6301,-4.6301,-4.6301,-4.6301,-4.6301,-4.6301,-4.6301,-4.6301,-4.6301,-4.6301,-4.6301,-4.6301,-4.6301,-4.6301,-4.6301,-4.5232,0.0,0.0,0.0,0.0,0.0,0.0,0.0,0.0,0.0,0.0,0.0,0.0,0.0,0.0,0.0,0.0,0.0,0.0,0.0,0.0,0.0,0.0,0.0,0.0,0.0,0.0,0.0,0.0,-4.9475,-4.9184,-4.8881,-4.8752,-4.8752,-4.8752,-4.8952,-4.9429,-4.9727,-5.0105,-5.0567,-5.0994,-5.1229,-5.1229,-5.1229,-5.1229,-5.1229,-5.1229,-5.1229,-5.1229,-5.1229,-5.1229,-5.1229,-5.1229,-5.0394,-4.9058,-4.7759,-4.6565,-4.5578,-4.4955,-4.485,-4.5221,-4.605,-4.6301,-4.6301,-4.6301,-4.6301,-4.6301,-4.6301,-4.6301,-4.6301,-4.6301,-4.6301,-4.6301,-4.6301,-4.6301,-4.6301,-4.6301,-4.6301,-4.6301,-4.6301,-4.6301,-4.6301,-4.6301,-4.6301,-4.6301,-4.6301,-4.6301,-4.6301,-4.6301,-4.6301,-4.6301,-4.6301,-4.6301,-4.6301,-4.6301,-4.6301,-4.6301,-4.6301,-4.6301,-4.6301,-4.6301,-4.6301,-4.6301,-4.6301,-4.6301,-4.6301,-4.6301,-4.6301,-4.6301,-4.6301,-4.6301,-4.6301,0.0,0.0,0.0,-4.2651,0.0,0.0,0.0,0.0,-4.0721,0.0,0.0,0.0,0.0,0.0,0.0,0.0,0.0,0.0,0.0,0.0,0.0,0.0,0.0,0.0,0.0,0.0,0.0,0.0,0.0,0.0,-4.9103,-5.0077,-5.0598,-5.0598,-5.0598,-5.0746,-5.1022,-5.0651,-5.0567,-5.0793,-5.1058,-5.1229,-5.1229,-5.1229,-5.1229,-5.1229,-5.1229,-5.1229,-5.1229,-5.1229,-5.1229,-5.1229,-5.1229,-5.0757,-4.9902,-4.877,-4.7823,-4.7029,-4.6154,-4.6011,-4.625,-4.6301,-4.6301,-4.6301,-4.6301,-4.6301,-4.6301,-4.6301,-4.6301,-4.6301,-4.6301,-4.6301,-4.6301,-4.6301,-4.6301,-4.6301,-4.6301,-4.6301,-4.6301,-4.6301,-4.6301,-4.6301,-4.6301,-4.6301,-4.6301,-4.6301,-4.6301,-4.6301,-4.6301,-4.6301,-4.6301,-4.6301,-4.6301,-4.6301,-4.6301,-4.6301,-4.6301,-4.6301,-4.6301,-4.6301,-4.6301,-4.6301,-4.6301,-4.6301,-4.6301,-4.6301,-4.6301,-4.6301,-4.6301,-4.6301,-4.6301,-4.6301,0.0,0.0,-4.3607,-4.3585,0.0,0.0,0.0,0.0,0.0,0.0,0.0,0.0,0.0,0.0,0.0,0.0,0.0,0.0,0.0,0.0,0.0,0.0,0.0,0.0,0.0,0.0,0.0,0.0,-4.7956,0.0,0.0,-5.0372,-5.1213,-5.1706,-5.1706,-5.1754,-5.1803,-5.1274,-5.0994,-5.1058,-5.1182,-5.1229,-5.1229,-5.1229,-5.1229,-5.1229,-5.1229,-5.1229,-5.1229,-5.1229,-5.1229,-5.1259,-5.1708,-5.1601,-5.1023,-4.9529,-4.8246,-4.7056,-4.6206,-4.6061,-4.6301,-4.6301,-4.6301,-4.6301,-4.6301,-4.6301,-4.6301,-4.6301,-4.6301,-4.6301,-4.6301,-4.6301,-4.6301,-4.6301,-4.6301,-4.6301,-4.6301,-4.6301,-4.6301,-4.6301,-4.6301,-4.6301,-4.6301,-4.6301,-4.6301,-4.6301,-4.6301,-4.6301,-4.6301,-4.6301,-4.6301,-4.6301,-4.6301,-4.6301,-4.6301,-4.6301,-4.6301,-4.6301,-4.6301,-4.6301,-4.6301,-4.6301,-4.6301,-4.6301,-4.6301,-4.6301,-4.6301,-4.6301,-4.6301,-4.6301,-4.6301,-4.6301,-4.3096,-4.298,0.0,-4.2987,-4.2519,0.0,-4.0821,0.0,0.0,0.0,0.0,0.0,0.0,0.0,0.0,0.0,0.0,0.0,0.0,0.0,0.0,0.0,0.0,0.0,0.0,0.0,-4.6142,-4.6561,-4.683,0.0,0.0,0.0,-5.1528,-5.2187,-5.2426,-5.2546,-5.2546,-5.1648,-5.1229,-5.1229,-5.1229,-5.1229,-5.1229,-5.1229,-5.1229,-5.1229,-5.1229,-5.1229,-5.1229,-5.1229,-5.1229,-5.1289,-5.1947,-5.2073,-5.1668,-5.0608,-4.9181,-4.7613,-4.6817,-4.6391,-4.6301,-4.6301,-4.6301,-4.6301,-4.6301,-4.6301,-4.6301,-4.6301,-4.6301,-4.6301,-4.6301,-4.6301,-4.6301,-4.6301,-4.6301,-4.6301,-4.6301,-4.6301,-4.6301,-4.6301,-4.6301,-4.6301,-4.6301,-4.6301,-4.6301,-4.6301,-4.6301,-4.6301,-4.6301,-4.6301,-4.6301,-4.6301,-4.6301,-4.6301,-4.6301,-4.6301,-4.6301,-4.6301,-4.6301,-4.6301,-4.6301,-4.6301,-4.6301,-4.6301,-4.6301,-4.6301,-4.6301,-4.6301,-4.6301,-4.6301,-4.6301,-4.6301]},{"header":{"parameterUnit":"m.s-1","parameterCategory":1,"la1":30.6,"la2":29.2853,"lo1":-89.7004,"lo2":-87.6739,"dy":0.0162,"dx":0.0183,"nx":112,"ny":82,"refTime":"2026-03-27T12:00:00:Z","depth":0,"parameterNumber":3,"parameterNumberName":"V-component_of_WINDS"},"data":[0.0,0.0,0.0,0.0,0.0,0.0,0.0,0.0,0.0,0.0,0.0,0.0,0.0,0.0,0.0,0.0,0.0,0.0,0.0,0.0,0.0,0.0,0.0,0.0,0.0,0.0,0.0,0.0,0.0,0.0,0.0,0.0,0.0,0.0,0.0,0.0,0.0,0.0,0.0,0.0,0.0,0.0,0.0,0.0,0.0,0.0,0.0,0.0,0.0,0.0,0.0,0.0,0.0,0.0,0.0,0.0,0.0,0.0,0.0,0.0,0.0,0.0,0.0,0.0,0.0,0.0,0.0,0.0,0.0,0.0,0.0,0.0,0.0,0.0,0.0,0.0,0.0,0.0,0.0,0.0,0.0,0.0,0.0,0.0,0.0,0.0,0.0,0.0,0.0,0.0,2.1494,2.3102,2.5117,2.5896,2.4757,2.397,2.262,2.0588,0.0,0.0,0.0,0.0,0.0,0.0,0.0,0.0,0.0,0.0,0.0,0.0,0.0,0.0,0.0,0.0,0.0,0.0,0.0,0.0,0.0,0.0,0.0,0.0,0.0,0.0,0.0,0.0,0.0,0.0,0.0,0.0,0.0,0.0,0.0,0.0,0.0,0.0,0.0,0.0,0.0,0.0,0.0,0.0,0.0,0.0,0.0,0.0,0.0,0.0,0.0,0.0,0.0,0.0,0.0,0.0,0.0,0.0,0.0,0.0,0.0,0.0,0.0,0.0,0.0,0.0,0.0,0.0,0.0,0.0,0.0,0.0,0.0,0.0,0.0,0.0,0.0,0.0,0.0,0.0,0.0,0.0,0.0,0.0,0.0,0.0,0.0,0.0,0.0,0.0,0.0,0.0,0.0,0.0,0.0,0.0,0.0,0.0,0.0,0.0,0.0,0.0,0.0,0.0,2.2338,2.4502,2.5732,2.6132,2.5428,2.4993,2.417,2.2545,0.0,0.0,0.0,0.0,0.0,0.0,0.0,0.0,0.0,0.0,0.0,0.0,0.0,0.0,0.0,0.0,0.0,0.0,0.0,0.0,0.0,0.0,0.0,0.0,0.0,0.0,0.0,0.0,0.0,0.0,0.0,0.0,0.0,0.0,0.0,0.0,0.0,0.0,0.0,0.0,0.0,0.0,0.0,0.0,0.0,0.0,0.0,0.0,0.0,0.0,0.0,0.0,0.0,0.0,0.0,0.0,0.0,0.0,0.0,0.0,0.0,0.0,0.0,0.0,0.0,0.0,0.0,0.0,0.0,0.0,0.0,0.0,0.0,0.0,0.0,0.0,0.0,0.0,0.0,0.0,0.0,0.0,0.0,0.0,0.0,0.0,0.0,0.0,0.0,0.0,0.0,0.0,0.0,0.0,0.0,0.0,0.0,0.0,0.0,0.0,0.0,0.0,0.0,2.3549,2.489,2.5987,2.6639,2.6625,2.571,2.5012,2.3968,2.2485,2.0125,0.0,0.0,0.0,0.0,0.0,0.0,0.0,0.0,0.0,0.0,0.0,0.0,0.0,0.0,0.0,0.0,0.0,0.0,0.0,0.0,0.0,0.0,0.0,0.0,0.0,0.0,0.0,0.0,0.0,0.0,0.0,0.0,0.0,0.0,0.0,0.0,0.0,0.0,0.0,0.0,0.0,0.0,0.0,0.0,0.0,0.0,0.0,0.0,0.0,0.0,0.0,0.0,0.0,0.0,0.0,0.0,0.0,0.0,0.0,0.0,0.0,0.0,0.0,0.0,0.0,0.0,0.0,0.0,0.0,0.0,0.0,0.0,0.0,0.0,0.0,0.0,0.0,0.0,0.0,0.0,0.0,0.0,0.0,0.0,0.0,0.0,0.0,0.0,0.0,0.0,0.0,0.0,0.0,0.0,0.0,0.0,0.0,0.0,0.0,0.0,0.0,0.0,2.6813,2.7922,2.7673,2.7884,2.7445,2.5996,2.4788,2.3434,2.1871,2.0468,0.0,0.0,0.0,0.0,0.0,0.0,0.0,0.0,0.0,0.0,0.0,0.0,0.0,0.0,0.0,0.0,0.0,0.0,0.0,0.0,0.0,0.0,0.0,0.0,0.0,0.0,0.0,0.0,0.0,0.0,0.0,0.0,0.0,0.0,0.0,0.0,0.0,0.0,0.0,0.0,0.0,0.0,0.0,0.0,0.0,0.0,0.0,0.0,0.0,0.0,0.0,0.0,0.0,0.0,0.0,0.0,0.0,0.0,0.0,0.0,0.0,0.0,0.0,0.0,0.0,0.0,0.0,0.0,0.0,0.0,0.0,0.0,0.0,0.0,0.0,0.0,0.0,0.0,0.0,0.0,0.0,0.0,0.0,0.0,0.0,0.0,0.0,0.0,0.0,0.0,0.0,0.0,0.0,0.0,0.0,0.0,0.0,0.0,0.0,0.0,0.0,0.0,2.9769,3.0819,3.0071,2.958,2.8482,2.6587,2.485,2.3046,2.1283,2.0054,0.0,0.0,0.0,0.0,0.0,0.0,0.0,0.0,0.0,0.0,0.0,0.0,0.0,0.0,0.0,0.0,0.0,0.0,0.0,0.0,0.0,0.0,0.0,0.0,0.0,0.0,0.0,0.0,0.0,0.0,0.0,0.0,0.0,0.0,0.0,0.0,0.0,0.0,0.0,0.0,0.0,0.0,0.0,0.0,0.0,0.0,0.0,0.0,0.0,0.0,0.0,0.0,0.0,0.0,0.0,0.0,0.0,0.0,0.0,0.0,0.0,0.0,0.0,0.0,0.0,0.0,0.0,0.0,0.0,0.0,0.0,0.0,0.0,0.0,0.0,0.0,0.0,0.0,0.0,0.0,0.0,0.0,0.0,0.0,0.0,0.0,0.0,0.0,0.0,0.0,0.0,0.0,0.0,0.0,0.0,0.0,0.0,0.0,0.0,0.0,0.0,0.0,3.0857,3.1916,0.0,3.0675,2.9536,2.7685,2.5935,2.4153,2.2468,0.0,0.0,0.0,0.0,0.0,0.0,0.0,0.0,0.0,0.0,0.0,0.0,0.0,0.0,0.0,0.0,0.0,0.0,0.0,0.0,0.0,0.0,0.0,0.0,0.0,0.0,0.0,0.0,0.0,0.0,0.0,0.0,0.0,0.0,0.0,0.0,0.0,0.0,0.0,0.0,0.0,0.0,0.0,0.0,0.0,0.0,0.0,0.0,0.0,0.0,0.0,0.0,0.0,0.0,0.0,0.0,0.0,0.0,0.0,0.0,0.0,0.0,0.0,0.0,0.0,0.0,0.0,0.0,0.0,0.0,0.0,0.0,0.0,0.0,0.0,0.0,0.0,0.0,0.0,0.0,0.0,0.0,0.0,0.0,0.0,0.0,0.0,0.0,0.0,0.0,0.0,0.0,0.0,0.0,0.0,0.0,0.0,0.0,0.0,0.0,0.0,0.0,3.0307,3.2308,3.3436,0.0,3.2257,3.1115,2.9277,2.7436,2.5718,2.407,0.0,0.0,0.0,0.0,0.0,0.0,0.0,0.0,0.0,0.0,0.0,0.0,0.0,0.0,0.0,0.0,0.0,0.0,0.0,0.0,0.0,0.0,0.0,0.0,0.0,0.0,0.0,0.0,0.0,0.0,0.0,0.0,0.0,0.0,0.0,0.0,0.0,0.0,0.0,0.0,0.0,0.0,0.0,0.0,0.0,0.0,0.0,0.0,0.0,0.0,0.0,0.0,0.0,0.0,0.0,0.0,0.0,0.0,0.0,0.0,0.0,0.0,0.0,0.0,0.0,0.0,0.0,0.0,0.0,0.0,0.0,0.0,0.0,0.0,0.0,0.0,0.0,0.0,0.0,0.0,0.0,0.0,0.0,0.0,0.0,0.0,0.0,0.0,0.0,0.0,0.0,0.0,0.0,0.0,0.0,0.0,0.0,0.0,0.0,0.0,0.0,0.0,3.1994,3.4414,3.5655,3.4883,3.444,3.3322,3.1313,2.9459,2.766,0.0,0.0,0.0,0.0,0.0,0.0,0.0,0.0,0.0,0.0,0.0,0.0,0.0,0.0,0.0,0.0,0.0,0.0,0.0,0.0,0.0,0.0,0.0,0.0,0.0,0.0,0.0,0.0,0.0,0.0,0.0,0.0,0.0,0.0,0.0,0.0,0.0,0.0,0.0,0.0,0.0,0.0,0.0,0.0,0.0,0.0,0.0,0.0,0.0,0.0,0.0,0.0,0.0,0.0,0.0,0.0,0.0,0.0,0.0,0.0,0.0,0.0,0.0,0.0,0.0,0.0,0.0,0.0,0.0,0.0,0.0,0.0,0.0,0.0,0.0,0.0,0.0,0.0,0.0,0.0,0.0,0.0,0.0,0.0,0.0,0.0,0.0,0.0,0.0,0.0,0.0,0.0,0.0,0.0,0.0,0.0,0.0,0.0,0.0,0.0,0.0,0.0,0.0,3.1484,3.3691,3.5015,3.4854,3.449,3.367,3.2289,3.0999,2.9416,2.7494,0.0,0.0,0.0,0.0,0.0,0.0,0.0,0.0,0.0,0.0,0.0,0.0,0.0,0.0,0.0,0.0,0.0,0.0,0.0,0.0,0.0,0.0,0.0,0.0,0.0,0.0,0.0,0.0,0.0,0.0,0.0,0.0,0.0,0.0,0.0,0.0,0.0,0.0,0.0,0.0,0.0,0.0,0.0,0.0,0.0,0.0,0.0,0.0,0.0,0.0,0.0,0.0,0.0,0.0,0.0,0.0,0.0,0.0,0.0,0.0,0.0,0.0,0.0,0.0,0.0,0.0,0.0,0.0,0.0,0.0,0.0,0.0,0.0,0.0,0.0,0.0,0.0,0.0,0.0,0.0,0.0,0.0,0.0,0.0,0.0,0.0,0.0,0.0,0.0,0.0,0.0,0.0,0.0,0.0,0.0,0.0,0.0,0.0,0.0,0.0,0.0,0.0,3.1269,3.3379,3.4817,3.4998,3.4997,3.4543,3.3558,3.2861,3.1598,2.9564,0.0,0.0,0.0,0.0,0.0,0.0,0.0,0.0,0.0,0.0,0.0,0.0,0.0,0.0,0.0,0.0,0.0,0.0,0.0,0.0,0.0,0.0,0.0,0.0,0.0,0.0,0.0,0.0,0.0,0.0,0.0,0.0,0.0,0.0,0.0,0.0,0.0,0.0,0.0,0.0,0.0,0.0,0.0,0.0,0.0,0.0,0.0,0.0,0.0,0.0,0.0,0.0,0.0,0.0,0.0,0.0,0.0,0.0,0.0,0.0,0.0,0.0,0.0,0.0,0.0,0.0,0.0,0.0,0.0,0.0,0.0,0.0,0.0,0.0,0.0,0.0,0.0,0.0,0.0,0.0,0.0,0.0,0.0,0.0,0.0,0.0,0.0,0.0,0.0,0.0,0.0,0.0,0.0,0.0,0.0,0.0,0.0,0.0,0.0,0.0,0.0,0.0,3.1309,3.3548,3.5061,3.5493,3.5905,3.5807,3.4962,3.4864,3.3941,3.176,0.0,0.0,0.0,0.0,0.0,0.0,0.0,0.0,0.0,0.0,0.0,0.0,0.0,0.0,0.0,0.0,0.0,0.0,0.0,0.0,0.0,0.0,0.0,0.0,0.0,0.0,0.0,0.0,0.0,0.0,0.0,0.0,0.0,0.0,0.0,0.0,0.0,0.0,0.0,0.0,0.0,0.0,0.0,0.0,0.0,0.0,0.0,0.0,0.0,0.0,0.0,0.0,0.0,0.0,0.0,0.0,0.0,0.0,0.0,0.0,2.9199,0.0,0.0,0.0,0.0,0.0,0.0,0.0,0.0,0.0,0.0,0.0,0.0,0.0,0.0,0.0,0.0,0.0,0.0,0.0,0.0,0.0,0.0,0.0,0.0,0.0,0.0,0.0,0.0,0.0,0.0,0.0,0.0,0.0,0.0,0.0,0.0,0.0,0.0,0.0,0.0,0.0,3.1859,3.4595,3.6374,3.6476,3.6885,3.6926,3.6395,3.6006,3.4942,3.2808,3.0782,0.0,0.0,0.0,0.0,0.0,0.0,0.0,0.0,0.0,0.0,0.0,0.0,0.0,0.0,0.0,0.0,0.0,0.0,0.0,0.0,0.0,0.0,0.0,0.0,0.0,0.0,0.0,0.0,0.0,0.0,0.0,0.0,0.0,0.0,0.0,0.0,0.0,0.0,0.0,0.0,0.0,0.0,0.0,0.0,0.0,0.0,0.0,0.0,0.0,0.0,0.0,0.0,0.0,0.0,0.0,0.0,0.0,0.0,0.0,0.0,3.0596,0.0,0.0,0.0,0.0,0.0,0.0,0.0,0.0,0.0,0.0,0.0,0.0,0.0,0.0,0.0,0.0,0.0,0.0,0.0,0.0,0.0,0.0,0.0,0.0,0.0,0.0,0.0,0.0,0.0,0.0,0.0,0.0,0.0,0.0,0.0,0.0,0.0,0.0,0.0,0.0,3.298,3.6139,3.8035,3.7758,3.8337,3.853,3.7863,3.7563,3.6603,3.4604,3.235,0.0,0.0,0.0,0.0,0.0,0.0,0.0,0.0,0.0,0.0,0.0,0.0,0.0,0.0,0.0,0.0,0.0,0.0,0.0,0.0,0.0,0.0,0.0,0.0,0.0,0.0,0.0,0.0,0.0,0.0,0.0,0.0,0.0,0.0,0.0,0.0,0.0,0.0,0.0,0.0,0.0,0.0,0.0,0.0,0.0,0.0,0.0,0.0,0.0,0.0,0.0,0.0,0.0,3.7234,3.7542,3.7954,3.7954,3.8,3.7885,3.4923,3.3664,3.3642,3.3142,0.0,0.0,0.0,0.0,0.0,0.0,0.0,0.0,0.0,0.0,0.0,0.0,0.0,0.0,0.0,0.0,0.0,0.0,0.0,0.0,0.0,0.0,0.0,0.0,3.8496,3.819,0.0,0.0,0.0,0.0,0.0,0.0,0.0,0.0,0.0,0.0,0.0,0.0,3.4241,3.7694,3.9634,3.9017,3.982,4.0107,3.9295,3.9198,3.835,3.6551,3.4272,3.2083,0.0,0.0,0.0,0.0,0.0,0.0,0.0,0.0,0.0,0.0,0.0,0.0,0.0,0.0,0.0,0.0,0.0,0.0,0.0,0.0,0.0,0.0,0.0,0.0,0.0,0.0,0.0,0.0,0.0,0.0,0.0,0.0,3.5235,3.5941,0.0,0.0,0.0,0.0,0.0,0.0,0.0,0.0,0.0,0.0,0.0,0.0,0.0,3.7794,3.8374,3.9282,3.9823,3.9894,4.0317,4.0552,4.0622,4.0622,4.0798,4.1138,4.0304,0.0,3.7206,3.6655,0.0,0.0,0.0,0.0,0.0,0.0,0.0,0.0,0.0,0.0,0.0,0.0,0.0,0.0,0.0,0.0,0.0,0.0,0.0,0.0,0.0,0.0,4.1434,4.0906,4.1928,4.265,0.0,3.8717,3.6285,3.4716,3.3242,0.0,0.0,0.0,0.0,0.0,0.0,0.0,3.5138,3.8492,4.0561,3.9989,4.0455,4.0795,4.0655,4.0234,3.9523,3.832,3.6341,3.4159,3.1936,2.9395,0.0,0.0,0.0,0.0,0.0,0.0,0.0,0.0,0.0,0.0,0.0,0.0,0.0,0.0,0.0,0.0,0.0,0.0,0.0,0.0,0.0,0.0,0.0,0.0,0.0,0.0,0.0,0.0,0.0,3.7512,3.8626,3.8288,3.777,3.6963,0.0,0.0,0.0,0.0,0.0,0.0,0.0,0.0,0.0,3.8851,4.0123,4.1058,4.1678,4.2381,4.2944,4.3262,4.3482,4.3752,4.4045,4.4045,4.4108,4.4328,4.4083,4.3514,4.2482,4.0223,3.9013,3.8457,0.0,0.0,0.0,0.0,3.6124,3.6402,3.7045,3.6929,0.0,3.6463,0.0,0.0,0.0,0.0,0.0,0.0,0.0,0.0,0.0,0.0,4.2313,4.2635,4.3037,4.3288,4.3112,4.1737,3.9848,0.0,3.624,3.4648,3.2243,0.0,0.0,0.0,0.0,3.5443,3.7159,4.0418,4.2241,4.1387,4.2046,4.2436,4.2143,4.1899,4.1428,4.0616,3.8871,3.7053,3.5131,3.2858,3.0891,0.0,0.0,0.0,0.0,0.0,0.0,0.0,0.0,0.0,0.0,0.0,0.0,0.0,0.0,0.0,0.0,0.0,0.0,0.0,0.0,0.0,0.0,0.0,0.0,0.0,0.0,0.0,0.0,4.0317,4.1181,4.041,4.0368,3.9841,0.0,0.0,0.0,0.0,0.0,0.0,3.9833,4.0427,4.1216,4.2312,4.3312,4.4091,4.4644,4.507,4.5497,4.5899,4.5773,4.5924,4.6326,4.6451,4.6527,4.6527,4.6652,4.6728,4.6456,4.3454,4.1873,4.1321,4.0298,3.9681,3.9266,3.9266,3.9362,3.9578,4.0274,4.0322,4.0058,3.977,0.0,3.7796,3.636,0.0,0.0,0.0,0.0,3.9352,4.0383,4.1747,4.2961,4.3639,4.3589,4.3463,4.374,4.3489,4.2499,0.0,3.8785,3.73,3.4797,0.0,0.0,0.0,0.0,3.7189,3.86,4.1609,4.3212,4.2313,4.3011,4.3413,4.3011,4.2986,4.2737,4.2231,4.0727,3.9213,3.7762,3.5648,3.38,3.2268,0.0,0.0,0.0,0.0,0.0,0.0,0.0,0.0,0.0,0.0,0.0,0.0,0.0,0.0,0.0,0.0,0.0,0.0,0.0,0.0,0.0,0.0,0.0,0.0,0.0,0.0,0.0,0.0,0.0,4.2214,4.2549,0.0,0.0,0.0,0.0,4.0602,4.1403,4.2006,4.2321,4.3124,4.3959,4.4774,4.5645,4.6401,4.6954,4.6943,4.6968,4.6993,4.6527,4.6276,4.6326,4.6853,4.7043,4.7129,4.7606,4.7832,4.7707,4.5955,4.4953,4.4244,4.32,4.2749,4.2724,4.2724,4.3075,4.3676,4.4778,4.4452,4.3651,4.4127,4.2443,4.0145,3.9018,3.8693,0.0,0.0,4.0674,4.2007,4.2057,4.3288,4.4392,4.3915,4.4192,4.4392,4.3915,4.379,4.33,0.0,4.0508,3.8985,3.7063,0.0,3.5186,3.4554,3.6972,3.8753,3.8537,4.1143,4.2785,4.2263,4.2715,4.3011,4.2986,4.2986,4.2874,4.2513,4.1219,3.9976,3.8851,3.6972,3.5331,3.4019,3.2983,0.0,0.0,0.0,0.0,0.0,0.0,0.0,0.0,0.0,0.0,0.0,0.0,0.0,0.0,0.0,0.0,0.0,0.0,0.0,0.0,0.0,0.0,0.0,0.0,0.0,0.0,0.0,0.0,4.4376,4.5136,0.0,4.4674,4.4131,4.4107,4.4798,4.5165,4.5533,4.5917,4.6262,4.6584,4.6845,4.7168,4.7431,4.7631,4.7305,4.7068,4.7068,4.6577,4.6502,4.6853,4.6993,4.7305,4.7631,4.7832,4.7908,4.7857,4.728,4.6728,4.62,4.5799,4.5221,4.4593,4.4593,4.4468,4.4392,4.4794,4.4669,4.4242,4.374,4.266,4.1379,4.0275,3.9923,3.9973,4.0174,4.1153,4.2213,4.2213,4.2861,4.3614,4.3765,4.3689,4.3614,4.3765,4.3237,4.2635,4.2123,4.1339,4.0308,3.8961,3.8164,3.7791,3.7817,3.9038,4.019,4.0796,4.2158,4.2911,4.2766,4.2861,4.2986,4.2986,4.2986,4.2986,4.2818,4.2038,4.1226,4.0463,3.9495,3.8378,3.7194,3.5768,3.4318,0.0,0.0,0.0,0.0,0.0,0.0,0.0,0.0,0.0,0.0,0.0,0.0,0.0,0.0,0.0,0.0,0.0,0.0,0.0,0.0,0.0,0.0,0.0,0.0,0.0,0.0,4.5547,4.5748,4.6903,4.7456,4.6903,4.6527,4.6602,4.733,4.7581,4.7832,4.8184,4.8209,4.8284,4.8485,4.8309,4.8284,4.8485,4.7958,4.7682,4.7682,4.7129,4.7029,4.7405,4.7606,4.7883,4.8209,4.8385,4.8485,4.8485,4.8485,4.8159,4.7657,4.7481,4.6853,4.605,4.605,4.5673,4.5196,4.5196,4.5196,4.5045,4.4116,4.3677,4.3255,4.2347,4.2124,4.2207,4.2005,4.2612,4.3245,4.2865,4.3194,4.3594,4.3771,4.3543,4.3371,4.3493,4.2785,4.2153,4.2153,4.1537,4.0777,3.9848,3.9396,3.922,3.9396,4.0199,4.1053,4.1781,4.2509,4.2986,4.2986,4.2986,4.2986,4.2986,4.2811,4.2766,4.2766,4.2062,4.143,4.1025,4.0526,3.9798,3.8944,3.7061,3.5303,3.3621,0.0,0.0,0.0,0.0,0.0,0.0,0.0,0.0,0.0,0.0,0.0,0.0,0.0,0.0,0.0,0.0,0.0,0.0,0.0,0.0,0.0,0.0,0.0,4.2861,4.4468,4.5748,4.6301,4.7807,4.8586,4.8008,4.7958,4.7958,4.7958,4.8485,4.8786,4.8761,4.8761,4.9012,4.9515,4.9038,4.9038,4.9565,4.9038,4.885,4.8825,4.8184,4.7908,4.7958,4.8573,4.885,4.89,4.9364,4.959,4.959,4.959,4.9264,4.8711,4.8159,4.7606,4.7068,4.7068,4.6778,4.6301,4.6301,4.6301,4.6225,4.5673,4.5708,4.5816,4.5233,4.5311,4.5411,4.4796,4.5053,4.5232,4.4156,4.4284,4.454,4.4083,4.3955,4.3775,4.321,4.2567,4.2182,4.2104,4.1275,4.0377,3.9849,3.9774,3.9598,3.9045,4.0325,0.0,4.1354,4.2308,4.3042,4.3042,4.3042,4.3017,4.3017,4.2514,4.2187,4.2162,4.1131,4.0475,4.0475,3.9948,3.9422,3.8844,3.6659,3.4751,3.3162,0.0,0.0,0.0,0.0,0.0,0.0,0.0,0.0,0.0,0.0,0.0,0.0,0.0,0.0,0.0,0.0,0.0,0.0,0.0,0.0,0.0,4.3092,4.3797,4.3595,4.5372,4.6878,4.7405,4.8586,4.9314,4.9138,4.9138,4.9138,4.9138,4.9289,4.9188,4.8786,4.8761,4.8661,4.8385,4.8636,4.8837,4.8987,4.9115,4.9166,4.9141,4.8584,4.8533,4.8913,4.909,4.9368,4.9773,4.9925,4.9976,4.9937,4.9719,4.9264,4.8761,4.8611,4.7958,4.7068,4.7068,4.6778,4.6301,4.6301,4.6301,4.6225,4.5885,4.5826,4.574,4.5062,4.4868,4.472,4.3746,4.3592,4.3698,4.3553,4.3795,4.4167,4.4643,4.4912,4.4889,4.4282,4.3703,4.3177,4.2756,4.2102,4.1434,4.0952,4.0848,4.0797,4.0644,4.1713,0.0,4.2528,4.3165,4.3653,4.3653,4.3653,4.35,4.3012,4.2834,4.2401,4.1586,4.0873,4.0287,3.9855,3.9345,3.8581,3.7588,3.6616,3.5672,0.0,0.0,0.0,0.0,0.0,0.0,0.0,0.0,0.0,0.0,0.0,0.0,0.0,0.0,0.0,0.0,0.0,0.0,0.0,0.0,0.0,0.0,4.58,4.6672,4.6778,4.7555,4.8273,4.8833,4.9546,4.9976,4.9783,4.9654,4.959,4.959,4.959,4.9464,4.9138,4.8661,4.846,4.8611,4.8485,4.8699,4.9304,4.952,4.9748,5.0064,4.9731,4.9819,5.0253,5.0415,5.0533,0.0,5.0867,5.0842,5.0715,5.0231,4.9734,0.0,0.0,0.0,0.0,0.0,4.6914,4.6695,4.6695,4.6695,4.6645,4.6493,4.6568,4.6506,4.5865,4.536,4.4853,4.3715,4.3043,4.2734,4.3075,4.365,4.4384,4.5337,4.6079,4.631,4.5442,4.4788,4.4239,4.359,4.3012,0.0,4.2587,4.1994,4.1644,4.1904,4.2502,4.3022,4.3256,4.3802,4.4221,4.4221,4.4403,4.4403,4.4064,4.3596,0.0,0.0,0.0,4.0473,3.9901,3.9771,0.0,0.0,0.0,0.0,0.0,0.0,0.0,0.0,3.5414,3.6561,0.0,0.0,0.0,0.0,0.0,0.0,0.0,0.0,0.0,0.0,0.0,0.0,0.0,0.0,0.0,0.0,4.8595,4.991,5.1142,5.0649,5.0237,5.0523,5.0695,5.0652,5.0295,4.9912,4.9654,4.9654,4.9654,4.9629,4.9579,0.0,0.0,0.0,0.0,4.8737,5.0066,5.0142,5.055,5.1183,5.1309,5.1534,5.1882,5.2253,5.2253,5.2006,5.2236,5.2148,5.1812,5.1172,5.0593,5.006,4.9343,4.8477,4.7596,4.7385,4.7324,4.7324,4.7324,0.0,0.0,4.7442,4.7677,4.7808,4.721,4.6473,4.554,4.4334,4.3205,4.2466,4.2944,4.3949,4.5071,4.6206,4.7343,4.7857,4.6566,4.591,4.5364,4.464,4.4047,4.3821,4.4414,4.3225,4.2445,4.2958,4.3091,4.3332,4.379,4.4483,4.4885,4.4885,0.0,0.0,4.566,4.4749,4.3838,4.3141,4.1882,4.087,4.0261,4.0763,4.0891,4.0482,4.1045,4.0905,4.0003,3.9996,3.9617,3.895,3.8944,3.9905,0.0,0.0,0.0,0.0,0.0,0.0,0.0,0.0,0.0,0.0,0.0,0.0,0.0,0.0,0.0,4.8735,5.0352,5.1708,5.2938,5.3768,5.3677,5.2011,5.1979,5.1917,5.1346,5.055,5.0001,5.0001,5.0001,4.9799,4.9406,4.9404,4.93,4.9095,4.93,4.9566,4.9859,5.0573,5.1246,5.1934,0.0,0.0,5.3544,5.4116,5.4295,5.4268,5.3771,5.352,5.3406,5.2424,5.1881,5.1363,4.9244,4.8217,4.8009,4.8023,4.7971,4.7971,4.8236,4.8526,4.8784,4.8988,4.9103,4.8973,4.821,4.7486,0.0,4.4954,4.3983,4.3517,4.4059,4.5065,4.6217,4.7327,4.8493,4.9,4.7759,4.7384,4.6951,4.5722,4.5405,4.5347,4.5492,4.4591,4.3871,4.401,4.4427,4.4788,4.4899,4.5872,4.6567,4.6567,4.7096,4.7313,4.6812,4.6562,4.5804,4.4216,4.2488,4.119,4.0562,4.0646,4.0912,4.1346,4.2004,4.245,4.2673,4.3596,4.3849,4.3473,4.1892,4.1681,0.0,0.0,0.0,0.0,0.0,0.0,0.0,0.0,0.0,0.0,0.0,4.5395,4.7136,0.0,4.9882,5.1372,5.2958,5.4388,5.524,5.6386,5.6223,5.4027,5.3621,5.3207,5.2377,5.157,5.1031,5.0867,5.1031,5.0965,5.068,5.0767,5.0795,5.0821,5.0795,5.0987,5.1461,5.1874,5.2527,5.3322,5.3779,5.435,5.4942,5.5558,5.5563,5.5137,5.4969,5.4601,5.4064,5.3276,5.2741,5.2369,5.0767,4.9729,4.9019,4.9072,4.9072,4.9076,4.9532,5.0041,5.0434,5.0545,5.0601,5.0381,4.9333,4.8365,4.7395,4.5896,4.4816,4.4323,4.5108,4.6196,4.7377,4.847,4.9589,5.0088,4.8866,4.8571,4.8142,4.6815,4.658,4.658,4.658,4.6151,4.5627,4.5127,4.5292,4.5492,4.5492,4.6319,4.6919,4.6919,4.7746,4.8224,4.7909,4.7643,4.6785,4.5258,4.397,4.2997,4.2324,4.2582,4.3068,4.3741,4.4371,4.4858,4.5098,4.5492,4.5533,4.5186,4.4647,4.4632,0.0,0.0,0.0,0.0,0.0,0.0,0.0,4.3126,4.3885,4.5955,4.7487,4.8842,5.016,5.1562,5.2858,5.3869,5.5338,5.6539,5.7188,5.8085,5.8029,5.628,5.5412,5.4647,5.3724,5.3025,5.2535,5.2253,5.2474,5.2658,5.2658,5.2507,5.2661,5.3113,5.2688,5.2782,5.3537,5.3537,5.4019,5.4825,5.5124,5.5561,5.6194,5.6618,5.644,5.5726,5.5861,5.5401,5.4518,5.4028,5.367,5.339,5.2808,5.1757,5.0573,5.0432,5.032,5.0378,5.0934,5.1539,5.2,5.1887,5.183,5.1604,5.0332,4.9223,4.8169,4.7085,4.5997,4.537,4.6332,4.7387,4.8448,4.9351,5.0424,5.087,4.9599,4.9299,4.891,4.7549,4.7309,4.7309,4.7309,4.7309,4.7019,4.6195,4.6106,4.6106,4.6106,4.669,4.7099,4.7099,4.8238,4.8997,4.8997,4.8547,4.77,4.6459,4.5903,4.5347,4.4703,4.5128,4.5683,4.6371,4.6852,4.7115,4.7115,4.6798,4.6388,4.5973,4.6723,4.7135,3.8868,4.0251,4.2041,4.2946,4.3533,4.4449,0.0,4.7068,4.7538,4.9609,5.0767,5.1711,5.2708,5.3177,5.3924,5.543,5.6006,5.6622,5.7511,5.8248,5.8609,5.839,5.747,5.6622,5.5993,5.5122,5.4592,5.4533,5.4592,5.4592,5.4592,5.4831,5.5035,5.5091,5.5035,5.5035,5.5178,5.5178,5.5442,5.6136,5.6161,5.6488,5.7038,5.7043,5.7011,5.6892,5.6355,5.576,5.5083,5.5075,5.4985,5.4926,5.4304,5.3652,5.2857,5.1976,5.154,5.1567,5.2164,5.2783,5.3174,5.2596,5.2393,5.2162,5.089,5.0072,4.9348,4.8625,4.7949,4.7521,4.7887,4.8647,4.938,4.9779,5.0564,5.087,4.9599,4.9299,4.891,4.7549,4.7309,4.7309,4.7309,4.7309,4.7266,4.7179,4.7135,4.7135,4.7135,4.7746,4.8134,4.8134,4.9282,5.0057,5.0057,4.9968,4.9371,4.8104,4.7955,4.7627,4.697,4.703,4.7358,4.8015,4.8104,4.8134,4.8134,4.8074,4.776,4.7103,4.7236,4.7266,4.0375,4.1204,4.262,4.4497,4.5802,4.7106,4.9155,5.0146,5.1072,5.2827,5.4035,5.4873,5.5259,5.5671,5.6075,5.6332,5.6924,5.7464,5.7868,5.8519,5.8817,5.8429,5.7962,5.7533,5.6934,5.5994,5.5537,5.5732,5.5934,5.6021,5.6021,5.6337,5.6537,5.6537,5.6537,5.6537,5.6537,5.6537,5.6507,5.6611,5.6738,5.6853,5.6906,5.7034,5.6885,5.6526,5.5897,5.5448,5.5179,5.5179,5.5179,5.5128,5.4773,5.4333,5.3808,5.3049,5.273,5.2779,5.339,5.3993,5.4399,5.3698,5.3461,5.3225,5.1896,5.1354,5.1028,5.0348,4.9964,4.9804,4.9927,5.0228,5.053,5.0624,5.0926,5.087,4.9599,4.9299,4.891,4.7549,4.7309,4.7309,4.7309,4.7309,4.7309,4.7309,4.7309,4.7309,4.7309,4.7549,4.7848,4.8237,4.8775,4.9254,4.9643,4.9673,4.9434,4.894,4.8506,4.8147,4.7878,4.7519,4.7608,4.8267,4.8297,4.8297,4.8297,4.8297,4.7938,4.7309,4.7309,4.7309,4.1601,4.2308,4.34,4.5781,4.76,4.9323,5.11,5.2506,5.3838,5.5339,5.6268,5.6874,5.7159,5.7306,5.7387,5.7375,5.7922,5.8471,5.865,5.9249,5.9398,5.874,5.8351,5.797,5.757,5.6828,5.6575,5.6845,5.7243,5.7443,5.7443,5.7465,5.7544,5.7544,5.7544,5.7544,5.7544,5.7719,5.7596,5.7143,5.7006,5.6716,5.6303,5.6302,5.6166,5.5867,5.5388,5.5179,5.5179,5.5179,5.5179,5.5179,5.5006,5.4773,5.4539,5.4126,5.3838,5.3727,5.4046,5.4476,5.479,5.3922,5.3653,5.3443,5.2276,5.1917,5.1828,5.1349,5.1229,5.1229,5.1229,5.1229,5.1229,5.1229,5.1079,5.0631,4.9569,4.9179,4.8656,4.7519,4.7309,4.7309,4.7309,4.7309,4.7309,4.7309,4.7309,4.7309,4.7309,4.7309,4.7549,4.8207,4.8297,4.8476,4.9,4.9209,4.9299,4.9299,4.8805,4.8626,4.8805,4.8207,4.8057,4.8536,4.8386,4.8297,4.8297,4.8087,4.7758,4.7309,4.7309,4.7309,4.2484,4.3714,4.4936,4.6806,4.8804,5.0791,5.2716,5.4139,5.5367,5.6593,5.681,5.7075,5.7993,5.7379,5.7232,5.8776,5.9069,5.9308,5.9937,6.0625,6.0805,6.0116,5.889,5.8088,0.0,5.8035,5.8035,5.8035,5.8632,5.9045,5.9045,5.8447,5.8088,5.8088,5.8088,5.8088,5.8088,5.8716,5.8716,5.8058,5.6825,5.5897,5.5239,5.4581,5.464,5.5209,5.5209,5.5179,5.5179,5.5179,5.5179,5.5179,5.5179,5.5179,5.5179,5.5128,5.4794,5.4215,5.39,5.4022,5.4012,5.2695,5.2247,5.2127,5.1439,5.1259,5.1259,5.1229,5.1229,5.1229,5.1229,5.1229,5.1229,5.1229,5.0674,5.0092,4.9449,4.882,4.8117,4.7429,4.7309,4.7309,4.7309,4.7309,4.7309,4.7309,4.7309,4.7309,4.7309,4.7309,4.7549,4.8207,4.8297,4.8297,4.8327,4.894,4.9299,4.9299,4.9299,4.9523,5.0106,4.9553,4.9269,4.9269,4.864,4.8297,4.8297,4.7638,4.7339,4.7309,4.7309,4.7309,4.2986,4.4066,4.5246,4.7803,5.0496,5.2929,5.4336,5.6322,5.7772,5.7279,5.7088,5.703,5.6957,5.6947,5.7437,5.889,5.9458,5.9997,6.0685,6.0954,6.0864,6.0176,5.9308,0.0,0.0,0.0,0.0,5.8052,5.8321,5.865,5.9069,5.8471,5.8112,5.8112,5.8112,5.7902,5.7453,5.8112,5.7902,5.6825,5.5927,5.5418,5.5179,5.497,5.497,5.5179,5.5179,5.5179,5.5179,5.5179,5.5179,5.5179,5.5179,5.5179,5.5149,5.47,5.4421,5.4241,5.4132,5.4092,5.3982,5.2636,5.2187,5.2067,5.1409,5.1229,5.1229,5.1229,5.1229,5.1229,5.1229,5.1229,5.1109,5.0614,5.0345,4.9897,4.8865,4.8446,4.8087,4.7429,4.7309,4.7309,4.7309,4.7309,4.7309,4.7309,4.7309,4.7309,4.7309,4.7309,4.7399,4.7608,4.7638,4.7638,4.7638,4.7848,4.8147,4.8596,4.8207,4.8267,4.8925,4.8327,4.7967,4.7967,4.7758,4.7638,4.7638,4.7429,4.7309,4.7309,4.7309,4.7309,4.3865,4.5095,4.638,4.8697,5.1268,5.3504,5.4605,5.6663,5.8003,5.6962,5.6497,5.6166,5.6279,5.637,5.6915,5.8501,5.9727,6.0625,6.1044,6.1523,6.1493,6.0565,5.9877,5.8919,0.0,0.0,0.0,5.7363,5.7633,5.7932,5.8351,5.7782,5.7423,5.7423,5.7423,5.7214,5.6765,5.7423,5.7094,5.5807,5.5149,5.485,5.485,5.485,5.497,5.5179,5.5179,5.5059,5.485,5.485,5.47,5.4461,5.4461,5.4461,5.4431,5.4012,5.3832,5.3803,5.3563,5.3503,5.3294,5.2217,5.1858,5.1768,5.1349,5.1229,5.1229,5.1229,5.1229,5.1229,5.1229,5.1229,5.1109,5.0644,5.0242,4.9673,4.8805,4.8267,4.7818,4.7399,4.7309,4.7309,4.7309,4.7309,4.7309,4.7309,4.7309,4.7309,4.7309,4.7309,4.7309,4.7309,4.7309,4.7309,4.7309,4.7309,4.7578,4.8237,4.7668,4.7608,4.8267,4.7668,4.7309,4.7309,4.7309,4.7309,4.7309,4.7309,4.7309,4.7309,4.7309,4.7309,4.5121,4.6728,4.8271,4.9478,5.1178,5.2746,5.3746,5.5261,5.6308,5.5904,5.4968,5.4605,5.5866,5.5567,5.5748,5.7752,5.9757,6.1074,6.1164,6.2241,6.257,0.0,0.0,0.0,0.0,0.0,0.0,5.6218,0.0,5.7064,5.7094,5.6496,5.6218,5.6218,5.6218,5.6166,5.6188,5.6705,5.6406,5.5179,5.4551,5.4251,5.4251,5.4251,5.461,5.5179,5.5179,5.485,5.4251,5.4221,5.3832,5.3234,5.3204,5.3174,5.3174,5.3144,5.3144,5.3025,5.2366,5.2187,5.2097,5.1439,5.1229,5.1229,5.1229,5.1229,5.1229,5.1229,5.1229,5.1229,5.1229,5.1229,5.1199,5.1169,5.0212,4.9329,4.9269,4.8237,4.7339,4.7309,4.7309,4.7309,4.7309,4.7309,4.7309,4.7309,4.7309,4.7309,4.7309,4.7309,4.7309,4.7309,4.7309,4.7309,4.7309,4.7309,4.7578,4.8207,4.7638,4.7578,4.8207,4.7638,4.7309,4.7309,4.7309,4.7309,4.7309,4.7309,4.7309,4.7309,4.7309,4.7309,4.615,4.7606,4.8812,4.9749,5.1275,5.2675,5.3449,5.51,5.6043,5.4771,5.4004,5.3545,5.3419,5.3575,5.4491,5.6944,5.9039,0.0,6.1702,6.2121,0.0,6.1882,6.0805,5.9757,5.8949,5.7663,0.0,0.0,5.6316,5.6615,5.7064,5.6496,5.6218,5.6218,5.6218,5.5927,5.5448,5.5598,5.5508,5.5179,5.5029,5.494,5.494,5.494,5.5029,5.5179,5.5179,5.5089,5.491,5.4401,5.4102,5.3892,5.3384,5.3174,5.3114,5.2636,5.2456,5.2366,5.1708,5.1798,5.2097,5.1439,5.1229,5.1229,5.1229,5.1229,5.1229,5.1229,5.1229,5.1229,5.1229,5.1229,5.1079,5.0554,5.0196,4.9733,4.8745,4.8267,4.7908,4.7399,4.7309,4.7309,4.7309,4.7309,4.7309,4.7309,4.7309,4.7309,4.7309,4.7309,4.7309,4.7309,4.7309,4.7309,4.7309,4.7309,4.7369,4.7549,4.7399,4.7369,4.7549,4.7399,4.7309,4.7309,4.7309,4.7309,4.7309,4.7309,4.7309,4.7309,4.7309,4.7309,4.6728,4.8109,4.9277,4.99,5.0883,5.1799,5.235,5.3489,5.4071,5.3051,5.2201,5.1804,5.2159,5.2526,5.3623,5.6256,5.859,0.0,6.1104,6.1463,6.1553,0.0,6.0296,0.0,5.9129,5.8171,5.7274,0.0,5.6047,5.5897,5.6226,5.5927,5.5748,5.5748,5.5478,5.5119,5.476,5.4461,5.4461,5.476,5.4461,5.4461,5.476,5.476,5.491,5.5179,0.0,5.5029,5.47,5.4042,5.3593,5.3264,5.2576,5.2306,5.2276,5.1917,5.1768,5.1708,5.1349,5.1468,5.1708,5.1349,5.1229,5.1229,5.1229,5.1229,5.1229,5.1229,5.1229,5.1229,5.1229,5.1229,5.1139,5.0704,5.0405,4.9986,4.9314,4.8686,4.8087,4.7429,4.7309,4.7309,4.7309,4.7309,4.7309,4.7309,4.7309,4.7309,4.7309,4.7309,4.7309,4.7309,4.7309,4.7309,4.7309,4.7309,4.7309,4.7309,4.7309,4.7309,4.7309,4.7309,4.7309,4.7309,4.7309,4.7309,4.7309,4.7309,4.7309,4.7309,4.7309,4.7309,4.7079,4.8385,4.9654,4.9976,5.0232,5.0561,5.076,5.107,5.1207,5.0823,4.9921,4.9736,5.1303,5.1776,5.2815,5.5478,5.8022,5.9727,5.9817,6.0416,6.0595,5.9907,5.9308,5.8979,5.8979,5.8471,5.7872,5.7274,5.6047,5.5269,5.5179,5.5179,5.5149,5.5059,5.4491,5.4221,5.4221,5.3623,5.3623,5.4192,5.3683,5.3713,5.4221,5.4311,5.464,5.5179,5.5089,0.0,5.4162,5.3384,5.2725,5.2127,5.1468,5.1229,5.1229,5.1229,5.1229,5.1229,5.1229,5.1229,5.1229,5.1229,5.1169,5.1063,5.1199,5.1169,5.1109,5.1199,5.1229,5.1229,5.1229,5.1229,5.1229,5.1229,5.0734,5.0315,5.0226,4.9194,4.8117,4.7549,4.7369,4.7309,4.7309,4.7309,4.7309,4.7309,4.7309,4.7309,4.7309,4.7309,4.7309,4.7309,4.7309,4.7309,4.7309,4.7309,4.7309,4.7309,4.7309,4.7309,4.7309,4.7309,4.7309,4.7309,4.7309,4.7309,4.7309,4.7309,4.7309,4.7309,4.7309,4.7309,4.7631,4.8661,4.959,4.9654,4.9719,4.9659,4.9059,4.8833,4.8515,4.7756,4.7471,4.777,4.9136,5.0005,5.1391,5.4132,5.6286,5.7812,5.8381,5.9039,5.9219,0.0,5.8351,5.8291,5.8291,5.8201,0.0,0.0,5.6735,5.5777,5.5209,5.5179,5.494,5.4401,5.4281,5.4221,5.4221,5.4102,5.4102,5.4221,5.464,5.461,5.4221,5.476,5.5089,5.5149,5.461,0.0,5.4132,5.2875,5.2306,5.2127,5.1468,5.1229,5.1229,5.1229,5.1229,5.1229,5.1229,5.1229,5.1229,5.1229,5.0794,5.0465,5.1003,5.0794,5.0465,5.1033,5.1229,5.1229,5.1229,5.1229,5.1229,5.1229,5.1139,5.0853,5.0315,4.9194,4.8267,4.8147,4.7668,4.7309,4.7309,4.7309,4.7309,4.7309,4.7309,4.7309,4.7309,4.7309,4.7309,4.7309,4.7309,4.7309,4.7309,4.7309,4.7309,4.7309,4.7309,4.7309,4.7309,4.7309,4.7309,4.7309,4.7309,4.7309,4.7309,4.7309,4.7309,4.7309,4.7309,4.7309,4.7757,4.851,4.9163,4.9163,4.8937,4.8422,4.7405,4.6718,4.62,4.5795,4.5884,4.6434,4.7817,4.9262,5.0943,5.3294,5.5598,5.7214,5.7543,5.8171,5.8351,5.7663,5.7573,5.7723,5.8082,5.8441,5.8501,5.8141,5.7214,5.6376,5.5718,5.5059,5.4221,5.3204,5.3174,5.3324,5.3683,5.3324,5.3503,5.4221,5.4162,5.3982,5.3683,5.4012,5.4162,5.4132,5.3803,0.0,5.3593,5.2606,5.2187,5.2127,5.1468,5.1229,5.1229,5.1229,5.1229,5.1229,5.1229,5.1229,5.1229,5.1229,5.0734,5.0315,5.102,5.0704,5.0315,5.0973,5.1229,5.1229,5.1229,5.1229,5.1229,5.1229,5.1229,5.105,5.0345,4.9687,4.9105,4.8416,4.8027,4.7698,4.7369,4.7309,4.7309,4.7309,4.7309,4.7309,4.7309,4.7309,4.7309,4.7309,4.7309,4.7309,4.7309,4.7309,4.7309,4.7309,4.7309,4.7309,4.7309,4.7309,4.7309,4.7309,4.7309,4.7309,4.7309,4.7309,4.7309,4.7309,4.7309,4.7309,4.7631,4.8234,4.8711,4.8485,4.8083,4.7341,4.5792,4.4757,4.4167,4.4124,4.4529,4.5307,4.687,4.8563,5.0481,5.2426,5.473,5.6316,5.6466,5.7184,5.7453,5.6765,5.6915,0.0,5.7842,5.862,0.0,5.8381,5.7573,5.6705,5.5807,5.476,5.3593,5.2247,5.2336,5.2665,5.3174,5.2815,5.3174,5.4192,5.3653,5.3324,5.3174,5.3174,5.3174,5.3174,5.3025,0.0,0.0,5.2247,5.2007,5.1947,5.1409,5.1229,5.1229,5.1229,5.1229,5.1229,5.1229,5.1229,5.1229,5.1229,5.0734,5.0315,5.102,5.0704,5.0315,5.0973,5.1229,5.1229,5.1229,5.1229,5.1229,5.1229,5.1229,5.1079,5.0524,5.0285,4.9897,4.8895,4.8596,4.8327,4.7818,4.7608,4.7519,4.7519,4.7399,4.7309,4.7309,4.7309,4.7309,4.7309,4.7309,4.7309,4.7309,4.7309,4.7309,4.7309,4.7309,4.7369,4.7519,4.7369,4.7369,4.7519,4.7369,4.7369,4.7519,4.7369,4.7369,4.7519,4.7369,4.7309,4.7143,4.7983,4.8535,4.7531,4.7193,4.6627,4.45,4.3143,4.2417,4.2372,4.3062,4.416,4.5902,4.7444,4.9105,5.1079,5.2606,5.3743,5.4371,5.5568,5.6107,5.5448,0.0,0.0,5.7184,5.8351,5.9069,5.9009,5.7812,5.6316,5.4491,5.4281,5.3593,5.2247,5.2785,5.3114,5.3174,5.3743,5.4102,5.4221,5.4132,5.3773,5.3174,5.3174,5.3174,5.3144,5.2546,0.0,0.0,5.1588,5.1319,5.1319,5.1229,5.1229,5.1229,5.1229,5.1229,5.1229,5.1229,5.1229,5.1229,5.1229,5.0734,5.0315,5.102,5.0704,5.0315,5.0973,5.1229,5.1229,5.1229,5.1229,5.1229,5.1229,5.1229,5.1199,5.1139,5.0614,5.0166,5.0046,4.9583,4.9209,4.9149,4.8596,4.8207,4.8207,4.7698,4.7309,4.7309,4.7309,4.7309,4.7309,4.7309,4.7309,4.7309,4.7309,4.7309,4.7309,4.7309,4.7578,4.8177,4.7608,4.7578,4.8177,4.7608,4.7608,4.8207,4.7608,4.7608,4.8177,4.7578,4.7309,4.733,4.7908,4.8083,4.733,4.6627,4.5547,4.3313,4.1957,4.1193,4.1337,4.227,4.3471,4.479,4.6579,4.8298,4.9594,5.1374,5.2695,5.2965,5.4162,5.473,5.4072,5.479,0.0,0.0,0.0,5.7902,5.7902,5.7064,5.5867,5.4281,5.4221,5.3593,5.2247,5.2845,5.3384,5.3803,5.4072,5.4221,5.4221,5.4221,5.3653,5.2606,5.2606,5.2366,5.1977,5.1708,0.0,0.0,5.1319,5.1229,5.1229,5.1229,5.1229,5.1229,5.1229,5.1229,5.1229,5.1229,5.1229,5.1229,5.1229,5.1003,5.0823,5.1139,5.0704,5.0315,5.0973,5.1229,5.1229,5.1229,5.1229,5.1229,5.1229,5.1229,5.1229,5.1229,5.102,5.0674,5.0255,4.9986,4.9733,4.9389,4.909,4.8745,4.8356,4.8057,4.7758,4.7369,4.7309,4.7309,4.7309,4.7309,4.7309,4.7309,4.7309,4.7309,4.7309,4.7668,4.8027,4.8267,4.8416,4.864,4.891,4.8626,4.8626,4.891,4.8626,4.8626,4.891,4.864,4.8476,4.7029,4.7657,4.7707,4.6853,4.5924,4.4644,4.2409,4.1053,4.0357,4.072,4.1693,4.2792,4.3796,4.5608,4.7284,4.8249,5.0041,5.1468,5.1858,5.2905,5.3503,5.3204,0.0,5.4162,5.485,5.6047,5.6885,5.7094,5.6526,5.5598,5.4281,5.4401,5.3892,5.2546,5.3144,5.3713,5.4221,5.4221,5.4221,5.4221,5.3803,5.3114,5.2187,5.2007,5.1648,5.1229,5.1229,0.0,0.0,5.1229,5.1229,5.1229,5.1229,5.1229,5.1229,5.1229,5.1229,5.1229,5.1229,5.1229,5.1229,5.1229,5.1229,5.1229,5.1229,5.0853,5.0584,5.1079,5.1229,5.1229,5.1229,5.1229,5.1229,5.1229,5.1229,5.1229,5.1229,5.1229,5.1079,5.0584,5.0495,5.0391,4.9942,4.9673,4.9404,4.8925,4.8686,4.8416,4.7938,4.7878,4.7878,4.7878,4.7878,4.7728,4.7339,4.7489,4.7608,4.7608,4.8207,4.8656,4.8865,4.9105,4.9389,4.9553,4.9419,4.9419,4.9553,4.9419,4.9419,4.9553,4.9389,4.9419,4.6024,4.7104,4.7531,4.5899,4.507,4.4066,4.1802,4.0501,3.9852,4.0389,4.1095,4.1936,4.3006,4.4424,4.583,4.7027,4.8385,4.9763,5.105,5.1798,5.2456,0.0,5.3204,5.3473,5.4162,5.5418,5.6436,5.7064,5.6526,0.0,5.4281,5.482,5.4581,5.3204,5.3832,5.4192,5.4221,5.4221,5.4221,5.4192,5.2845,5.2217,5.2187,5.1528,5.1229,0.0,0.0,0.0,0.0,5.1229,5.1229,5.1229,5.1229,5.1229,5.1229,5.1229,5.1229,5.1229,5.1229,5.1229,5.1229,5.1229,5.1229,5.1229,5.1229,5.1229,5.1199,5.1229,5.1229,5.1229,5.1229,5.1229,5.1229,5.1229,5.1229,5.1229,5.1229,5.1229,5.1229,5.1199,5.1199,5.1199,5.1199,5.0614,5.0196,5.0166,4.9673,4.9299,4.9299,4.9299,4.9299,4.9299,4.9299,4.876,4.7429,4.7908,4.8267,4.8267,4.894,4.9553,5.0136,4.9613,4.9583,5.0166,4.9583,4.9583,5.0196,4.9583,4.9613,5.0166,4.9583,4.9613,4.4394,4.5579,4.6024,4.5121,4.4192,4.3112,4.1626,4.0199,3.9246,3.9601,3.9842,4.0237,4.1099,4.2362,4.3494,4.4394,4.6167,4.7807,4.8879,5.0478,0.0,5.1828,5.2636,5.3443,0.0,0.0,5.5777,5.6406,5.5867,5.5329,5.491,5.5089,5.479,5.3922,5.4521,5.467,5.4221,5.4221,5.3743,5.2845,5.2396,5.1977,5.1528,5.1319,5.1229,0.0,0.0,0.0,0.0,5.1229,5.1229,5.1229,5.1229,5.1229,5.1229,5.1229,5.1229,5.1229,5.1229,5.1229,5.1229,5.1229,5.1229,5.1229,5.1229,5.1229,5.1229,5.1229,5.1229,5.1229,5.1229,5.1229,5.1229,5.1229,5.1229,5.1229,5.1229,5.1229,5.1229,5.1229,5.1229,5.1229,5.1229,5.1003,5.0704,5.0255,5.0016,4.9763,4.9359,4.9299,4.9299,4.9299,4.9299,4.9149,4.8686,4.888,4.9,4.9,4.9553,5.0032,5.0196,5.0481,5.069,5.09,5.072,5.069,5.0853,5.069,5.072,5.09,5.069,5.072,4.2436,4.3978,4.4719,4.4141,4.3338,4.2333,4.1003,3.9747,3.8869,3.8793,3.8785,3.8968,3.9664,4.0722,4.1781,4.262,4.434,4.6109,4.7629,4.9371,5.075,5.1498,5.2546,0.0,0.0,5.4581,5.5089,5.5748,5.5418,0.0,5.485,5.5059,5.4999,5.4581,5.473,5.461,5.4221,5.3713,5.3025,5.2187,5.1947,5.1618,5.1229,5.1229,5.1229,0.0,0.0,0.0,0.0,5.1229,5.1229,5.1229,5.1229,5.1229,5.1229,5.1229,5.1229,5.1229,5.1229,5.1229,5.1229,5.1229,5.1229,5.1229,5.1229,5.1229,5.1229,5.1229,5.1229,5.1229,5.1229,5.1229,5.1229,5.1229,5.1229,5.1229,5.1229,5.1229,5.1229,5.1229,5.1229,5.1229,5.1229,5.1229,5.1079,5.0614,5.0554,5.0451,5.0062,5.0002,5.0002,5.0002,5.0002,5.0002,5.0002,4.9763,4.9643,4.9643,5.0242,5.0554,5.0554,5.099,5.1229,5.1229,5.1229,5.1229,5.1229,5.1229,5.1229,5.1229,5.1229,5.1229,0.0,4.2264,4.3463,4.3062,4.2539,4.1634,4.0099,3.922,0.0,3.8065,3.7914,3.8037,3.8574,3.9485,4.0521,4.159,4.2934,4.4749,4.7228,4.873,5.0182,5.2127,5.2875,0.0,5.4162,5.4251,5.4521,5.5089,5.5149,0.0,5.4251,5.485,5.5179,5.5179,5.4491,5.4132,5.4132,5.2845,5.2187,5.2127,5.1498,5.1229,5.1229,5.1229,5.1229,0.0,0.0,0.0,0.0,5.1229,5.1229,5.1229,5.1229,5.1229,5.1229,5.1229,5.1229,5.1229,5.1229,5.1229,5.1229,5.1229,5.1229,5.1229,5.1229,5.1229,5.1229,5.1229,5.1229,5.1229,5.1229,5.1229,5.1229,5.1229,5.1229,5.1229,5.1229,5.1229,5.1229,5.1229,5.1229,5.1229,5.1229,5.1229,5.1229,5.1229,5.1229,5.1229,5.1229,5.1229,5.1229,5.1229,5.1229,5.1229,5.1229,5.0614,5.0255,5.0255,5.087,5.1229,5.1229,5.1229,5.1229,5.1229,5.1229,5.1229,5.1229,5.1229,5.1229,5.1229,5.1229,5.1229,3.7036,0.0,4.1555,4.2685,4.1605,4.0275,0.0,3.8894,3.7538,3.7412,3.7036,3.6925,3.7398,3.8306,3.9374,4.09,4.2706,4.4807,4.7287,4.9846,5.2067,5.3563,5.3862,5.4042,5.4192,5.467,5.482,5.4461,5.491,5.491,5.4251,5.485,5.5179,5.5179,5.4042,5.3414,5.3414,5.2606,5.1947,5.1439,5.1289,5.1229,5.1229,5.1229,5.1229,0.0,0.0,0.0,5.1229,5.1229,5.1229,5.1229,5.1229,5.1229,5.1229,5.1229,5.1229,5.1229,5.1229,5.1229,5.1229,5.1229,5.1229,5.1229,5.1229,5.1229,5.1229,5.1229,5.1229,5.1229,5.1229,5.1229,5.1229,5.1229,5.1229,5.1229,5.1229,5.1229,5.1229,5.1229,5.1229,5.1229,5.1229,5.1229,5.1229,5.1229,5.1229,5.1229,5.1229,5.1229,5.1229,5.1229,5.1229,5.1229,5.1229,5.1079,5.0943,5.0943,5.1139,5.1229,5.1229,5.1229,5.1229,5.1229,5.1229,5.1229,5.1229,5.1229,5.1229,5.1229,5.1229,5.1229,3.6279,3.8278,4.0049,4.1178,4.0375,3.932,3.9346,3.8241,3.7111,3.6908,3.6606,3.6546,3.7015,3.7841,3.9024,4.0652,4.2365,4.466,4.7911,5.0581,5.2695,5.4042,5.4221,5.4221,0.0,5.4521,5.4341,5.3354,5.4192,5.4461,5.3773,5.467,5.5179,5.5179,5.3892,5.3174,5.3174,5.2217,5.1558,5.1229,5.1229,5.1229,5.1229,5.1229,5.1229,0.0,0.0,0.0,5.1229,5.1229,5.1229,5.1229,5.1229,5.1229,5.1229,5.1229,5.1229,5.1229,5.1229,5.1229,5.1229,5.1229,5.1229,5.1229,5.1229,5.1229,5.1229,5.1229,5.1229,5.1229,5.1229,5.1229,5.1229,5.1229,5.1229,5.1229,5.1229,5.1229,5.1229,5.1229,5.1229,5.1229,5.1229,5.1229,5.1229,5.1229,5.1229,5.1229,5.1229,5.1229,5.1229,5.1229,5.1229,5.1229,5.1229,5.1229,5.1229,5.1229,5.1229,5.1229,5.1229,5.1229,5.1229,5.1229,5.1229,5.1229,5.1229,5.1229,5.1229,5.1229,5.1229,5.1229,3.6446,3.7958,3.8919,3.9747,3.9396,3.8768,3.8366,3.7764,3.7186,3.6757,3.6581,3.6698,3.7271,3.8096,3.9258,4.1038,4.2822,4.5302,4.9044,5.1169,5.2815,5.4072,5.4311,0.0,5.4371,5.4371,5.3832,5.2606,0.0,5.4072,5.3384,5.4431,5.5029,5.5029,5.3743,5.3025,5.3025,5.1828,5.1229,5.1229,5.1229,5.1229,5.1229,5.1229,5.1229,5.1229,0.0,0.0,5.1229,5.1229,5.1229,5.1229,5.1229,5.1229,5.1229,5.1229,5.1229,5.1229,5.1229,5.1229,5.1229,5.1229,5.1229,5.1229,5.1229,5.1229,5.1229,5.1229,5.1229,5.1229,5.1229,5.1229,5.1229,5.1229,5.1229,5.1229,5.1229,5.1229,5.1229,5.1229,5.1229,5.1229,5.1229,5.1229,5.1229,5.1229,5.1229,5.1229,5.1229,5.1229,5.1229,5.1229,5.1229,5.1229,5.1229,5.1229,5.1229,5.1229,5.1229,5.1229,5.1229,5.1229,5.1229,5.1229,5.1229,5.1229,5.1229,5.1229,5.1229,5.1229,5.1229,5.1229,3.5992,3.7367,3.8617,4.0601,3.9973,3.8969,3.9346,3.8642,3.7864,3.7764,3.7387,3.7404,3.8344,3.8961,4.0218,4.2849,4.6228,4.9107,5.0687,5.2127,5.3324,5.4132,0.0,5.5029,5.5029,5.5029,5.473,5.3952,0.0,5.476,5.4072,5.4251,5.4371,5.4371,5.3054,5.2336,5.2336,5.1588,5.1229,5.1229,5.1229,5.1229,5.1229,5.1229,5.1229,5.1229,0.0,5.1229,5.1229,5.1229,5.1229,5.1229,5.1229,5.1229,5.1229,5.1229,5.1229,5.1229,5.1229,5.1229,5.1229,5.1229,5.1229,5.1229,5.1229,5.1229,5.1229,5.1229,5.1229,5.1229,5.1229,5.1229,5.1229,5.1229,5.1229,5.1229,5.1229,5.1229,5.1229,5.1229,5.1229,5.1229,5.1229,5.1229,5.1229,5.1229,5.1229,5.1229,5.1229,5.1229,5.1229,5.1229,5.1229,5.1229,5.1229,5.1229,5.1229,5.1229,5.1229,5.1229,5.1229,5.1229,5.1229,5.1229,5.1229,5.1229,5.1229,5.1229,5.1229,5.1229,5.1229,5.1229,3.5408,3.7144,3.8718,3.9747,3.9647,3.9471,4.0023,3.927,3.8467,3.8467,3.7789,3.7556,3.86,3.9359,4.1098,4.4724,4.7666,4.9893,5.1046,5.2037,5.3025,0.0,0.0,5.467,5.467,5.467,5.4371,0.0,0.0,0.0,5.4221,5.4221,5.4221,5.4221,5.2905,5.2187,5.2187,5.1558,5.1229,5.1229,5.1229,5.1229,5.1229,5.1229,5.1229,5.1229,0.0,5.1229,5.1229,5.1229,5.1229,5.1229,5.1229,5.1229,5.1229,5.1229,5.1229,5.1229,5.1229,5.1229,5.1229,5.1229,5.1229,5.1229,5.1229,5.1229,5.1229,5.1229,5.1229,5.1229,5.1229,5.1229,5.1229,5.1229,5.1229,5.1229,5.1229,5.1229,5.1229,5.1229,5.1229,5.1229,5.1229,5.1229,5.1229,5.1229,5.1229,5.1229,5.1229,5.1229,5.1229,5.1229,5.1229,5.1229,5.1229,5.1229,5.1229,5.1229,5.1229,5.1229,5.1229,5.1229,5.1229,5.1229,5.1229,5.1229,5.1229,5.1229,5.1229,5.1229,5.1229,5.1229,3.5088,3.6945,3.8617,3.8969,3.9371,3.9848,4.04,3.9873,3.9295,3.9421,3.8567,3.8087,3.9213,4.0544,4.2657,4.6368,4.8524,5.0129,5.1255,5.2007,5.2875,5.4072,5.4341,5.4431,5.4431,5.4431,5.4221,0.0,0.0,0.0,5.4221,5.3922,5.3743,5.3743,5.2576,5.1977,5.1977,5.1468,5.1229,5.1229,5.1229,5.1229,5.1229,5.1229,5.1229,5.1229,5.1229,5.1229,5.1229,5.1229,5.1229,5.1229,5.1229,5.1229,5.1229,5.1229,5.1229,5.1229,5.1229,5.1229,5.1229,5.1229,5.1229,5.1229,5.1229,5.1229,5.1229,5.1229,5.1229,5.1229,5.1229,5.1229,5.1229,5.1229,5.1229,5.1229,5.1229,5.1229,5.1229,5.1229,5.1229,5.1229,5.1229,5.1229,5.1229,5.1229,5.1229,5.1229,5.1229,5.1229,5.1229,5.1229,5.1229,5.1229,5.1229,5.1229,5.1229,5.1229,5.1229,5.1229,5.1229,5.1229,5.1229,5.1229,5.1229,5.1229,5.1229,5.1379,5.1439,5.1439,5.1618,5.1588,3.5443,3.6676,3.7688,3.9245,3.9672,3.9848,4.04,4.045,4.0551,4.1,4.0275,3.9826,4.09,4.3309,4.5699,4.7449,4.9245,5.084,5.1989,0.0,5.3384,5.4132,5.476,5.5119,5.5119,5.5119,0.0,0.0,0.0,0.0,5.4221,5.3025,5.2336,5.2336,5.1648,5.1289,5.1289,5.1229,5.1229,5.1229,5.1229,5.1229,5.1229,5.1229,5.1229,5.1229,5.1229,5.1229,5.1229,5.1229,5.1229,5.1229,5.1229,5.1229,5.1229,5.1229,5.1229,5.1229,5.1229,5.1229,5.1229,5.1229,5.1229,5.1229,5.1229,5.1229,5.1229,5.1229,5.1229,5.1229,5.1229,5.1229,5.1229,5.1229,5.1229,5.1229,5.1229,5.1229,5.1229,5.1229,5.1229,5.1229,5.1229,5.1229,5.1229,5.1229,5.1229,5.1229,5.1229,5.1229,5.1229,5.1229,5.1229,5.1229,5.1229,5.1229,5.1229,5.1229,5.1229,5.1229,5.1229,5.1229,5.1229,5.1229,5.1229,5.1229,5.1229,5.1828,5.2127,5.2127,5.2755,5.2725,3.4097,3.5978,3.7742,3.7842,3.8542,3.9421,4.03,4.0526,4.0676,4.1175,4.0727,4.0513,4.1511,4.3436,4.5476,4.7402,4.8905,5.0573,5.2557,5.3025,5.3593,5.47,5.5029,5.5179,5.5179,5.5179,0.0,0.0,0.0,0.0,5.4221,5.2935,5.2187,5.2187,5.1558,5.1229,5.1229,5.1229,5.1229,5.1229,5.1229,5.1229,5.1229,5.1229,5.1229,5.1229,5.1229,5.1229,5.1229,5.1229,5.1229,5.1229,5.1229,5.1229,5.1229,5.1229,5.1229,5.1229,5.1229,5.1229,5.1229,5.1229,5.1229,5.1229,5.1229,5.1229,5.1229,5.1229,5.1229,5.1229,5.1229,5.1229,5.1229,5.1229,5.1229,5.1229,5.1229,5.1229,5.1229,5.1229,5.1229,5.1229,5.1229,5.1229,5.1349,5.1768,5.1828,5.1977,5.2396,5.2067,5.1828,5.1828,5.1468,5.1229,5.1229,5.1229,5.1229,5.1229,5.1229,5.1229,5.1229,5.1229,5.1229,5.1229,5.1229,5.1409,5.1828,5.2067,5.2396,5.2815,5.3054,5.3054,3.3113,3.492,3.6749,3.6677,3.7393,3.8466,3.9697,4.04,4.0978,4.1706,4.1619,4.1619,4.2289,4.3873,4.5689,0.0,4.8887,5.0372,5.2587,5.2875,5.3294,5.4431,5.4551,5.4551,5.4551,0.0,0.0,0.0,0.0,0.0,0.0,5.2516,5.1887,5.1887,5.1439,5.1229,5.1229,5.1229,5.1229,5.1229,5.1229,5.1229,5.1229,5.1229,5.1229,5.1229,5.1229,5.1229,5.1229,5.1229,5.1229,5.1229,5.1229,5.1229,5.1229,5.1229,5.1229,5.1229,5.1229,5.1229,5.1229,5.1229,5.1229,5.1229,5.1229,5.1229,5.1229,5.1229,5.1229,5.1229,5.1229,5.1229,5.1229,5.1229,5.1229,5.1229,5.1229,5.1229,5.1229,5.1229,5.1229,5.1229,5.1229,5.1379,5.1678,5.2127,5.2366,5.2665,5.3114,5.2606,5.2127,5.1917,5.1498,5.1229,5.1229,5.1229,5.1229,5.1229,5.1229,5.1229,5.1229,5.1409,5.1528,5.1528,5.1738,5.2067,5.2516,5.2725,5.3054,5.3503,5.3713,5.3713,3.2752,3.3598,3.4414,3.6015,3.6424,3.6857,3.8542,4.0149,4.1601,4.276,4.3223,4.3441,4.3606,4.5016,0.0,4.8282,4.9288,5.0441,5.1959,5.2187,5.2456,5.3114,5.3174,5.3174,5.3174,0.0,0.0,0.0,0.0,0.0,0.0,5.1558,5.1229,5.1229,5.1229,5.1229,5.1229,5.1229,5.1229,5.1229,5.1229,5.1229,5.1229,5.1229,5.1229,5.1229,5.1229,5.1229,5.1229,5.1229,5.1229,5.1229,5.1229,5.1229,5.1229,5.1229,5.1229,5.1229,5.1229,5.1229,5.1229,5.1229,5.1229,5.1229,5.1229,5.1229,5.1229,5.1229,5.1229,5.1229,5.1229,5.1229,5.1229,5.1229,5.1229,5.1229,5.1229,5.1229,5.1229,5.1229,5.1229,5.1229,5.1229,5.1768,5.2187,5.2217,5.2785,5.3204,5.3204,5.2606,5.1977,5.1319,5.1229,5.1229,5.1229,5.1229,5.1229,5.1229,5.1229,5.1229,5.1229,5.1858,5.2187,5.2217,5.2845,5.3174,5.3204,5.3892,5.4221,5.4251,5.488,5.485,3.1826,3.3302,3.4813,3.5867,3.68,3.7965,3.9647,4.04,4.1304,4.3162,4.3614,4.3835,4.4443,4.5783,0.0,4.8178,4.9312,5.0598,5.2007,5.2187,5.2456,5.3114,5.3174,5.3174,0.0,0.0,0.0,0.0,0.0,0.0,0.0,5.1558,5.1229,5.1229,5.1229,5.1229,5.1229,5.1229,5.1229,5.1229,5.1229,5.1229,5.1229,5.1229,5.1229,5.1229,5.1229,5.1229,5.1229,5.1229,5.1229,5.1229,5.1229,5.1229,5.1229,5.1229,5.1229,5.1229,5.1229,5.1229,5.1229,5.1229,5.1229,5.1229,5.1229,5.1229,5.1229,5.1229,5.1229,5.1229,5.1229,5.1229,5.1229,5.1229,5.1229,5.1229,5.1229,5.1229,5.1229,5.1229,5.1229,5.1379,5.1828,5.2067,5.2516,5.3473,5.3773,5.3892,5.3892,5.3743,5.3354,5.2665,5.2606,5.2606,5.2606,5.2606,5.2606,5.2606,5.2606,5.2396,5.1917,5.2097,5.2426,5.2875,5.3084,5.3414,5.3892,5.4102,5.4431,5.491,5.5089,5.5089,3.1227,3.2808,3.4527,3.6074,3.7443,3.8843,4.0727,4.1329,4.1882,0.0,4.3742,4.4256,4.499,4.616,0.0,4.8561,4.9505,5.0461,5.1631,5.1798,5.1947,5.2366,5.2396,5.2396,0.0,0.0,0.0,0.0,0.0,0.0,0.0,5.1439,5.1229,5.1229,5.1229,5.1229,5.1229,5.1229,5.1229,5.1229,5.1229,5.1229,5.1229,5.1229,5.1229,5.1229,5.1229,5.1229,5.1229,5.1229,5.1229,5.1229,5.1229,5.1229,5.1229,5.1229,5.1229,5.1229,5.1229,5.1229,5.1229,5.1229,5.1229,5.1229,5.1229,5.1229,5.1229,5.1229,5.1229,5.1229,5.1229,5.1229,5.1229,5.1229,5.1229,5.1229,5.1229,5.1229,5.1229,5.1229,5.1229,5.1349,5.1738,5.2247,5.2875,5.3683,5.4251,5.4491,5.4251,5.4221,5.3952,5.3264,5.3174,5.3174,5.3174,5.3174,5.3174,5.3174,5.3174,5.3114,5.2995,5.2995,5.3174,5.3593,5.3862,5.4192,5.461,5.461,5.479,5.5179,5.5179,5.5179,3.0948,3.2362,3.3985,3.6558,3.8177,3.9673,4.1685,4.2564,4.2936,4.3037,0.0,4.4457,4.5123,4.6197,4.7525,4.9139,4.9698,5.0216,5.1092,5.1229,5.1229,5.1229,5.1229,0.0,0.0,0.0,0.0,0.0,0.0,0.0,0.0,5.1229,5.1229,5.1229,5.1229,5.1229,5.1229,5.1229,5.1229,5.1229,5.1229,5.1229,5.1229,5.1229,5.1229,5.1229,5.1229,5.1229,5.1229,5.1229,5.1229,5.1229,5.1229,5.1229,5.1229,5.1229,5.1229,5.1229,5.1229,5.1229,5.1229,5.1229,5.1229,5.1229,5.1229,5.1229,5.1229,5.1229,5.1229,5.1229,5.1229,5.1229,5.1229,5.1229,5.1229,5.1229,5.1229,5.1229,5.1229,5.1229,5.1229,5.1229,5.1289,5.2306,5.3144,5.3264,5.4371,5.497,5.4371,5.4311,5.4072,5.3443,5.3354,5.3354,5.3354,5.3354,5.3354,5.3354,5.3354,5.3653,5.4281,5.4251,5.4251,5.4311,5.488,5.5179,5.5179,5.5179,5.5179,5.5179,5.5179,5.5179,3.0684,3.2796,3.4935,3.702,3.9149,4.0927,4.1404,4.1932,4.264,4.3438,4.3792,4.4206,4.4836,4.6,4.7174,4.8326,4.9328,5.0265,5.1105,5.1229,5.1229,5.1229,5.1229,0.0,0.0,0.0,0.0,0.0,0.0,0.0,5.1229,5.1229,5.1229,5.1229,5.1229,5.1229,5.1229,5.1229,5.1229,0.0,5.1229,5.1229,5.1229,5.1229,5.1229,5.1229,5.1229,5.1229,5.1229,5.1229,5.1229,5.1229,5.1229,5.1229,5.1229,5.1229,5.1229,5.1229,5.1229,5.1229,5.1229,5.1229,5.1229,5.1229,5.1229,5.1229,5.1229,5.1229,5.1229,5.1229,5.1229,5.1229,5.1229,5.1229,5.1229,5.1229,5.1229,5.1229,5.1229,5.1229,5.1229,5.1379,5.1887,5.2217,5.2785,5.3832,5.467,5.5149,5.4999,5.497,5.491,5.479,5.476,5.476,5.476,5.476,5.476,5.476,5.476,5.482,5.497,5.4491,5.4461,5.497,5.5119,5.5179,5.5179,5.5179,5.5179,5.5179,5.5179,5.5179,3.0808,3.3175,3.5753,3.9019,0.0,4.1351,4.1681,4.153,4.1681,4.2785,4.3376,4.3848,4.4507,4.5449,4.655,4.7694,4.8792,4.9786,5.071,5.0947,5.1058,5.1182,0.0,0.0,0.0,0.0,0.0,0.0,0.0,5.1229,5.1229,5.1229,5.1229,5.1229,5.1229,5.1229,5.1229,5.1058,5.0964,5.0852,5.0852,5.0899,5.1011,5.1105,5.1229,5.1229,5.1229,5.1229,5.1229,5.1229,5.1229,5.1229,5.1229,5.1229,5.1229,5.1229,5.1229,5.1229,5.1229,5.1229,5.1229,5.1229,5.1229,5.1229,5.1229,5.1229,5.1229,5.1229,5.1229,5.1229,5.1229,5.1229,5.1229,5.1229,5.1229,5.1229,5.1229,5.1229,5.1229,5.1229,5.1229,5.1319,5.1678,5.2247,5.3114,5.4491,5.497,5.5179,5.5179,5.5179,5.5179,5.5179,5.5179,5.5179,5.5179,5.5179,5.5179,5.5179,5.5179,5.5179,5.5179,5.485,5.485,5.5179,5.5179,5.5179,5.5179,5.5179,5.5179,5.5179,5.5179,5.5179,3.0772,3.3518,3.6688,4.1101,4.1773,0.0,4.1932,4.1304,4.0927,4.1831,4.2654,4.339,4.3987,4.467,4.5688,4.7023,4.7943,4.8972,5.0183,5.0614,5.087,0.0,0.0,0.0,0.0,0.0,0.0,0.0,0.0,5.1229,5.1229,5.1229,5.1229,5.1229,5.1229,5.1229,5.1229,5.0917,5.0585,5.0327,5.0327,5.0519,5.0775,5.1058,5.1229,5.1229,5.1229,5.1229,5.1229,5.1229,5.1229,5.1229,5.1229,5.1229,5.1229,5.1229,5.1229,5.1229,5.1229,5.1229,5.1229,5.1229,5.1229,5.1229,5.1229,5.1229,5.1229,5.1229,5.1229,5.1229,5.1229,5.1229,5.1229,5.1229,5.1229,5.1229,5.1229,5.1229,5.1229,5.1229,5.1319,5.1379,5.1379,5.2486,5.3743,5.485,5.5119,5.5179,5.5179,5.5179,5.5179,5.5179,5.5179,5.5179,5.5179,5.5179,5.5179,5.5179,5.5179,5.5179,5.5179,5.5179,5.5179,5.5179,5.5179,5.5179,5.5179,5.5179,5.5179,5.5179,5.5179,5.5179,2.9942,0.0,3.8208,0.0,4.188,4.1604,0.0,0.0,4.1225,0.0,4.1936,4.2519,4.3053,4.3708,4.4505,4.5608,4.6712,4.7971,4.9464,5.0202,5.071,0.0,0.0,0.0,0.0,0.0,0.0,0.0,5.1229,5.1229,5.1229,5.1229,5.1229,5.1229,5.1229,5.1229,5.1229,5.0757,5.0279,4.9737,4.9737,5.0009,5.0548,5.0994,5.1229,5.1229,5.1229,5.1229,5.1229,5.1229,5.1229,5.1229,5.1229,5.1229,5.1229,5.1229,5.1229,5.1229,5.1229,5.1229,5.1229,5.1229,5.1229,5.1229,5.1229,5.1229,5.1229,5.1229,5.1229,5.1229,5.1229,5.1229,5.1229,5.1229,5.1229,5.1229,5.1229,5.1229,5.1229,5.1229,5.1678,5.2067,5.2067,5.3174,5.4132,5.4311,5.482,5.5179,5.5179,5.5179,5.5179,5.5179,5.5179,5.5179,5.5179,5.5179,5.5179,5.5179,5.5179,5.5179,5.5179,5.5179,5.5179,5.5179,5.5179,5.5179,5.5179,5.5179,5.5179,5.5179,5.5179,5.5179,3.0458,3.3888,3.7371,0.0,4.1062,4.1238,4.1293,4.105,4.0924,4.1225,4.153,4.1957,4.2811,4.3376,4.3903,4.4912,4.5741,4.6816,4.8474,4.917,0.0,0.0,0.0,0.0,0.0,0.0,0.0,0.0,5.1229,5.1229,5.1229,5.1229,5.1229,5.1229,5.1229,5.1229,5.1229,5.071,5.0086,4.9227,4.9227,4.9326,4.96,5.0105,5.068,5.1229,5.1229,5.1229,5.1229,5.1229,5.1229,5.1229,5.1229,5.1229,5.1229,5.1229,5.1229,5.1229,5.1229,5.1229,5.1229,5.1229,5.1229,5.1229,5.1229,5.1229,5.1229,5.1229,5.1229,5.1229,5.1229,5.1229,5.1229,5.1229,5.1498,5.1768,5.1768,5.1468,5.1229,5.1229,5.1738,5.2306,5.2695,5.3563,5.4341,5.47,5.4999,5.5179,5.5179,5.5179,5.5179,5.5179,5.5179,5.5179,5.5179,5.5179,5.5179,5.5179,5.5179,5.5179,5.5179,5.5179,5.5179,5.5179,5.5179,5.5179,5.5179,5.5179,5.5179,5.5179,5.5179,5.5179,0.0,0.0,3.5614,3.847,3.9642,4.0214,0.0,0.0,4.057,0.0,4.1275,4.1681,4.2785,4.3129,4.3517,4.4232,4.4832,4.5714,4.7177,4.7943,0.0,0.0,0.0,0.0,0.0,0.0,0.0,0.0,5.1229,5.1229,5.1229,5.1229,5.1229,5.1229,5.1229,5.1229,5.1229,5.0567,4.9795,4.8909,4.8681,4.8581,4.8581,4.9001,4.964,5.0508,5.087,5.1041,5.1105,5.1182,5.1229,5.1229,5.1229,5.1229,5.1229,5.1229,5.1229,5.1229,5.1229,5.1229,5.1229,5.1229,5.1229,5.1229,5.1229,5.1229,5.1229,5.1229,5.1229,5.1229,5.1229,5.1229,5.1229,5.1229,5.1708,5.2247,5.2426,5.2067,5.1708,5.1708,5.2247,5.2875,5.3354,5.4012,5.461,5.5119,5.5179,5.5179,5.5179,5.5179,5.5179,5.5179,5.5179,5.5179,5.5179,5.5179,5.5179,5.5179,5.5179,5.5179,5.5179,5.5179,5.5179,5.5179,5.5179,5.5179,5.5179,5.5179,5.5179,5.5179,5.5179,5.5179,0.0,3.1515,0.0,3.6138,3.7478,3.8411,0.0,0.0,4.0333,4.1121,4.1275,4.1681,4.2785,4.3042,4.3129,4.3406,4.3987,4.467,4.5502,0.0,0.0,0.0,0.0,0.0,0.0,0.0,0.0,0.0,5.1229,5.1229,5.1229,5.1229,5.1229,5.1229,5.1229,5.1229,5.1229,5.0172,4.9395,4.8909,4.8072,4.7689,4.7666,4.7689,4.8016,4.8646,4.996,5.0662,5.087,5.1105,5.1229,5.1229,5.1229,5.1229,5.1229,5.1229,5.1229,5.1229,5.1229,5.1229,5.1229,5.1229,5.1229,5.1229,5.1229,5.1229,5.1229,5.1229,5.1229,5.1229,5.1229,5.1229,5.1229,5.1229,5.1708,5.2366,5.2995,5.3114,5.3084,5.3084,5.3623,5.4132,5.4162,5.47,5.5149,5.5179,5.5179,5.5179,5.5179,5.5179,5.5179,5.5179,5.5179,5.5179,5.5179,5.5179,5.5179,5.5179,5.5179,5.5179,5.5179,5.5179,5.5179,5.5179,5.5179,5.5179,5.5179,5.5179,5.5179,5.5179,5.5179,5.5179,0.0,0.0,0.0,3.237,3.4285,3.6087,3.7604,3.8526,3.9488,4.0993,4.1275,4.1681,4.2785,4.2986,4.3073,4.3351,4.3547,4.4042,4.4858,0.0,0.0,0.0,0.0,0.0,0.0,0.0,0.0,0.0,0.0,5.1229,5.1229,5.1229,5.1229,5.1229,5.1229,5.1105,5.0964,5.025,4.9473,4.8631,4.7768,4.705,4.6558,4.6558,4.6843,4.7434,4.8424,4.9571,5.0662,5.1041,5.1229,5.1229,5.1229,5.1229,5.1229,5.1229,5.1229,5.1229,5.1229,5.1229,5.1229,5.1229,5.1229,5.1229,5.1229,5.1229,5.1319,5.1738,5.1858,5.1947,5.2366,5.2157,5.1947,5.2366,5.2995,5.3683,5.4341,5.3803,5.3174,5.3174,5.3743,5.4221,5.4221,5.476,5.5179,5.5179,5.5179,5.5179,5.5179,5.5179,5.5179,5.5179,5.5179,5.5179,5.5179,5.5179,5.5179,5.5179,5.5179,5.5179,5.5179,5.5179,5.5179,5.5179,5.5179,5.5179,5.5179,5.5179,5.5179,5.5179,5.5179,5.5179,2.5859,0.0,0.0,0.0,0.0,3.3665,3.545,0.0,3.8319,4.0099,4.0864,4.1497,4.2534,4.2861,4.3073,4.324,4.3295,4.3462,0.0,0.0,0.0,0.0,0.0,0.0,0.0,0.0,0.0,0.0,0.0,0.0,5.1229,5.1229,5.1229,5.1229,5.1229,5.1058,5.0793,5.0489,4.9766,4.8631,4.7564,4.6583,4.5688,4.5315,4.5449,4.6006,4.6919,4.8374,5.0135,5.0614,5.0917,5.1058,5.1058,5.1105,5.1229,5.1229,5.1229,5.1229,5.1229,5.1229,5.1229,5.1229,5.1229,5.1229,5.1229,5.1229,5.1349,5.2007,5.2187,5.2336,5.3025,5.2845,5.2636,5.3084,5.3713,5.4401,5.5059,5.4491,5.3862,5.3862,5.4221,5.4551,5.4551,5.491,5.5179,5.5179,5.5179,5.5179,5.5179,5.5179,5.5179,5.5179,5.5179,5.5179,5.5179,5.5179,5.5179,5.5179,5.5179,5.5179,5.5179,5.5179,5.5179,5.5179,5.5179,5.5179,5.5179,5.5179,5.5179,5.5179,5.5179,5.5179,0.0,0.0,0.0,0.0,0.0,0.0,3.3141,0.0,3.6759,3.8512,3.9943,4.1155,4.2057,4.2665,4.2986,4.2986,4.2986,4.2986,0.0,0.0,0.0,0.0,0.0,0.0,0.0,0.0,0.0,0.0,5.1182,5.1182,5.1229,5.1229,5.1229,5.1229,5.1182,5.1058,5.0793,5.0775,5.0154,4.8831,4.7383,4.6084,4.5046,4.3878,4.3713,4.437,4.5395,4.7126,4.9248,4.9815,5.0346,5.0775,5.0793,5.0964,5.1182,5.1229,5.1229,5.1229,5.1229,5.1229,5.1229,5.1229,5.1229,5.1229,5.1229,5.1259,5.1379,5.2067,5.2247,5.2396,5.3054,5.3234,5.3234,5.3204,5.3743,5.4431,5.5059,5.5179,5.5179,5.5179,5.5179,5.5179,5.5179,5.5179,5.5179,5.5179,5.5179,5.5179,5.5179,5.5179,5.5179,5.5179,5.5179,5.5179,5.5179,5.5179,5.5179,5.5179,5.5179,5.5179,5.5179,5.5179,5.5179,5.5179,5.5179,5.5179,5.5179,5.5179,5.5179,5.5179,5.5179,5.5179,2.4512,0.0,0.0,0.0,0.0,0.0,0.0,0.0,0.0,3.7236,3.9006,4.0467,4.1927,4.2665,4.2986,4.2986,4.2986,4.2986,0.0,0.0,0.0,0.0,0.0,0.0,0.0,0.0,0.0,0.0,5.0852,5.1011,5.1182,5.1229,5.1229,5.1229,5.1011,5.0822,5.0567,5.0009,4.9149,4.792,4.6503,4.5369,4.4531,4.3738,4.3628,4.4039,4.4912,4.59,4.705,4.8774,4.9688,5.0057,5.0585,5.087,5.0917,5.1105,5.1229,5.1229,5.1229,5.1229,5.1229,5.1229,5.1229,5.1319,5.1798,5.1917,5.2157,5.3324,5.3653,5.3683,5.3892,5.4281,5.4521,5.4042,5.4431,5.497,5.5149,5.5179,5.5179,5.5179,5.5179,5.5179,5.5179,5.5179,5.5179,5.5179,5.5179,5.5179,5.5179,5.5179,5.5179,5.5179,5.5179,5.5179,5.5179,5.5179,5.5179,5.5179,5.5179,5.5179,5.5179,5.5179,5.5179,5.5179,5.5179,5.5179,5.5179,5.5179,5.5179,5.5179,5.5179,5.5179,2.4082,2.3984,0.0,0.0,0.0,0.0,2.832,3.0383,0.0,0.0,3.7204,3.8949,4.0227,4.1189,4.1848,4.1957,4.2133,4.2459,0.0,0.0,0.0,0.0,0.0,0.0,0.0,4.7383,4.8496,4.9834,5.0268,5.068,5.1182,5.1229,5.1152,5.1058,5.087,5.0537,4.999,4.9297,4.8324,4.7102,4.5767,4.4804,4.4094,4.3517,4.3351,4.3543,4.4123,4.4642,4.5235,4.6867,4.8145,4.9198,4.9883,5.0394,5.068,5.0917,5.1105,5.1229,5.1229,5.1229,5.1229,5.1229,5.1409,5.1708,5.2097,5.2396,5.2845,5.3892,5.4401,5.4551,5.4281,5.47,5.5029,5.4371,5.47,5.5179,5.5179,5.5179,5.5179,5.5179,5.5179,5.5179,5.5179,5.5179,5.5179,5.5179,5.5179,5.5179,5.5179,5.5179,5.5179,5.5179,5.5179,5.5179,5.5179,5.5179,5.5179,5.5179,5.5179,5.5179,5.5179,5.5179,5.5179,5.5179,5.5179,5.5179,5.5179,5.5179,5.5179,5.5179,5.5179,5.5179,2.3926,2.3867,0.0,2.4375,2.5189,0.0,2.6818,2.8972,3.1229,0.0,3.4852,3.6785,3.768,3.8901,3.9857,4.0172,4.0752,0.0,0.0,0.0,0.0,0.0,0.0,0.0,4.4754,4.5925,4.7304,4.8829,4.963,5.0346,5.1088,5.1135,5.1011,5.0775,5.0728,5.022,4.9277,4.8624,4.7587,4.6269,4.5154,4.4341,4.3844,4.3265,4.2986,4.3042,4.3295,4.3572,4.3899,4.4696,4.6242,4.8223,4.8902,4.9669,5.0327,5.068,5.0964,5.1182,5.1182,5.1229,5.1229,5.1319,5.1708,5.2217,5.2366,5.2845,5.3443,5.4132,5.473,5.5059,5.4461,5.476,5.5029,5.4461,5.476,5.5179,5.5179,5.5179,5.5179,5.5179,5.5179,5.5179,5.5179,5.5179,5.5179,5.5179,5.5179,5.5179,5.5179,5.5179,5.5179,5.5179,5.5179,5.5179,5.5179,5.5179,5.5179,5.5179,5.5179,5.5179,5.5179,5.5179,5.5179,5.5179,5.5179,5.5179,5.5179,5.5179,5.5179,5.5179,5.5179,5.5179,2.4727,2.4316,2.3984,2.4746,0.0,0.0,2.5145,2.6594,2.8277,0.0,3.209,3.433,3.5983,3.7142,3.7989,3.8392,3.9346,0.0,0.0,0.0,0.0,0.0,0.0,0.0,4.3721,4.497,4.6182,4.7191,4.9009,5.0231,5.0644,5.0644,5.0644,5.0567,5.0375,4.9815,4.898,4.792,4.6843,4.5742,4.4585,4.3874,4.3517,4.3129,4.2986,4.3042,4.3295,4.3462,4.3572,4.4177,4.5235,4.6635,4.8044,4.8795,4.9268,5.0412,5.0822,5.0917,5.1105,5.1229,5.1319,5.1828,5.2097,5.2396,5.3473,5.3892,5.4132,5.482,5.5089,5.5149,5.5029,5.5089,5.5149,5.5029,5.5089,5.5179,5.5179,5.5179,5.5179,5.5179,5.5179,5.5179,5.5179,5.5179,5.5179,5.5179,5.5179,5.5179,5.5179,5.5179,5.5179,5.5179,5.5179,5.5179,5.5179,5.5179,5.5179,5.5179,5.5179,5.5179,5.5179,5.5179,5.5179,5.5179,5.5179,5.5179,5.5179,5.5179,5.5179,5.5179,5.5179,5.5179,2.4941,2.459,2.4199,2.4629,0.0,0.0,0.0,0.0,2.7092,2.8274,3.018,3.2094,3.3521,0.0,3.5698,3.6327,0.0,0.0,0.0,0.0,0.0,0.0,0.0,0.0,4.3572,4.4261,4.5209,4.6507,4.8638,4.9861,4.9863,5.0279,5.0453,5.0309,5.0183,4.96,4.8481,4.7359,4.6216,4.5154,4.3984,4.3376,4.3184,4.3073,4.2986,4.3042,4.3129,4.3184,4.324,4.3543,4.4068,4.4886,4.6712,4.7791,4.8546,4.9786,5.0394,5.071,5.1088,5.1439,5.1768,5.2097,5.2665,5.3324,5.4012,5.4431,5.476,5.5089,5.5179,5.5179,5.5179,5.5179,5.5179,5.5179,5.5179,5.5179,5.5179,5.5179,5.5179,5.5179,5.5179,5.5179,5.5179,5.5179,5.5179,5.5179,5.5179,5.5179,5.5179,5.5179,5.5179,5.5179,5.5179,5.5179,5.5179,5.5179,5.5179,5.5179,5.5179,5.5179,5.5179,5.5179,5.5179,5.5179,5.5179,5.5179,5.5179,5.5179,5.5179,5.5179,5.5179,5.5179,0.0,0.0,0.0,0.0,0.0,2.4225,0.0,0.0,0.0,0.0,0.0,0.0,0.0,0.0,0.0,0.0,0.0,0.0,0.0,0.0,0.0,0.0,0.0,0.0,0.0,4.3593,4.4509,4.6111,4.7981,4.9036,4.8902,4.962,4.9941,4.9746,4.9717,4.9128,4.7875,4.6712,4.5608,4.4613,4.3517,4.2986,4.2986,4.2986,4.2986,4.2986,4.2986,4.2986,4.2986,4.2986,4.3129,4.3602,4.5369,4.6687,4.7768,4.905,4.9863,5.0453,5.1143,5.1768,5.2247,5.2516,5.3414,5.4401,5.4401,5.476,5.5179,5.5179,5.5179,5.5179,5.5179,5.5179,5.5179,5.5179,5.5179,5.5179,5.5179,5.5179,5.5179,5.5179,5.5179,5.5179,5.5179,5.5179,5.5179,5.5179,5.5179,5.5179,5.5179,5.5179,5.5179,5.5179,5.5179,5.5179,5.5179,5.5179,5.5179,5.5179,5.5179,5.5179,5.5179,5.5179,5.5179,5.5179,5.5179,5.5179,5.5179,5.5179,5.5179,5.5179,5.5179,5.5179,0.0,0.0,0.0,0.0,2.4141,0.0,0.0,0.0,0.0,0.0,0.0,0.0,0.0,0.0,0.0,0.0,0.0,0.0,0.0,0.0,0.0,0.0,0.0,0.0,0.0,4.2741,4.404,4.5475,4.6506,4.7339,4.7847,4.8179,4.838,4.833,4.833,4.7875,4.695,4.6058,4.5154,4.4313,4.3432,4.2986,4.2986,4.2986,4.2986,4.2986,4.2986,4.2986,4.2986,4.2986,4.3129,4.3492,4.4507,4.5422,4.6426,4.8245,4.9297,4.9999,5.1553,5.2127,5.2396,5.3593,5.4491,5.5089,5.5089,5.5119,5.5179,5.5179,5.5179,5.5179,5.5179,5.5179,5.5179,5.5179,5.5179,5.5179,5.5179,5.5179,5.5179,5.5179,5.5179,5.5179,5.5179,5.5179,5.5179,5.5179,5.5179,5.5179,5.5179,5.5179,5.5179,5.5179,5.5179,5.5179,5.5179,5.5179,5.5179,5.5179,5.5179,5.5179,5.5179,5.5179,5.5179,5.5179,5.5179,5.5179,5.5179,5.5179,5.5179,5.5179,5.5179,5.5179,0.0,0.0,0.0,0.0,0.0,0.0,2.4073,0.0,2.4979,0.0,0.0,0.0,0.0,0.0,0.0,0.0,0.0,0.0,0.0,0.0,0.0,0.0,0.0,0.0,0.0,0.0,0.0,0.0,4.5101,4.5794,4.6164,4.6739,4.705,4.705,4.705,4.6739,4.6058,4.5369,4.4696,4.4064,4.3321,4.2986,4.2986,4.2986,4.2986,4.2986,4.2986,4.2986,4.2986,4.2986,4.3073,4.3184,4.3572,4.4533,4.5927,4.7564,4.8674,4.9707,5.1402,5.2312,5.2995,5.4341,5.497,5.5179,5.5179,5.5179,5.5179,5.5179,5.5179,5.5179,5.5179,5.5179,5.5179,5.5179,5.5179,5.5179,5.5179,5.5179,5.5179,5.5179,5.5179,5.5179,5.5179,5.5179,5.5179,5.5179,5.5179,5.5179,5.5179,5.5179,5.5179,5.5179,5.5179,5.5179,5.5179,5.5179,5.5179,5.5179,5.5179,5.5179,5.5179,5.5179,5.5179,5.5179,5.5179,5.5179,5.5179,5.5179,5.5179,5.5179,5.5179,5.5179,2.8747,0.0,0.0,0.0,0.0,0.0,0.0,0.0,0.0,0.0,0.0,0.0,0.0,0.0,0.0,0.0,0.0,0.0,0.0,0.0,0.0,0.0,0.0,0.0,0.0,0.0,0.0,0.0,0.0,4.4353,4.4676,4.5582,4.6062,4.6062,4.6062,4.5849,4.5392,4.4774,4.4232,4.3764,4.3265,4.2986,4.2986,4.2986,4.2986,4.2986,4.2986,4.2986,4.2986,4.2986,4.2986,4.2986,4.2986,4.3903,4.5448,4.7035,4.8325,4.9523,5.1601,5.2979,5.3892,5.488,5.5179,5.5179,5.5179,5.5179,5.5179,5.5179,5.5179,5.5179,5.5179,5.5179,5.5179,5.5179,5.5179,5.5179,5.5179,5.5179,5.5179,5.5179,5.5179,5.5179,5.5179,5.5179,5.5179,5.5179,5.5179,5.5179,5.5179,5.5179,5.5179,5.5179,5.5179,5.5179,5.5179,5.5179,5.5179,5.5179,5.5179,5.5179,5.5179,5.5179,5.5179,5.5179,5.5179,5.5179,5.5179,5.5179,5.5179,5.5179,5.5179,5.5179,0.0,0.0,0.0,2.8836,0.0,0.0,0.0,0.0,2.6445,0.0,0.0,0.0,0.0,0.0,0.0,0.0,0.0,0.0,0.0,0.0,0.0,0.0,0.0,0.0,0.0,0.0,0.0,0.0,0.0,0.0,4.3538,4.4793,4.5558,4.5558,4.5558,4.5392,4.5141,4.4322,4.3764,4.3381,4.3129,4.2986,4.2986,4.2986,4.2986,4.2986,4.2986,4.2986,4.2986,4.2986,4.2986,4.2986,4.2986,4.3543,4.4637,4.6892,4.8243,4.945,5.2629,5.435,5.5119,5.5179,5.5179,5.5179,5.5179,5.5179,5.5179,5.5179,5.5179,5.5179,5.5179,5.5179,5.5179,5.5179,5.5179,5.5179,5.5179,5.5179,5.5179,5.5179,5.5179,5.5179,5.5179,5.5179,5.5179,5.5179,5.5179,5.5179,5.5179,5.5179,5.5179,5.5179,5.5179,5.5179,5.5179,5.5179,5.5179,5.5179,5.5179,5.5179,5.5179,5.5179,5.5179,5.5179,5.5179,5.5179,5.5179,5.5179,5.5179,5.5179,5.5179,5.5179,0.0,0.0,3.0819,3.0306,0.0,0.0,0.0,0.0,0.0,0.0,0.0,0.0,0.0,0.0,0.0,0.0,0.0,0.0,0.0,0.0,0.0,0.0,0.0,0.0,0.0,0.0,0.0,0.0,4.0687,0.0,0.0,4.3212,4.4031,4.4356,4.4356,4.43,4.4244,4.3599,4.3265,4.3129,4.3042,4.2986,4.2986,4.2986,4.2986,4.2986,4.2986,4.2986,4.2986,4.2986,4.2986,4.3011,4.3388,4.3877,4.4549,4.649,4.7931,4.9478,5.2687,5.441,5.5179,5.5179,5.5179,5.5179,5.5179,5.5179,5.5179,5.5179,5.5179,5.5179,5.5179,5.5179,5.5179,5.5179,5.5179,5.5179,5.5179,5.5179,5.5179,5.5179,5.5179,5.5179,5.5179,5.5179,5.5179,5.5179,5.5179,5.5179,5.5179,5.5179,5.5179,5.5179,5.5179,5.5179,5.5179,5.5179,5.5179,5.5179,5.5179,5.5179,5.5179,5.5179,5.5179,5.5179,5.5179,5.5179,5.5179,5.5179,5.5179,5.5179,5.5179,5.5179,3.2771,3.2535,0.0,3.1809,3.1391,0.0,3.0206,0.0,0.0,0.0,0.0,0.0,0.0,0.0,0.0,0.0,0.0,0.0,0.0,0.0,0.0,0.0,0.0,0.0,0.0,0.0,3.8718,3.9069,3.9295,0.0,0.0,0.0,4.3237,4.379,4.3991,4.4091,4.4091,4.3338,4.2986,4.2986,4.2986,4.2986,4.2986,4.2986,4.2986,4.2986,4.2986,4.2986,4.2986,4.2986,4.2986,4.3037,4.3589,4.3986,4.452,4.6476,4.8541,5.0725,5.3034,5.4437,5.5179,5.5179,5.5179,5.5179,5.5179,5.5179,5.5179,5.5179,5.5179,5.5179,5.5179,5.5179,5.5179,5.5179,5.5179,5.5179,5.5179,5.5179,5.5179,5.5179,5.5179,5.5179,5.5179,5.5179,5.5179,5.5179,5.5179,5.5179,5.5179,5.5179,5.5179,5.5179,5.5179,5.5179,5.5179,5.5179,5.5179,5.5179,5.5179,5.5179,5.5179,5.5179,5.5179,5.5179,5.5179,5.5179,5.5179,5.5179,5.5179,5.5179,5.5179,5.5179]}]]